[[{"header":{"parameterUnit":"m.s-1","parameterCategory":1,"la1":30.6,"la2":29.2853,"lo1":-89.7004,"lo2":-87.6739,"dy":0.0162,"dx":0.0183,"nx":112,"ny":82,"refTime":"2024-03-15T06:00:00:Z","depth":0,"parameterNumber":2,"parameterNumberName":"U-component_of_WINDS"},"data":[0.0,0.0,0.0,0.0,0.0,0.0,0.0,0.0,0.0,0.0,0.0,0.0,0.0,0.0,0.0,0.0,0.0,0.0,0.0,0.0,0.0,0.0,0.0,0.0,0.0,0.0,0.0,0.0,0.0,0.0,0.0,0.0,0.0,0.0,0.0,0.0,0.0,0.0,0.0,0.0,0.0,0.0,0.0,0.0,0.0,0.0,0.0,0.0,0.0,0.0,0.0,0.0,0.0,0.0,0.0,0.0,0.0,0.0,0.0,0.0,0.0,0.0,0.0,0.0,0.0,0.0,0.0,0.0,0.0,0.0,0.0,0.0,0.0,0.0,0.0,0.0,0.0,0.0,0.0,0.0,0.0,0.0,0.0,0.0,0.0,0.0,0.0,0.0,0.0,0.0,-1.6325,-1.6909,-1.7985,-1.8514,-1.8141,-1.7577,-1.7311,-1.7407,0.0,0.0,0.0,0.0,0.0,0.0,0.0,0.0,0.0,0.0,0.0,0.0,0.0,0.0,0.0,0.0,0.0,0.0,0.0,0.0,0.0,0.0,0.0,0.0,0.0,0.0,0.0,0.0,0.0,0.0,0.0,0.0,0.0,0.0,0.0,0.0,0.0,0.0,0.0,0.0,0.0,0.0,0.0,0.0,0.0,0.0,0.0,0.0,0.0,0.0,0.0,0.0,0.0,0.0,0.0,0.0,0.0,0.0,0.0,0.0,0.0,0.0,0.0,0.0,0.0,0.0,0.0,0.0,0.0,0.0,0.0,0.0,0.0,0.0,0.0,0.0,0.0,0.0,0.0,0.0,0.0,0.0,0.0,0.0,0.0,0.0,0.0,0.0,0.0,0.0,0.0,0.0,0.0,0.0,0.0,0.0,0.0,0.0,0.0,0.0,0.0,0.0,0.0,0.0,-1.713,-1.724,-1.723,-1.7446,-1.8045,-1.6333,-1.614,-1.826,0.0,0.0,0.0,0.0,0.0,0.0,0.0,0.0,0.0,0.0,0.0,0.0,0.0,0.0,0.0,0.0,0.0,0.0,0.0,0.0,0.0,0.0,0.0,0.0,0.0,0.0,0.0,0.0,0.0,0.0,0.0,0.0,0.0,0.0,0.0,0.0,0.0,0.0,0.0,0.0,0.0,0.0,0.0,0.0,0.0,0.0,0.0,0.0,0.0,0.0,0.0,0.0,0.0,0.0,0.0,0.0,0.0,0.0,0.0,0.0,0.0,0.0,0.0,0.0,0.0,0.0,0.0,0.0,0.0,0.0,0.0,0.0,0.0,0.0,0.0,0.0,0.0,0.0,0.0,0.0,0.0,0.0,0.0,0.0,0.0,0.0,0.0,0.0,0.0,0.0,0.0,0.0,0.0,0.0,0.0,0.0,0.0,0.0,0.0,0.0,0.0,0.0,0.0,-1.7283,-1.7049,-1.6488,-1.6724,-1.6707,-1.6226,-1.4872,-1.4995,-1.7207,-1.6821,0.0,0.0,0.0,0.0,0.0,0.0,0.0,0.0,0.0,0.0,0.0,0.0,0.0,0.0,0.0,0.0,0.0,0.0,0.0,0.0,0.0,0.0,0.0,0.0,0.0,0.0,0.0,0.0,0.0,0.0,0.0,0.0,0.0,0.0,0.0,0.0,0.0,0.0,0.0,0.0,0.0,0.0,0.0,0.0,0.0,0.0,0.0,0.0,0.0,0.0,0.0,0.0,0.0,0.0,0.0,0.0,0.0,0.0,0.0,0.0,0.0,0.0,0.0,0.0,0.0,0.0,0.0,0.0,0.0,0.0,0.0,0.0,0.0,0.0,0.0,0.0,0.0,0.0,0.0,0.0,0.0,0.0,0.0,0.0,0.0,0.0,0.0,0.0,0.0,0.0,0.0,0.0,0.0,0.0,0.0,0.0,0.0,0.0,0.0,0.0,0.0,0.0,-1.6691,-1.5945,-1.5841,-1.5968,-1.5686,-1.4734,-1.3565,-1.3858,-1.6168,-1.5428,0.0,0.0,0.0,0.0,0.0,0.0,0.0,0.0,0.0,0.0,0.0,0.0,0.0,0.0,0.0,0.0,0.0,0.0,0.0,0.0,0.0,0.0,0.0,0.0,0.0,0.0,0.0,0.0,0.0,0.0,0.0,0.0,0.0,0.0,0.0,0.0,0.0,0.0,0.0,0.0,0.0,0.0,0.0,0.0,0.0,0.0,0.0,0.0,0.0,0.0,0.0,0.0,0.0,0.0,0.0,0.0,0.0,0.0,0.0,0.0,0.0,0.0,0.0,0.0,0.0,0.0,0.0,0.0,0.0,0.0,0.0,0.0,0.0,0.0,0.0,0.0,0.0,0.0,0.0,0.0,0.0,0.0,0.0,0.0,0.0,0.0,0.0,0.0,0.0,0.0,0.0,0.0,0.0,0.0,0.0,0.0,0.0,0.0,0.0,0.0,0.0,0.0,-1.4937,-1.3402,-1.59,-1.4645,-1.3956,-1.4729,-1.2692,-1.278,-1.6094,-1.5485,0.0,0.0,0.0,0.0,0.0,0.0,0.0,0.0,0.0,0.0,0.0,0.0,0.0,0.0,0.0,0.0,0.0,0.0,0.0,0.0,0.0,0.0,0.0,0.0,0.0,0.0,0.0,0.0,0.0,0.0,0.0,0.0,0.0,0.0,0.0,0.0,0.0,0.0,0.0,0.0,0.0,0.0,0.0,0.0,0.0,0.0,0.0,0.0,0.0,0.0,0.0,0.0,0.0,0.0,0.0,0.0,0.0,0.0,0.0,0.0,0.0,0.0,0.0,0.0,0.0,0.0,0.0,0.0,0.0,0.0,0.0,0.0,0.0,0.0,0.0,0.0,0.0,0.0,0.0,0.0,0.0,0.0,0.0,0.0,0.0,0.0,0.0,0.0,0.0,0.0,0.0,0.0,0.0,0.0,0.0,0.0,0.0,0.0,0.0,0.0,0.0,0.0,-1.6388,-1.519,0.0,-1.396,-1.3253,-1.2609,-1.176,-1.2515,-1.5427,0.0,0.0,0.0,0.0,0.0,0.0,0.0,0.0,0.0,0.0,0.0,0.0,0.0,0.0,0.0,0.0,0.0,0.0,0.0,0.0,0.0,0.0,0.0,0.0,0.0,0.0,0.0,0.0,0.0,0.0,0.0,0.0,0.0,0.0,0.0,0.0,0.0,0.0,0.0,0.0,0.0,0.0,0.0,0.0,0.0,0.0,0.0,0.0,0.0,0.0,0.0,0.0,0.0,0.0,0.0,0.0,0.0,0.0,0.0,0.0,0.0,0.0,0.0,0.0,0.0,0.0,0.0,0.0,0.0,0.0,0.0,0.0,0.0,0.0,0.0,0.0,0.0,0.0,0.0,0.0,0.0,0.0,0.0,0.0,0.0,0.0,0.0,0.0,0.0,0.0,0.0,0.0,0.0,0.0,0.0,0.0,0.0,0.0,0.0,0.0,0.0,0.0,-1.7728,-1.6573,-1.5171,0.0,-1.3021,-1.2404,-1.1348,-1.1049,-1.2261,-1.5409,0.0,0.0,0.0,0.0,0.0,0.0,0.0,0.0,0.0,0.0,0.0,0.0,0.0,0.0,0.0,0.0,0.0,0.0,0.0,0.0,0.0,0.0,0.0,0.0,0.0,0.0,0.0,0.0,0.0,0.0,0.0,0.0,0.0,0.0,0.0,0.0,0.0,0.0,0.0,0.0,0.0,0.0,0.0,0.0,0.0,0.0,0.0,0.0,0.0,0.0,0.0,0.0,0.0,0.0,0.0,0.0,0.0,0.0,0.0,0.0,0.0,0.0,0.0,0.0,0.0,0.0,0.0,0.0,0.0,0.0,0.0,0.0,0.0,0.0,0.0,0.0,0.0,0.0,0.0,0.0,0.0,0.0,0.0,0.0,0.0,0.0,0.0,0.0,0.0,0.0,0.0,0.0,0.0,0.0,0.0,0.0,0.0,0.0,0.0,0.0,0.0,0.0,-1.8185,-1.4883,-1.2496,-1.2679,-1.1801,-1.1254,-1.1371,-1.0608,-1.1935,0.0,0.0,0.0,0.0,0.0,0.0,0.0,0.0,0.0,0.0,0.0,0.0,0.0,0.0,0.0,0.0,0.0,0.0,0.0,0.0,0.0,0.0,0.0,0.0,0.0,0.0,0.0,0.0,0.0,0.0,0.0,0.0,0.0,0.0,0.0,0.0,0.0,0.0,0.0,0.0,0.0,0.0,0.0,0.0,0.0,0.0,0.0,0.0,0.0,0.0,0.0,0.0,0.0,0.0,0.0,0.0,0.0,0.0,0.0,0.0,0.0,0.0,0.0,0.0,0.0,0.0,0.0,0.0,0.0,0.0,0.0,0.0,0.0,0.0,0.0,0.0,0.0,0.0,0.0,0.0,0.0,0.0,0.0,0.0,0.0,0.0,0.0,0.0,0.0,0.0,0.0,0.0,0.0,0.0,0.0,0.0,0.0,0.0,0.0,0.0,0.0,0.0,0.0,-1.7491,-1.5108,-1.2978,-1.1893,-1.1525,-1.1123,-1.0603,-1.0313,-1.1983,-1.6235,0.0,0.0,0.0,0.0,0.0,0.0,0.0,0.0,0.0,0.0,0.0,0.0,0.0,0.0,0.0,0.0,0.0,0.0,0.0,0.0,0.0,0.0,0.0,0.0,0.0,0.0,0.0,0.0,0.0,0.0,0.0,0.0,0.0,0.0,0.0,0.0,0.0,0.0,0.0,0.0,0.0,0.0,0.0,0.0,0.0,0.0,0.0,0.0,0.0,0.0,0.0,0.0,0.0,0.0,0.0,0.0,0.0,0.0,0.0,0.0,0.0,0.0,0.0,0.0,0.0,0.0,0.0,0.0,0.0,0.0,0.0,0.0,0.0,0.0,0.0,0.0,0.0,0.0,0.0,0.0,0.0,0.0,0.0,0.0,0.0,0.0,0.0,0.0,0.0,0.0,0.0,0.0,0.0,0.0,0.0,0.0,0.0,0.0,0.0,0.0,0.0,0.0,-1.7278,-1.4999,-1.2726,-1.1091,-1.0906,-1.0691,-1.0237,-1.0175,-1.1825,-1.572,0.0,0.0,0.0,0.0,0.0,0.0,0.0,0.0,0.0,0.0,0.0,0.0,0.0,0.0,0.0,0.0,0.0,0.0,0.0,0.0,0.0,0.0,0.0,0.0,0.0,0.0,0.0,0.0,0.0,0.0,0.0,0.0,0.0,0.0,0.0,0.0,0.0,0.0,0.0,0.0,0.0,0.0,0.0,0.0,0.0,0.0,0.0,0.0,0.0,0.0,0.0,0.0,0.0,0.0,0.0,0.0,0.0,0.0,0.0,0.0,0.0,0.0,0.0,0.0,0.0,0.0,0.0,0.0,0.0,0.0,0.0,0.0,0.0,0.0,0.0,0.0,0.0,0.0,0.0,0.0,0.0,0.0,0.0,0.0,0.0,0.0,0.0,0.0,0.0,0.0,0.0,0.0,0.0,0.0,0.0,0.0,0.0,0.0,0.0,0.0,0.0,0.0,-1.7425,-1.4647,-1.2092,-1.0491,-1.0182,-1.0137,-1.019,-1.0133,-1.1556,-1.4973,0.0,0.0,0.0,0.0,0.0,0.0,0.0,0.0,0.0,0.0,0.0,0.0,0.0,0.0,0.0,0.0,0.0,0.0,0.0,0.0,0.0,0.0,0.0,0.0,0.0,0.0,0.0,0.0,0.0,0.0,0.0,0.0,0.0,0.0,0.0,0.0,0.0,0.0,0.0,0.0,0.0,0.0,0.0,0.0,0.0,0.0,0.0,0.0,0.0,0.0,0.0,0.0,0.0,0.0,0.0,0.0,0.0,0.0,0.0,0.0,-1.7415,0.0,0.0,0.0,0.0,0.0,0.0,0.0,0.0,0.0,0.0,0.0,0.0,0.0,0.0,0.0,0.0,0.0,0.0,0.0,0.0,0.0,0.0,0.0,0.0,0.0,0.0,0.0,0.0,0.0,0.0,0.0,0.0,0.0,0.0,0.0,0.0,0.0,0.0,0.0,0.0,0.0,-1.7491,-1.4685,-1.2313,-1.1324,-1.0547,-1.0122,-1.0198,-1.0133,-1.1551,-1.4985,-1.4594,0.0,0.0,0.0,0.0,0.0,0.0,0.0,0.0,0.0,0.0,0.0,0.0,0.0,0.0,0.0,0.0,0.0,0.0,0.0,0.0,0.0,0.0,0.0,0.0,0.0,0.0,0.0,0.0,0.0,0.0,0.0,0.0,0.0,0.0,0.0,0.0,0.0,0.0,0.0,0.0,0.0,0.0,0.0,0.0,0.0,0.0,0.0,0.0,0.0,0.0,0.0,0.0,0.0,0.0,0.0,0.0,0.0,0.0,0.0,0.0,-1.8829,0.0,0.0,0.0,0.0,0.0,0.0,0.0,0.0,0.0,0.0,0.0,0.0,0.0,0.0,0.0,0.0,0.0,0.0,0.0,0.0,0.0,0.0,0.0,0.0,0.0,0.0,0.0,0.0,0.0,0.0,0.0,0.0,0.0,0.0,0.0,0.0,0.0,0.0,0.0,0.0,-1.828,-1.5353,-1.2974,-1.2161,-1.1643,-1.1355,-1.1393,-1.1373,-1.1969,-1.3478,-1.449,0.0,0.0,0.0,0.0,0.0,0.0,0.0,0.0,0.0,0.0,0.0,0.0,0.0,0.0,0.0,0.0,0.0,0.0,0.0,0.0,0.0,0.0,0.0,0.0,0.0,0.0,0.0,0.0,0.0,0.0,0.0,0.0,0.0,0.0,0.0,0.0,0.0,0.0,0.0,0.0,0.0,0.0,0.0,0.0,0.0,0.0,0.0,0.0,0.0,0.0,0.0,0.0,0.0,0.0,-2.1254,-2.1861,-2.2096,-2.1742,-2.0872,-1.9375,-1.8503,-1.8244,0.0,0.0,0.0,0.0,0.0,0.0,0.0,0.0,0.0,0.0,0.0,0.0,0.0,0.0,0.0,0.0,0.0,0.0,0.0,0.0,0.0,0.0,0.0,0.0,0.0,-1.9778,-2.0254,0.0,0.0,0.0,0.0,0.0,0.0,0.0,0.0,0.0,0.0,0.0,0.0,-1.8902,-1.5975,-1.3664,-1.3003,-1.2793,-1.2708,-1.2703,-1.2708,-1.2526,-1.2113,-1.4577,-1.7074,0.0,0.0,0.0,0.0,0.0,0.0,0.0,0.0,0.0,0.0,0.0,0.0,0.0,0.0,0.0,0.0,0.0,0.0,0.0,0.0,0.0,0.0,0.0,0.0,0.0,0.0,0.0,0.0,0.0,0.0,0.0,0.0,-0.295,0.1306,0.0,0.0,0.0,0.0,0.0,0.0,0.0,0.0,0.0,0.0,0.0,0.0,0.0,0.0,-1.9082,-1.8333,-1.8055,-1.8303,-1.9032,-1.935,-1.9316,-2.0205,-2.0384,-1.9994,-2.0019,0.0,-2.0711,-2.0679,0.0,0.0,0.0,0.0,0.0,0.0,0.0,0.0,0.0,0.0,0.0,0.0,0.0,0.0,0.0,0.0,0.0,0.0,0.0,0.0,0.0,0.0,-1.8682,-1.7858,-1.8258,-1.8879,0.0,-2.1138,-2.2988,-2.3144,0.0,0.0,0.0,0.0,0.0,0.0,0.0,0.0,-1.8135,-1.5672,-1.3938,-1.3842,-1.3152,-1.2697,-1.2703,-1.2704,-1.2868,-1.3247,-1.3879,-1.5498,-1.8275,-1.8801,0.0,0.0,0.0,0.0,0.0,0.0,0.0,0.0,0.0,0.0,0.0,0.0,0.0,0.0,0.0,0.0,0.0,0.0,0.0,0.0,0.0,0.0,0.0,0.0,0.0,0.0,0.0,0.0,0.0,-0.876,-0.8645,-0.7611,-0.842,-0.9156,0.0,0.0,0.0,0.0,0.0,0.0,0.0,0.0,0.0,-1.7481,-1.8363,-1.841,-1.7521,-1.7604,-1.7929,-1.8478,-1.8906,-1.9284,-1.9662,-2.0096,-2.0216,-2.0088,-2.0252,-2.0446,-2.0723,-2.1051,-2.1418,-2.1848,0.0,0.0,0.0,0.0,0.0,-2.3477,-2.2539,0.0,0.0,0.0,0.0,0.0,0.0,0.0,0.0,0.0,0.0,0.0,0.0,0.0,0.0,-1.7997,-1.8188,-1.8701,-1.9206,-2.0287,-2.1325,0.0,-2.2075,-2.238,-2.3072,0.0,0.0,0.0,0.0,-1.8787,-1.86,-1.6314,-1.4716,-1.4678,-1.4332,-1.4102,-1.4102,-1.4113,-1.4214,-1.444,-1.4574,-1.5197,-1.646,-1.774,-1.9172,0.0,0.0,0.0,0.0,0.0,0.0,0.0,0.0,0.0,0.0,0.0,0.0,0.0,0.0,0.0,0.0,0.0,0.0,0.0,0.0,0.0,0.0,0.0,0.0,0.0,0.0,0.0,0.0,-1.1871,-1.3164,-1.4418,-1.345,-1.3565,0.0,0.0,0.0,0.0,0.0,0.0,-1.2758,-1.4306,-1.5421,-1.5936,-1.7588,-1.7884,-1.6699,-1.7577,-1.8377,-1.9037,-1.9283,-1.9694,-2.0214,-2.0277,-2.026,-2.019,-2.0269,-2.0277,-2.0277,-2.0919,-2.097,-2.0753,-2.2087,-2.2738,-2.2907,-2.2734,-2.2676,-2.252,-2.1542,-2.1187,-2.1128,-2.1015,0.0,-2.1135,-2.1525,0.0,0.0,0.0,0.0,-1.933,-1.8789,0.0,-1.9158,-1.8562,-1.8572,-1.8877,-1.9522,-1.9829,-2.014,0.0,-2.1147,-2.1684,-2.2618,0.0,0.0,0.0,0.0,-1.8971,-1.9043,-1.7028,-1.5595,-1.5534,-1.533,-1.5189,-1.5189,-1.5189,-1.5189,-1.5189,-1.5189,-1.5189,-1.5189,-1.6824,-1.827,-1.9409,0.0,0.0,0.0,0.0,0.0,0.0,0.0,0.0,0.0,0.0,0.0,0.0,0.0,0.0,0.0,0.0,0.0,0.0,0.0,0.0,0.0,0.0,0.0,0.0,0.0,0.0,0.0,0.0,0.0,-1.4909,-1.4737,0.0,0.0,0.0,0.0,-1.2674,-1.3168,-1.2942,-1.1488,-1.381,-1.5397,-1.5809,-1.6952,-1.7611,-1.7723,-1.8526,-1.8979,-1.909,-1.9868,-2.0167,-2.0022,-2.0205,-2.0135,-1.9855,-2.0162,-2.0197,-2.0041,-2.0257,-2.0811,-2.155,-2.1692,-2.2265,-2.29,-2.2072,-2.1767,-2.1606,-2.0554,-2.0165,-2.0142,-1.9935,-2.039,-2.1018,-2.1109,-2.0808,0.0,0.0,-1.9083,-1.8659,-1.8329,-1.8623,-1.9011,-1.8955,-1.9109,-1.9271,-1.9323,-1.9936,-2.0349,0.0,-1.9084,-1.8864,-2.03,0.0,-1.9362,-2.051,-1.9926,-1.9262,-1.8943,-1.7467,-1.6435,-1.643,-1.5688,-1.5189,-1.5189,-1.5189,-1.5189,-1.5189,-1.5189,-1.5189,-1.5189,-1.5305,-1.642,-1.8616,-1.9404,0.0,0.0,0.0,0.0,0.0,0.0,0.0,0.0,0.0,0.0,0.0,0.0,0.0,0.0,0.0,0.0,0.0,0.0,0.0,0.0,0.0,0.0,0.0,0.0,0.0,0.0,0.0,0.0,-1.6869,-1.6687,0.0,-1.8978,-1.8198,-1.698,-1.5565,-1.4328,-1.3337,-1.2685,-1.3782,-1.4794,-1.5585,-1.7096,-1.8004,-1.8248,-1.9139,-1.9575,-1.9555,-1.9849,-1.9934,-1.9887,-2.0021,-2.004,-1.9935,-2.0195,-2.0188,-2.0012,-2.0084,-2.0365,-2.077,-2.0785,-2.0983,-2.122,-2.0905,-2.08,-2.0723,-2.0208,-1.9973,-1.9836,-1.9425,-1.9257,-1.9253,-1.9535,-1.9405,-1.9199,-1.9386,-1.9352,-1.9174,-1.8967,-1.9566,-2.0012,-1.9188,-1.954,-1.9954,-1.9592,-1.9629,-1.9672,-1.9441,-1.9465,-1.9652,-2.0183,-1.9377,-1.908,-2.0263,-1.9408,-1.8669,-1.8825,-1.7998,-1.7377,-1.7278,-1.7026,-1.6651,-1.6086,-1.6042,-1.5792,-1.5228,-1.5189,-1.5189,-1.5189,-1.5189,-1.5574,-1.6401,-1.6674,-1.5318,0.0,0.0,0.0,0.0,0.0,0.0,0.0,0.0,0.0,0.0,0.0,0.0,0.0,0.0,0.0,0.0,0.0,0.0,0.0,0.0,0.0,0.0,0.0,0.0,0.0,0.0,-1.6679,-1.895,-1.8182,-1.8362,-2.0663,-1.9123,-1.7778,-1.7344,-1.5599,-1.4612,-1.4718,-1.5165,-1.5911,-1.7021,-1.8485,-1.9355,-1.9588,-2.0308,-2.0645,-2.0615,-2.0615,-2.0613,-2.0607,-2.0424,-2.0355,-2.041,-2.0265,-2.0115,-1.9993,-1.9993,-2.005,-2.0125,-2.0126,-2.0131,-2.0169,-2.0446,-2.0542,-2.0557,-2.0644,-2.0591,-2.0415,-2.0121,-1.9835,-1.9665,-1.9714,-1.972,-1.9681,-1.9789,-1.9924,-1.9959,-1.9755,-2.0179,-2.0526,-1.9953,-2.0168,-2.0477,-2.0369,-2.0015,-1.9692,-1.9638,-1.9648,-1.9643,-1.9547,-1.8775,-1.8524,-1.9665,-1.8913,-1.8448,-1.9043,-1.8581,-1.818,-1.8111,-1.7901,-1.7529,-1.6987,-1.7183,-1.6965,-1.6099,-1.6042,-1.6042,-1.6042,-1.6042,-1.5549,-1.45,-1.3835,-1.4228,-1.5748,0.0,0.0,0.0,0.0,0.0,0.0,0.0,0.0,0.0,0.0,0.0,0.0,0.0,0.0,0.0,0.0,0.0,0.0,0.0,0.0,0.0,0.0,0.0,-2.0346,-1.9098,-1.884,-2.0883,-1.9033,-1.8256,-1.994,-1.8662,-1.7723,-1.7737,-1.6998,-1.6791,-1.7293,-1.7892,-1.8809,-2.0039,-2.0996,-2.153,-2.1673,-2.1994,-2.2168,-2.2168,-2.2168,-2.2182,-2.2163,-2.1393,-2.1103,-2.1189,-2.0393,-2.0022,-2.0012,-1.9993,-1.9912,-1.9832,-1.9838,-1.9838,-1.9934,-2.0727,-2.1023,-2.1101,-2.176,-2.1899,-2.1808,-2.1949,-2.2206,-2.2359,-2.1787,-2.1858,-2.1873,-2.0861,-2.0784,-2.0969,-2.0627,-2.0438,-2.0496,-2.1243,-2.0985,-2.0807,-2.1659,-2.1157,-2.0547,-2.0555,-1.954,-1.8586,-1.8246,-1.7692,-1.7598,-1.8528,-1.8426,0.0,-1.9551,-1.918,-1.8865,-1.8963,-1.8285,-1.7842,-1.7878,-1.8583,-1.8665,-1.776,-1.7702,-1.7702,-1.7702,-1.7722,-1.6357,-1.3443,-1.1449,-1.4559,-2.2903,0.0,0.0,0.0,0.0,0.0,0.0,0.0,0.0,0.0,0.0,0.0,0.0,0.0,0.0,0.0,0.0,0.0,0.0,0.0,0.0,0.0,-2.0312,-1.9386,-2.0175,-1.8816,-1.816,-1.9316,-1.8439,-1.8392,-2.0082,-1.9016,-1.825,-1.8359,-1.8313,-1.8143,-1.7764,-1.8626,-1.9393,-1.994,-2.0442,-2.0813,-2.1046,-2.1388,-2.1552,-2.1552,-2.1552,-2.1659,-2.1887,-2.1689,-2.1662,-2.1742,-2.1191,-2.0801,-2.0532,-1.9964,-1.9942,-2.0341,-2.0585,-2.0668,-2.0739,-2.1304,-2.1446,-2.1393,-2.1563,-2.1592,-2.1526,-2.1547,-2.15,-2.148,-2.1849,-2.1864,-2.1795,-2.2022,-2.2148,-2.2124,-2.1696,-2.2161,-2.2592,-2.1978,-2.2186,-2.2502,-2.2392,-2.2075,-2.1763,-2.1551,-2.0948,-1.9968,-1.8388,-1.7683,-1.7363,-1.7594,-1.7838,0.0,-1.8893,-1.9254,-1.9775,-2.0611,-2.0602,-2.0296,-1.9726,-1.9838,-1.9292,-1.7792,-1.7746,-1.7752,-1.7702,-1.8119,-1.8788,-1.9675,-1.8865,-1.9908,0.0,0.0,0.0,0.0,0.0,0.0,0.0,0.0,0.0,0.0,0.0,0.0,0.0,0.0,0.0,0.0,0.0,0.0,0.0,0.0,0.0,0.0,-2.0375,-2.0018,-2.1176,-1.9544,-1.8525,-1.9326,-1.9088,-1.9229,-2.0247,-1.9513,-1.9141,-1.9495,-1.9381,-1.9344,-1.9453,-1.9927,-2.0435,-2.0906,-2.1198,-2.1444,-2.1593,-2.1927,-2.2096,-2.2117,-2.2242,-2.2417,-2.2589,-2.2389,-2.2374,0.0,-2.1862,-2.1492,-2.1261,-2.0796,-2.0786,0.0,0.0,0.0,0.0,0.0,-2.1989,-2.2232,-2.2382,-2.241,-2.2347,-2.2357,-2.2341,-2.2371,-2.2522,-2.2534,-2.2547,-2.2813,-2.3007,-2.3072,-2.2775,-2.312,-2.3439,-2.3124,-2.3211,-2.3412,-2.3487,-2.3138,-2.2738,-2.2531,0.0,0.0,-1.9304,-1.8444,-1.8055,-1.8286,-1.8269,-1.8481,0.0,-1.9858,-2.0552,-2.1517,-2.1825,-2.169,-2.097,-2.1179,0.0,0.0,0.0,-1.9538,-1.9851,-2.0461,0.0,0.0,0.0,-2.2658,-2.3139,0.0,0.0,0.0,-2.366,-2.31,0.0,0.0,0.0,0.0,0.0,0.0,0.0,0.0,0.0,0.0,0.0,0.0,0.0,0.0,0.0,0.0,-2.081,-2.0936,-2.2654,-2.088,-1.966,-2.0346,-2.0369,-2.0314,-2.0387,-2.0154,-2.02,-2.0754,-2.0307,-2.0484,-2.1524,0.0,0.0,0.0,0.0,-2.2686,-2.2772,-2.3021,-2.3165,-2.3189,-2.35,-2.3671,-2.3696,-2.3305,-2.3179,-2.3277,-2.2492,-2.2123,-2.2107,-2.2015,-2.1922,-2.1736,-2.0756,-2.0822,-2.1499,-2.1861,-2.2473,0.0,0.0,0.0,0.0,-2.3631,-2.3837,-2.3996,-2.3414,-2.3432,-2.358,-2.3336,-2.3467,-2.3702,-2.3682,-2.3573,-2.3621,-2.4351,-2.4091,-2.3899,-2.4668,-2.4235,-2.3628,-2.3494,-2.2402,-2.1348,-2.0803,-1.9707,-1.9097,-1.967,-1.9049,0.0,-1.9958,-2.0555,-2.1138,-2.1889,0.0,0.0,-2.1944,-2.2545,-2.2274,-2.0677,-2.1313,-2.2101,-2.2863,-2.3391,-2.3656,-2.3681,-2.3468,-2.3399,-2.3501,-2.3307,-2.3644,-2.4444,-2.3903,-2.3482,0.0,0.0,0.0,0.0,0.0,0.0,0.0,0.0,0.0,0.0,0.0,0.0,0.0,0.0,0.0,-2.1507,-2.1403,-2.1514,-2.2732,-2.1914,-2.1218,-2.1255,-2.0696,-2.0315,-2.0314,-2.0839,-2.1048,-2.0748,-2.1496,-2.186,-2.16,-2.1907,0.0,-2.2608,-2.2463,-2.2607,-2.3093,-2.2898,-2.2923,-2.3189,0.0,0.0,-2.3714,-2.3762,-2.3878,-2.3971,-2.3333,-2.2947,-2.2757,-2.2094,-2.1891,-2.1969,-2.2019,-2.2203,-2.2385,-2.2161,-2.2389,-2.2745,-2.2504,-2.2805,-2.33,-2.33,-2.3346,-2.3414,-2.3566,-2.3453,0.0,-2.3559,-2.3641,-2.3685,-2.3692,-2.3978,-2.4351,-2.4668,-2.4726,-2.4793,-2.513,-2.4927,-2.4661,-2.4547,-2.3938,-2.3295,-2.275,-2.0577,-1.8849,-1.871,-1.8471,-1.8456,-1.8852,-1.9906,-2.1042,-2.2238,-2.3086,-2.3589,-2.3698,-2.3792,-2.3417,-2.237,-2.2472,-2.2674,-2.2901,-2.2806,-2.283,-2.2997,-2.2633,-2.2806,-2.3512,-2.331,-2.356,-2.4228,-2.361,-2.3259,0.0,0.0,0.0,0.0,0.0,0.0,0.0,0.0,0.0,0.0,0.0,-1.8533,-1.8976,0.0,-2.0263,-2.1541,-2.2034,-2.2643,-2.38,-2.3396,-2.2806,-2.2317,-2.1506,-2.1167,-2.1615,-2.1839,-2.2016,-2.214,-2.2206,-2.2289,-2.24,-2.2444,-2.2563,-2.2695,-2.273,-2.2908,-2.3189,-2.3045,-2.3045,-2.3189,-2.3369,-2.3544,-2.3714,-2.3981,-2.4135,-2.4171,-2.3878,-2.3694,-2.3566,-2.3162,-2.2942,-2.2868,-2.3053,-2.2859,-2.2462,-2.2249,-2.2333,-2.2485,-2.2415,-2.2652,-2.2972,-2.3141,-2.3189,-2.3259,-2.3588,-2.3359,-2.3084,-2.3746,-2.371,-2.3544,-2.3855,-2.4289,-2.4693,-2.4778,-2.4982,-2.5148,-2.5143,-2.5075,-2.494,-2.4712,-2.4307,-2.3841,-2.3287,-2.1532,-2.0086,-1.9753,-1.9256,-1.9064,-1.9416,-2.0369,-2.1441,-2.2585,-2.3534,-2.4062,-2.4002,-2.3664,-2.3463,-2.3501,-2.3471,-2.3653,-2.4121,-2.389,-2.3812,-2.3907,-2.3534,-2.3577,-2.4005,-2.3797,-2.3861,-2.419,-2.3692,-2.3369,0.0,0.0,0.0,0.0,0.0,0.0,0.0,0.0,-1.8921,-1.8331,-1.871,-1.9081,-1.8914,-2.0026,-2.1093,-2.1568,-2.2606,-2.374,-2.4863,-2.4572,-2.4002,-2.3335,-2.2484,-2.2154,-2.2674,-2.271,-2.294,-2.3536,-2.2776,-2.2584,-2.3264,-2.2923,-2.2772,-2.2898,-2.3093,-2.3259,-2.3392,-2.3277,-2.3236,-2.33,-2.3566,-2.3692,-2.3714,-2.4054,-2.419,-2.419,-2.419,-2.419,-2.419,-2.419,-2.4005,-2.369,-2.371,-2.3217,-2.2446,-2.2315,-2.2304,-2.2371,-2.2449,-2.2556,-2.266,-2.294,-2.3014,-2.3087,-2.341,-2.3141,-2.2904,-2.3852,-2.3708,-2.3455,-2.4101,-2.4513,-2.4814,-2.4828,-2.5057,-2.5203,-2.5034,-2.4962,-2.4812,-2.4551,-2.42,-2.3786,-2.3285,-2.2331,-2.1467,-2.1058,-2.0273,-1.9823,-2.0153,-2.0872,-2.1701,-2.2645,-2.3671,-2.4222,-2.4113,-2.3592,-2.3606,-2.437,-2.4356,-2.4656,-2.5356,-2.5105,-2.4974,-2.501,-2.4632,-2.4461,-2.4495,-2.4303,-2.419,-2.419,-2.3876,-2.3522,-1.801,-1.8312,-1.7869,-1.8464,-1.8005,-1.7621,0.0,0.0,-1.7929,-1.7642,-1.8078,-1.8346,-1.7877,-1.9588,-2.1223,-2.1693,-2.2989,-2.419,-2.4974,-2.4478,-2.4058,-2.4141,-2.3386,-2.2572,-2.1821,-2.2948,-2.3663,-2.3523,-2.3401,-2.3415,-2.3631,-2.3045,-2.2972,-2.3566,-2.3346,-2.35,-2.4074,-2.35,-2.3346,-2.3631,-2.3692,-2.3692,-2.3714,-2.4054,-2.419,-2.419,-2.419,-2.419,-2.419,-2.419,-2.4005,-2.369,-2.371,-2.3455,-2.3035,-2.2346,-2.2334,-2.2582,-2.1948,-2.1998,-2.2349,-2.2405,-2.2405,-2.2453,-2.2738,-2.2772,-2.2853,-2.356,-2.3703,-2.3775,-2.4337,-2.4623,-2.4832,-2.4955,-2.5012,-2.5022,-2.4991,-2.478,-2.4543,-2.451,-2.4078,-2.3631,-2.3253,-2.2555,-2.1817,-2.1109,-2.0273,-1.9711,-1.9767,-2.044,-2.1239,-2.2168,-2.3186,-2.418,-2.5138,-2.5095,-2.5063,-2.5178,-2.5159,-2.5216,-2.5313,-2.5,-2.4877,-2.501,-2.4491,-2.4321,-2.4495,-2.4303,-2.419,-2.419,-2.3876,-2.3522,-1.5646,-1.7111,-1.8159,-1.7978,-1.8524,-1.9084,-1.9022,-1.9236,-1.9168,-1.8228,-1.8723,-1.9329,-1.9341,-2.0471,-2.1661,0.0,-2.3232,-2.3989,-2.4809,-2.435,-2.3833,-2.3514,-2.3196,-2.2992,-2.2994,-2.3871,-2.4334,-2.4095,-2.3785,-2.3638,-2.3692,-2.3437,-2.3414,-2.3692,-2.3735,-2.3917,-2.4208,-2.3917,-2.3837,-2.3996,-2.3996,-2.3996,-2.3996,-2.4151,-2.419,-2.419,-2.419,-2.419,-2.419,-2.419,-2.4135,-2.3986,-2.3996,-2.3979,-2.3855,-2.3029,-2.2855,-2.2947,-2.2652,-2.2669,-2.2824,-2.2824,-2.2824,-2.2875,-2.3206,-2.314,-2.3144,-2.3804,-2.3921,-2.3969,-2.4393,-2.4707,-2.4898,-2.4894,-2.4947,-2.4949,-2.4747,-2.4435,-2.4174,-2.406,-2.3692,-2.33,-2.2976,-2.2468,-2.1849,-2.1124,-2.0481,-1.9974,-1.9747,-2.04,-2.1504,-2.304,-2.3891,-2.4631,-2.5329,-2.5337,-2.5303,-2.5303,-2.5303,-2.5303,-2.5303,-2.5041,-2.4937,-2.501,-2.4693,-2.4545,-2.4495,-2.4428,-2.4375,-2.4375,-2.4114,-2.3881,-1.4663,-1.6159,-1.7636,-1.7684,-1.8718,-1.9687,-1.9701,-2.0162,-2.0322,-1.9454,-1.9836,-2.0433,-2.0772,-2.1242,-2.1932,-2.2999,-2.344,-2.3914,-2.4693,-2.427,-2.3732,-2.3287,-2.3293,-2.339,-2.3543,-2.4117,-2.4479,-2.4491,-2.3983,-2.3735,-2.3837,-2.3753,-2.3735,-2.3837,-2.4074,-2.419,-2.419,-2.419,-2.419,-2.419,-2.419,-2.419,-2.419,-2.419,-2.419,-2.419,-2.419,-2.419,-2.419,-2.419,-2.419,-2.4227,-2.4247,-2.4375,-2.4425,-2.385,-2.3584,-2.348,-2.3392,-2.337,-2.337,-2.337,-2.3338,-2.3323,-2.3571,-2.3453,-2.3323,-2.3884,-2.399,-2.4026,-2.4461,-2.4758,-2.5001,-2.5248,-2.511,-2.4947,-2.492,-2.4394,-2.3941,-2.3985,-2.3401,-2.289,-2.2842,-2.2261,-2.163,-2.1102,-2.0714,-2.0353,-1.9929,-2.0798,-2.2017,-2.3565,-2.4369,-2.4953,-2.5375,-2.537,-2.5322,-2.5313,-2.5303,-2.5303,-2.5303,-2.5099,-2.501,-2.501,-2.4883,-2.4731,-2.4575,-2.4575,-2.4575,-2.4575,-2.4649,-2.4616,-1.6206,-1.6022,-1.6104,-1.7919,-1.8022,-1.8183,-2.0049,-2.048,-2.0677,-2.1351,-2.1323,-2.121,-2.1424,-2.1542,-2.1927,-2.2953,-2.3593,-2.4191,-2.4727,-2.427,-2.3944,-2.4053,-2.4128,-2.3713,0.0,-2.3176,-2.3878,-2.4454,-2.3983,-2.3837,-2.417,-2.3876,-2.3837,-2.417,-2.419,-2.419,-2.419,-2.419,-2.419,-2.419,-2.419,-2.419,-2.419,-2.419,-2.419,-2.419,-2.419,-2.419,-2.419,-2.419,-2.419,-2.4209,-2.4409,-2.4495,-2.4528,-2.47,-2.4545,-2.4221,-2.3897,-2.3785,-2.3785,-2.3785,-2.3658,-2.3508,-2.3508,-2.3365,-2.3266,-2.3618,-2.3703,-2.3877,-2.4602,-2.4803,-2.5091,-2.6261,-2.5641,-2.5012,-2.5804,-2.4783,-2.3927,-2.4635,-2.3344,-2.2372,-2.3067,-2.2007,-2.1023,-2.1007,-2.1007,-2.0829,-2.0348,-2.1608,-2.2752,-2.327,-2.4198,-2.4953,-2.5377,-2.5399,-2.5371,-2.5293,-2.5303,-2.5303,-2.5303,-2.5099,-2.501,-2.501,-2.4883,-2.4804,-2.479,-2.479,-2.479,-2.4808,-2.5582,-2.5834,-1.5719,-1.6186,-1.6873,-1.7834,-1.8748,-1.9625,-2.062,-2.104,-2.1259,-2.1317,-2.1653,-2.1847,-2.1625,-2.155,-2.2013,-2.3464,-2.3415,-2.3614,-2.4763,-2.4189,-2.3705,-2.3887,-2.3288,0.0,0.0,0.0,0.0,-2.3545,-2.3821,-2.4074,-2.419,-2.4094,-2.4094,-2.4208,-2.419,-2.419,-2.419,-2.419,-2.419,-2.419,-2.419,-2.419,-2.419,-2.419,-2.419,-2.419,-2.419,-2.419,-2.419,-2.419,-2.4266,-2.441,-2.4478,-2.4636,-2.4845,-2.4898,-2.4962,-2.4917,-2.4582,-2.4469,-2.4464,-2.453,-2.4445,-2.436,-2.4355,-2.4309,-2.4262,-2.4244,-2.4725,-2.5245,-2.5377,-2.5596,-2.6005,-2.6811,-2.6269,-2.5781,-2.6441,-2.5902,-2.5288,-2.5258,-2.4637,-2.3927,-2.3435,-2.3038,-2.2687,-2.2429,-2.1782,-2.1379,-2.1483,-2.2348,-2.3205,-2.3895,-2.4465,-2.4934,-2.5292,-2.5372,-2.5383,-2.5379,-2.5321,-2.5348,-2.5428,-2.5313,-2.5297,-2.5328,-2.5243,-2.5138,-2.5004,-2.4955,-2.5228,-2.5798,-2.5939,-2.6359,-1.5756,-1.6354,-1.71,-1.7786,-1.8892,-1.9928,-2.048,-2.0826,-2.0882,-2.0447,-2.1062,-2.1584,-2.1417,-2.1178,-2.1697,-2.3746,-2.325,-2.3176,-2.4701,-2.4239,-2.3833,-2.4186,-2.3366,-2.2881,0.0,0.0,0.0,-2.3324,-2.3742,-2.4016,-2.4016,-2.4016,-2.4074,-2.4208,-2.4094,-2.4074,-2.419,-2.4074,-2.4016,-2.4016,-2.4016,-2.3976,-2.3855,-2.3976,-2.4016,-2.4016,-2.4151,-2.419,-2.419,-2.419,-2.4266,-2.441,-2.4561,-2.4741,-2.4937,-2.5065,-2.5192,-2.5264,-2.5081,-2.5013,-2.5033,-2.5095,-2.5041,-2.4933,-2.4926,-2.4901,-2.4882,-2.503,-2.5537,-2.6098,-2.6311,-2.6574,-2.695,-2.77,-2.7217,-2.6771,-2.7436,-2.6875,-2.6254,-2.6255,-2.549,-2.4712,-2.4228,-2.3696,-2.3289,-2.3173,-2.2564,-2.2211,-2.246,-2.3035,-2.3658,-2.4238,-2.4664,-2.502,-2.5305,-2.5403,-2.5434,-2.5441,-2.5398,-2.5401,-2.5508,-2.5757,-2.5776,-2.5508,-2.5762,-2.5686,-2.5232,-2.5495,-2.5896,-2.6461,-2.6912,-2.739,-1.6324,-1.6429,-1.6676,-1.7814,-1.8496,-1.909,-1.9735,-1.9922,-1.9744,-1.911,-1.9808,-2.065,0.0,0.0,-2.1097,-2.3785,-2.3142,-2.2905,-2.4629,-2.448,-2.4437,0.0,0.0,0.0,0.0,0.0,0.0,-2.3692,0.0,-2.3714,-2.3692,-2.3692,-2.3837,-2.4151,-2.3837,-2.3816,-2.4151,-2.3837,-2.3671,-2.3671,-2.3671,-2.3522,-2.3212,-2.3522,-2.3671,-2.3692,-2.4016,-2.4151,-2.4151,-2.417,-2.419,-2.4228,-2.4623,-2.479,-2.4847,-2.5149,-2.5302,-2.5341,-2.5418,-2.5432,-2.5415,-2.5498,-2.5381,-2.5221,-2.5219,-2.5091,-2.511,-2.588,-2.6143,-2.6393,-2.7389,-2.7652,-2.7902,-2.8913,-2.8396,-2.7885,-2.8701,-2.771,-2.6862,-2.7533,-2.5959,-2.476,-2.5448,-2.4022,-2.2898,-2.3241,-2.3267,-2.323,-2.323,-2.3668,-2.4082,-2.4307,-2.4828,-2.524,-2.5456,-2.5562,-2.5637,-2.5639,-2.563,-2.563,-2.5639,-2.6437,-2.6476,-2.5658,-2.6456,-2.6456,-2.5634,-2.6398,-2.6792,-2.6862,-2.8395,-2.8874,-1.6454,-1.6429,-1.6676,-1.7814,-1.8496,-1.909,-1.9735,-2.004,-2.0184,-2.012,-2.0701,-2.1435,-2.209,0.0,0.0,-2.4006,-2.3232,0.0,-2.5583,-2.5812,0.0,-2.6559,0.0,-2.5411,-2.4559,-2.4414,0.0,0.0,-2.3649,-2.3958,-2.3714,-2.3692,-2.361,-2.3459,-2.3369,-2.3369,-2.3437,-2.3369,-2.3323,-2.3323,-2.3323,-2.3282,-2.3189,-2.33,-2.3323,-2.3346,-2.3414,-2.3437,-2.3459,-2.3714,-2.3921,-2.4081,-2.4441,-2.467,-2.4818,-2.4902,-2.5294,-2.5834,-2.606,-2.5855,-2.5484,-2.5605,-2.558,-2.55,-2.5508,-2.5422,-2.5481,-2.6147,-2.6765,-2.7388,-2.8095,-2.8377,-2.8702,-2.9574,-2.9123,-2.8698,-2.9518,-2.9152,-2.8637,-2.8511,-2.7266,-2.63,-2.6636,-2.5184,-2.4121,-2.4619,-2.4058,-2.3566,-2.3566,-2.3919,-2.4265,-2.4629,-2.538,-2.5986,-2.6334,-2.7026,-2.7459,-2.7507,-2.7452,-2.7488,-2.7571,-2.7752,-2.775,-2.7592,-2.7752,-2.7738,-2.7504,-2.7621,-2.7989,-2.8562,-2.8926,-2.9283,-1.7145,-1.6845,-1.6735,-1.7879,-1.8145,-1.8323,-1.9058,-1.9585,-1.9832,-1.9579,-2.0711,-2.1791,-2.1888,-2.0843,-2.0818,0.0,0.0,0.0,-2.4625,-2.537,-2.574,0.0,-2.5616,0.0,-2.444,-2.4046,-2.3569,0.0,-2.3323,-2.3459,-2.3259,-2.3259,-2.3236,-2.3189,-2.3069,-2.3147,-2.3498,-2.3294,-2.3294,-2.3498,-2.3147,-2.2915,-2.2798,-2.2729,-2.2712,-2.2712,0.0,-2.2935,-2.3428,-2.3625,-2.4167,-2.4905,-2.5168,-2.5465,-2.5724,-2.5819,-2.6136,-2.6544,-2.6727,-2.6622,-2.6456,-2.6724,-2.6481,-2.6211,-2.6641,-2.6191,-2.5859,-2.7344,-2.7807,-2.8099,-2.9113,-2.9452,-2.9644,-3.009,-2.9838,-2.964,-3.0068,-2.9832,-2.9358,-2.874,-2.8016,-2.7486,-2.7461,-2.6327,-2.5471,-2.5529,-2.48,-2.4277,-2.4444,-2.4705,-2.493,-2.5166,-2.611,-2.6825,-2.7078,-2.7337,-2.768,-2.8138,-2.7754,-2.7754,-2.8237,-2.8593,-2.8613,-2.8301,-2.8649,-2.8602,-2.8198,-2.844,-2.8795,-2.9193,-2.941,-2.9631,-1.8051,-1.7402,-1.6905,-1.8021,-1.7612,-1.7232,-1.8258,-1.8885,-1.9144,-1.8739,-2.045,-2.1879,-2.138,-2.0178,-2.01,-2.2666,0.0,-2.0732,-2.3263,-2.4321,-2.4836,-2.4808,-2.4506,-2.4165,-2.3833,-2.346,-2.3193,-2.3087,-2.2815,-2.2643,-2.2695,-2.2695,-2.2822,-2.3087,-2.2815,-2.3032,-2.3843,-2.3422,-2.3474,-2.3981,-2.317,-2.2637,-2.2343,-2.2141,-2.2012,-2.1938,0.0,0.0,-2.3487,-2.3702,-2.4559,-2.5786,-2.6132,-2.6471,-2.6803,-2.7043,-2.7186,-2.7295,-2.7388,-2.7603,-2.7919,-2.8087,-2.761,-2.7147,-2.8027,-2.7187,-2.6445,-2.8828,-2.8953,-2.8704,-3.0123,-3.0505,-3.0487,-3.0417,-3.0398,-3.0398,-3.0398,-3.0022,-2.9476,-2.8682,-2.8496,-2.8394,-2.8093,-2.7424,-2.678,-2.6327,-2.5551,-2.5153,-2.5447,-2.5577,-2.5708,-2.5837,-2.6918,-2.7675,-2.7769,-2.7412,-2.7566,-2.8384,-2.771,-2.7668,-2.8505,-2.9269,-2.9342,-2.8652,-2.9375,-2.935,-2.8525,-2.9162,-2.9426,-2.9369,-2.9845,-2.9924,-1.8265,-1.7689,-1.7402,-1.8491,-1.7538,-1.6753,-1.8643,-1.8763,-1.8866,-2.0252,-2.1113,-2.1847,-2.267,-2.185,-2.161,-2.3292,-2.2264,-2.2197,-2.4903,-2.5149,-2.5403,0.0,-2.6095,-2.5397,-2.4385,-2.3709,0.0,0.0,0.0,-2.2463,-2.2695,-2.2695,-2.2625,-2.247,-2.2388,-2.2717,-2.3464,-2.3414,-2.3721,-2.4394,-2.3646,-2.3051,-2.2609,-2.1966,-2.1505,-2.1229,0.0,0.0,-2.2394,-2.3606,-2.4262,-2.4602,-2.5651,-2.609,-2.62,-2.6578,-2.7126,-2.7724,-2.7903,-2.8559,-2.9157,-2.8124,-2.7829,-2.792,-2.8141,-2.8008,-2.7988,-2.918,-2.9391,-2.9457,-3.0298,-3.0503,-3.0487,-3.0417,-3.0398,-3.0398,-3.0398,-3.0022,-2.9607,-2.9293,-2.9052,-2.8881,-2.8815,-2.814,-2.7579,-2.7496,-2.6522,-2.5816,-2.5904,-2.5646,-2.578,-2.66,-2.7671,-2.8422,-2.8645,-2.9381,-2.992,-3.0146,-3.0016,-3.0034,-3.0264,-3.0401,-3.0476,-3.0449,-3.0499,-3.0428,-3.0264,-3.0283,-3.0283,-3.0277,-3.0309,-3.0095,-1.8988,-1.8166,-1.7499,-1.8336,-1.6953,-1.5932,-1.8137,-1.8377,-1.8608,-2.0286,-2.1429,-2.2237,-2.2565,-2.1685,-2.1359,-2.2848,-2.144,-2.1151,-2.3914,-2.3777,-2.3917,-2.5319,-2.5142,-2.4606,-2.3863,-2.3319,0.0,0.0,0.0,-2.2101,-2.2473,-2.25,-2.2409,-2.231,-2.2453,-2.2982,-2.3951,-2.3932,-2.431,-2.5067,-2.453,-2.3913,-2.3194,-2.2639,-2.2128,-2.1663,-2.1807,0.0,-2.2791,-2.3494,-2.4429,-2.5439,-2.6026,-2.6676,-2.7283,-2.7465,-2.7908,-2.8437,-2.8519,-2.8993,-2.9433,-2.8787,-2.8605,-2.8711,-2.9272,-2.8846,-2.8413,-2.9745,-2.9844,-2.9707,-3.0371,-3.0547,-3.0525,-3.0417,-3.0398,-3.0561,-3.1192,-3.0795,-3.0227,-2.9879,-2.9715,-2.9494,-2.9067,-2.8686,-2.8219,-2.7583,-2.7019,-2.6554,-2.6389,-2.6345,-2.6508,-2.7006,-2.8199,-2.9057,-2.9303,-2.9494,-2.9869,-3.0461,-3.0064,-3.0067,-3.0613,-3.0657,-3.0729,-3.0898,-3.0769,-3.0684,-3.0657,-3.0559,-3.0482,-3.0432,-3.0273,-3.0309,-1.9352,-1.8425,-1.7418,-1.802,-1.6308,-1.5132,-1.7536,-1.7691,-1.7914,-1.9902,-2.1338,-2.2173,-2.1922,-2.1254,-2.1105,-2.2242,-2.0805,-2.0353,-2.2574,-2.2446,-2.2572,-2.3786,-2.3848,0.0,-2.3236,-2.2805,0.0,0.0,0.0,0.0,-2.2224,-2.2254,-2.235,-2.2605,-2.279,-2.3494,-2.4712,-2.4681,-2.5108,-2.5941,-2.545,-2.4829,-2.4083,-2.3499,-2.2925,-2.2315,-2.2154,0.0,0.0,-2.3498,-2.4644,-2.6251,-2.6607,-2.7438,-2.8434,-2.8792,-2.9003,-2.9163,-2.9402,-2.958,-2.9654,-2.9714,-2.9544,-2.9452,-3.0263,-2.9612,-2.8903,-3.0307,-3.0273,-2.9941,-3.0454,-3.0586,-3.0602,-3.066,-3.0679,-3.0976,-3.2026,-3.1561,-3.0847,-3.0604,-3.0368,-3.0063,-2.9604,-2.9384,-2.8955,-2.8103,-2.7767,-2.7477,-2.7102,-2.7371,-2.7536,-2.7356,-2.8584,-2.9474,-2.9678,-2.9304,-2.9461,-3.0367,-2.9781,-2.9775,-3.0584,-3.0628,-3.0719,-3.0898,-3.0769,-3.0673,-3.0606,-3.0537,-3.0569,-3.0667,-3.0272,-3.0629,-1.8722,-1.8121,-1.7449,-1.7975,-1.5945,-1.4532,-1.742,-1.6574,-1.6148,-1.9584,-2.0571,-2.085,-2.1052,-2.1665,-2.2129,-2.2133,-2.1885,-2.1914,-2.2481,-2.2904,-2.3149,-2.3107,0.0,0.0,-2.3259,-2.2583,0.0,0.0,0.0,0.0,0.0,-2.2018,-2.2507,-2.3539,-2.3621,-2.4214,-2.5507,-2.5486,-2.6065,-2.712,-2.6053,-2.5471,-2.5287,-2.4281,-2.3312,-2.2428,0.0,0.0,0.0,-2.3861,-2.4713,-2.5481,-2.6916,-2.7878,-2.8572,-3.0051,-3.0148,-2.9687,-3.0796,-3.0881,-3.0524,-3.0693,-3.0388,-2.9963,-3.0179,-3.0248,-3.0347,-3.0628,-3.0605,-3.0518,-3.0576,-3.054,-3.0698,-3.141,-3.1583,-3.1732,-3.234,-3.1684,-3.1111,-3.1555,-3.0877,-3.0411,-3.1072,-3.0577,-3.0179,-3.0423,-2.953,-2.8699,-2.8285,-2.8579,-2.8581,-2.7918,-2.8782,-2.9474,-2.9678,-2.9817,-3.0069,-3.0472,-3.0423,-3.047,-3.0687,-3.069,-3.0765,-3.0898,-3.0769,-3.0673,-3.0606,-3.0537,-3.0878,-3.1564,-3.0732,-3.1117,-1.8212,-1.7763,-1.7221,-1.7129,-1.5745,-1.4917,-1.713,-1.6627,-1.648,-1.9355,-2.0623,-2.1087,-2.0668,-2.0949,-2.1378,-2.1699,-2.0763,-2.068,-2.2594,-2.2419,-2.2502,-2.3602,-2.3779,0.0,0.0,0.0,0.0,0.0,0.0,0.0,0.0,-2.2824,-2.3226,-2.3704,-2.4204,-2.4842,-2.5592,-2.6044,-2.6498,-2.6939,-2.6727,-2.6315,-2.578,-2.5375,-2.5013,-2.4743,0.0,0.0,0.0,-2.5002,-2.5591,-2.6519,-2.716,-2.8095,-2.9157,-2.9761,-3.0145,-3.0375,-3.0858,-3.1064,-3.1125,-3.1355,-3.1389,-3.1206,-3.0535,-3.041,-3.0513,-3.056,-3.0971,-3.1243,-3.0687,-3.0879,-3.1552,-3.2891,-3.2664,-3.2481,-3.3598,-3.2955,-3.2235,-3.2273,-3.1937,-3.1586,-3.1421,-3.1127,-3.0917,-3.0875,-3.0456,-2.9905,-2.9204,-2.9708,-2.9915,-2.9361,-2.9203,-2.9312,-2.9678,-2.9763,-3.0004,-3.0461,-3.0498,-3.0554,-3.069,-3.0696,-3.1003,-3.168,-3.1552,-3.1453,-3.139,-3.1845,-3.1932,-3.1698,-3.1352,-3.2045,-1.7327,-1.6872,-1.6309,-1.5878,-1.525,-1.5063,-1.6368,-1.643,-1.6832,-1.8986,-2.0235,-2.0766,-2.0215,-2.0448,-2.0825,-2.1113,-2.0345,-2.0348,-2.2202,-2.21,-2.2316,-2.354,0.0,0.0,0.0,0.0,0.0,0.0,0.0,0.0,0.0,-2.3967,-2.4293,-2.4139,-2.511,-2.5805,-2.6268,-2.6761,-2.7099,-2.7214,-2.7139,-2.6872,-2.6385,-2.6478,-2.6517,-2.6516,0.0,0.0,0.0,-2.6224,-2.6598,-2.7599,-2.7826,-2.8633,-2.9747,-3.0213,-3.0645,-3.1018,-3.1521,-3.177,-3.193,-3.2195,-3.2449,-3.2488,-3.1456,-3.1167,-3.116,-3.0956,-3.1533,-3.2083,-3.1385,-3.1628,-3.2417,-3.3853,-3.3585,-3.3312,-3.4433,-3.3869,-3.3101,-3.2985,-3.2761,-3.2504,-3.2155,-3.1898,-3.1722,-3.1608,-3.139,-3.0962,-3.0217,-3.0766,-3.1024,-3.0463,-2.9987,-2.9795,-3.0037,-2.9926,-3.0035,-3.0494,-3.0559,-3.0739,-3.1138,-3.114,-3.1595,-3.2539,-3.2455,-3.2374,-3.2323,-3.2869,-3.2917,-3.2463,-3.2212,-3.2863,-1.5929,-1.5291,-1.4475,-1.4193,-1.4302,-1.461,-1.5027,-1.5732,-1.6752,-1.8365,-1.9073,-1.9472,-1.9662,-2.0398,-2.0846,-2.0382,-2.1285,-2.1809,-2.1029,-2.2225,-2.3021,0.0,0.0,0.0,0.0,0.0,0.0,0.0,0.0,0.0,0.0,-2.5395,-2.5746,-2.5189,-2.6412,-2.7291,-2.7755,-2.7791,-2.7981,-2.8364,-2.7231,-2.6906,-2.7289,-2.7624,-2.7523,0.0,0.0,0.0,0.0,-2.7387,-2.7689,-2.8279,-2.9006,-2.9599,-3.0272,-3.1881,-3.1949,-3.1515,-3.319,-3.3414,-3.3038,-3.3291,-3.3562,-3.3669,-3.3062,-3.2859,-3.273,-3.1981,-3.2372,-3.2968,-3.2891,-3.2878,-3.3103,-3.3987,-3.418,-3.4295,-3.4642,-3.4016,-3.3458,-3.3736,-3.3146,-3.2852,-3.3642,-3.3109,-3.272,-3.3099,-3.2498,-3.1828,-3.1426,-3.1739,-3.1722,-3.0974,-3.1188,-3.1238,-3.0923,-3.0457,-3.0298,-3.0574,-3.0665,-3.1138,-3.2148,-3.2187,-3.2559,-3.3379,-3.3398,-3.3356,-3.3295,-3.3295,-3.3624,-3.4255,-3.3451,-3.3497,-1.6197,-1.6266,-1.6256,-1.5847,-1.6332,-1.694,-1.7116,-1.7522,-1.815,-1.9185,-2.0203,-2.0655,-1.9844,-2.0024,-2.0305,-2.0304,-2.0527,-2.092,0.0,0.0,0.0,-2.2962,-2.3397,0.0,0.0,0.0,0.0,0.0,0.0,0.0,0.0,-2.5615,-2.5924,-2.5762,-2.6443,-2.6909,-2.7046,-2.7046,-2.7114,-2.7231,-2.686,-2.7029,-2.7657,-2.7741,0.0,0.0,0.0,0.0,0.0,-2.7882,-2.8296,-2.8966,-2.9708,-3.0349,-3.0946,-3.1719,-3.2057,-3.229,-3.3312,-3.3728,-3.39,-3.4396,-3.4617,-3.4585,-3.3958,-3.3372,-3.2981,-3.3346,-3.3058,-3.2932,-3.4098,-3.3961,-3.3731,-3.4611,-3.4821,-3.4778,-3.4717,-3.4304,-3.3906,-3.3813,-3.3587,-3.3495,-3.3752,-3.3587,-3.3468,-3.357,-3.3161,-3.2775,-3.2637,-3.2745,-3.2715,-3.2509,-3.265,-3.227,-3.1016,-3.1343,-3.1588,-3.1488,-3.2116,-3.2643,-3.3008,-3.3027,-3.3418,-3.4277,-3.4297,-3.4255,-3.4195,-3.4794,-3.4812,-3.4313,-3.4642,-3.4588,-1.5916,-1.6062,-1.6151,-1.5964,-1.678,-1.7579,-1.7553,-1.8314,-1.9002,-1.903,-1.9993,-2.0583,-1.9573,-1.9496,-1.9669,-2.0028,-1.9958,0.0,0.0,0.0,0.0,-2.2354,0.0,0.0,0.0,0.0,0.0,0.0,0.0,0.0,0.0,0.0,-2.6202,-2.6488,-2.7029,-2.7333,-2.7333,-2.7333,-2.7266,-2.7114,-2.6826,-2.7097,-2.7806,-2.8129,0.0,0.0,0.0,0.0,0.0,-2.8854,-2.9121,-2.9586,-3.0375,-3.0965,-3.1487,-3.1897,-3.2366,-3.2854,-3.3469,-3.3988,-3.4445,-3.4832,-3.5016,-3.5026,-3.4653,-3.393,-3.3432,-3.4304,-3.4168,-3.4034,-3.5134,-3.5001,-3.4754,-3.5394,-3.5316,-3.5034,-3.4889,-3.4695,-3.4467,-3.4189,-3.4037,-3.3961,-3.3961,-3.3868,-3.3807,-3.3807,-3.3465,-3.3243,-3.3408,-3.3302,-3.3273,-3.339,-3.3592,-3.3195,-3.1959,-3.2335,-3.257,-3.2389,-3.2697,-3.3198,-3.3867,-3.3574,-3.3965,-3.5176,-3.5195,-3.5175,-3.5127,-3.5659,-3.5524,-3.4833,-3.5359,-3.5264,0.0,-1.5025,-1.4691,-1.5113,-1.6113,-1.6968,-1.6914,-1.8358,0.0,-1.8252,-1.8977,-1.9624,-1.9043,-1.8968,-1.9118,-1.9675,-1.9651,0.0,0.0,-2.0528,0.0,0.0,0.0,0.0,0.0,0.0,0.0,0.0,0.0,0.0,0.0,0.0,-2.6476,-2.7274,-2.7921,-2.8271,-2.836,-2.836,-2.8182,-2.7792,-2.7097,-2.7114,-2.7876,-2.8672,0.0,0.0,0.0,0.0,0.0,-3.0091,-3.0146,-3.0272,-3.098,-3.147,-3.1861,-3.2366,-3.2809,-3.3214,-3.3662,-3.4208,-3.4674,-3.4694,-3.487,-3.507,-3.5127,-3.4594,-3.4118,-3.4882,-3.5457,-3.5857,-3.5816,-3.58,-3.5866,-3.6197,-3.5661,-3.5124,-3.5181,-3.5143,-3.5016,-3.4754,-3.4445,-3.4242,-3.4293,-3.4104,-3.3907,-3.388,-3.3538,-3.3422,-3.3826,-3.3538,-3.3452,-3.3853,-3.4161,-3.4113,-3.354,-3.34,-3.3323,-3.3291,-3.2775,-3.3164,-3.4726,-3.4023,-3.4355,-3.5976,-3.5996,-3.5996,-3.5996,-3.5942,-3.5841,-3.571,-3.5648,-3.5566,-1.5377,0.0,-1.5646,-1.7054,-1.7604,-1.8004,0.0,-1.9596,-1.9974,-1.9394,-2.0016,-2.0465,-1.966,-1.9485,-1.9585,-2.0074,0.0,0.0,-2.0087,0.0,0.0,0.0,0.0,0.0,0.0,0.0,0.0,0.0,0.0,0.0,0.0,0.0,-2.6435,-2.7201,-2.6808,-2.7023,-2.8018,-2.8018,-2.7959,-2.787,-2.739,-2.756,-2.8285,-2.8745,0.0,0.0,0.0,0.0,-2.973,-2.9986,-3.0484,-3.1144,-3.1495,-3.1733,-3.188,-3.2745,-3.289,-3.2791,-3.3758,-3.4195,-3.4357,-3.4632,-3.4734,-3.4926,-3.553,-3.5568,-3.5356,-3.5154,-3.5343,-3.5515,-3.5084,-3.4785,-3.4832,-3.5773,-3.5552,-3.5276,-3.5886,-3.5524,-3.5016,-3.4754,-3.4632,-3.4714,-3.5123,-3.5132,-3.5025,-3.4752,-3.4393,-3.4256,-3.4669,-3.4364,-3.4256,-3.4669,-3.5192,-3.5195,-3.4447,-3.4661,-3.4637,-3.4231,-3.4769,-3.5273,-3.5684,-3.5508,-3.5586,-3.5996,-3.5996,-3.5996,-3.5996,-3.5976,-3.5925,-3.5845,-3.5736,-3.5648,-1.5005,-1.5603,-1.629,-1.7451,-1.774,-1.7998,-1.9082,-1.9522,-1.9615,-1.9391,-1.9914,-2.0193,-1.9464,-1.8892,-1.871,0.0,-1.8636,0.0,0.0,0.0,0.0,0.0,0.0,0.0,0.0,0.0,0.0,0.0,0.0,0.0,0.0,0.0,-2.6722,-2.7495,-2.6799,-2.6668,-2.7166,-2.7432,-2.7531,-2.7451,-2.7542,-2.7962,-2.8669,-2.9042,0.0,0.0,0.0,0.0,-3.0144,-3.0543,-3.0973,-3.1452,-3.1932,-3.2264,-3.25,-3.3014,-3.3166,-3.3178,-3.3795,-3.4117,-3.4223,-3.4349,-3.4304,-3.4358,-3.5112,-3.5351,-3.5414,-3.544,-3.5559,-3.563,-3.5345,-3.5302,-3.5533,-3.6266,-3.623,-3.616,-3.6746,-3.664,-3.6386,-3.623,-3.6102,-3.6121,-3.6413,-3.6377,-3.6171,-3.584,-3.5239,-3.5037,-3.5678,-3.522,-3.4971,-3.5374,-3.5819,-3.5761,-3.4994,-3.5268,-3.536,-3.5061,-3.5276,-3.5586,-3.5976,-3.5625,-3.5586,-3.5996,-3.5996,-3.5996,-3.5996,-3.5996,-3.5972,-3.59,-3.5761,-3.5652,-1.4422,-1.5374,-1.6396,-1.6995,-1.7109,-1.7302,-1.8377,-1.8712,-1.8803,-1.8878,-1.9332,-1.95,-1.889,-1.7951,0.0,0.0,0.0,0.0,0.0,0.0,0.0,0.0,0.0,0.0,0.0,0.0,0.0,0.0,0.0,0.0,0.0,0.0,0.0,-2.7591,-2.6893,-2.6393,-2.627,-2.6881,-2.718,-2.7127,-2.7593,-2.8287,-2.9176,-2.9484,0.0,0.0,0.0,0.0,-3.1113,-3.1411,-3.1653,-3.18,-3.2382,-3.284,-3.3214,-3.3273,-3.3465,-3.3707,-3.378,-3.3935,-3.4147,-3.4147,-3.3986,-3.3945,-3.4749,-3.4997,-3.5119,-3.5788,-3.5928,-3.5895,-3.5821,-3.6079,-3.654,-3.7016,-3.7054,-3.7112,-3.7605,-3.7852,-3.8007,-3.8007,-3.7827,-3.7693,-3.7772,-3.7584,-3.7338,-3.7028,-3.6293,-3.6073,-3.6902,-3.6329,-3.5891,-3.61,-3.6365,-3.6163,-3.5284,-3.5532,-3.5723,-3.5723,-3.5218,-3.5234,-3.5976,-3.5293,-3.5254,-3.5996,-3.5996,-3.5996,-3.5996,-3.5996,-3.5973,-3.591,-3.5766,-3.5679,-1.3909,-1.4485,-1.532,-1.6278,-1.6207,-1.613,-1.7236,-1.7825,-1.8271,-1.8788,-1.9332,-1.9403,-1.8418,-1.7675,-1.7076,0.0,0.0,0.0,0.0,0.0,0.0,0.0,0.0,0.0,0.0,0.0,0.0,0.0,0.0,0.0,0.0,0.0,0.0,-2.6351,-2.5241,-2.5079,-2.6043,-2.6815,-2.7529,-2.8165,-2.7757,-2.8348,-2.9856,-3.0029,-3.0529,0.0,0.0,-3.2471,-3.2786,-3.2471,-3.2786,-3.3396,-3.3189,-3.3154,-3.3243,-3.3578,-3.3522,-3.3332,-3.368,-3.3815,-3.396,-3.4641,-3.4825,-3.4989,-3.6069,-3.6093,-3.5806,-3.6208,-3.613,-3.5821,-3.5397,-3.5159,-3.5382,-3.6839,-3.6832,-3.6897,-3.8308,-3.8274,-3.8007,-3.8007,-3.7959,-3.8073,-3.8536,-3.8575,-3.848,-3.8271,-3.8099,-3.8098,-3.8364,-3.8281,-3.7916,-3.7245,-3.7404,-3.6957,-3.5405,-3.5639,-3.5873,-3.5873,-3.5833,-3.5859,-3.5996,-3.5879,-3.5859,-3.5996,-3.5996,-3.5996,-3.5996,-3.5996,-3.5996,-3.5975,-3.5792,-3.5696,-1.3168,-1.3719,-1.4205,-1.4293,-1.4529,-1.4863,-1.5182,-1.562,-1.6258,-1.7408,-1.7564,-1.7453,-1.7293,0.0,-1.625,-1.6072,0.0,0.0,0.0,0.0,0.0,0.0,0.0,0.0,0.0,0.0,0.0,0.0,0.0,0.0,0.0,0.0,0.0,0.0,-2.5099,-2.5356,-2.6642,-2.6692,-2.7115,-2.793,-2.8446,-2.9339,-3.0553,-3.0633,-3.1155,-3.1978,0.0,-3.3014,-3.3196,-3.3356,-3.3633,-3.3993,-3.3802,-3.375,-3.3805,-3.4266,-3.4338,-3.4233,-3.4623,-3.494,-3.5174,-3.5301,-3.5332,-3.5442,-3.6073,-3.595,-3.5632,-3.5874,-3.5864,-3.5697,-3.5455,-3.5722,-3.6274,-3.7178,-3.7766,-3.8376,-3.9297,-3.9423,-3.9354,-3.9354,-3.9403,-3.954,-3.9769,-3.986,-3.9805,-3.9567,-3.9289,-3.9226,-3.9561,-3.9375,-3.8838,-3.7975,-3.8006,-3.742,-3.5768,-3.5797,-3.5913,-3.5948,-3.5976,-3.5996,-3.5996,-3.5996,-3.5996,-3.5996,-3.5996,-3.5996,-3.5996,-3.5996,-3.5975,-3.5947,-3.5777,-3.5675,-1.1908,-1.2397,-1.2662,-1.2182,-1.3041,-1.393,-1.3476,-1.3763,-1.4554,-1.6062,-1.5958,-1.5776,0.0,-1.5834,0.0,-1.547,0.0,0.0,0.0,0.0,0.0,0.0,0.0,0.0,0.0,0.0,0.0,0.0,0.0,0.0,0.0,0.0,0.0,0.0,-2.5231,-2.5815,-2.7265,-2.6972,-2.7178,-2.7892,-2.8969,-3.0028,-3.1068,-3.1269,-3.1813,-3.265,-3.3195,-3.3496,-3.3588,-3.4031,-3.4265,-3.4311,-3.4223,-3.4282,-3.4445,-3.4843,-3.5119,-3.5347,-3.5666,-3.5994,-3.6274,-3.6084,-3.6046,-3.6077,-3.6292,-3.6141,-3.5915,-3.595,-3.6002,-3.6062,-3.6059,-3.669,-3.7416,-3.7962,-3.8813,-3.9633,-4.0022,-4.0321,-4.0504,-4.053,-4.0636,-4.0715,-4.0729,-4.0781,-4.0738,-4.0568,-4.0182,-4.0084,-4.0526,-4.0052,-3.9335,-3.8453,-3.8194,-3.7571,-3.6325,-3.6033,-3.6025,-3.6289,-3.6113,-3.5996,-3.5996,-3.5996,-3.5996,-3.5996,-3.5996,-3.5996,-3.5974,-3.5974,-3.5925,-3.5864,-3.5944,-3.5957,-0.9936,-1.0024,-1.0206,-1.0642,-1.2302,-1.3645,-1.2856,-1.3327,-1.4271,-1.5446,-1.5659,-1.5678,0.0,-1.5232,-1.4834,0.0,0.0,0.0,0.0,0.0,0.0,0.0,0.0,0.0,0.0,0.0,0.0,0.0,0.0,0.0,0.0,0.0,0.0,0.0,0.0,-2.5728,-2.7471,-2.8034,-2.8551,-2.8975,-2.8899,-2.9717,-3.1305,-3.1863,-3.2561,-3.3368,-3.3892,-3.4292,-3.4572,-3.4311,-3.4379,-3.4632,-3.4334,-3.4506,-3.4954,-3.5,-3.5514,-3.6211,-3.6237,-3.6256,-3.6413,-3.7118,-3.7356,-3.7424,-3.7688,-3.7735,-3.7613,-3.7193,-3.7254,-3.747,-3.7463,-3.7524,-3.7889,-3.9168,-3.9397,-3.9463,-3.9984,-4.0321,-4.0549,-4.0655,-4.0692,-4.0729,-4.0788,-4.0793,-4.085,-4.0935,-4.0929,-4.0968,-4.1129,-4.0409,-3.953,-3.8671,-3.7851,-3.7323,-3.7207,-3.6465,-3.6347,-3.7168,-3.6445,-3.5996,-3.5996,-3.5996,-3.5996,-3.5996,-3.5996,-3.5973,-3.5907,-3.5907,-3.5841,-3.573,-3.6473,-3.6811,-0.9357,-0.9314,-0.9026,-0.9722,-1.0807,-1.1602,-1.1236,-1.1851,-1.27,-1.3507,-1.3868,-1.4392,0.0,0.0,-1.4296,0.0,0.0,0.0,0.0,0.0,0.0,0.0,0.0,0.0,0.0,0.0,0.0,0.0,0.0,0.0,0.0,0.0,0.0,0.0,0.0,-2.5117,-2.6851,-2.7577,-2.8446,-2.9483,-2.9691,-3.0407,-3.1563,-3.2137,-3.2855,-3.3673,-3.4257,-3.4572,-3.4694,-3.4735,-3.4735,-3.4674,-3.4334,-3.4518,-3.5017,-3.5241,-3.5859,-3.6622,-3.7112,-3.7275,-3.7485,-3.8627,-3.8982,-3.9111,-3.9626,-3.9761,-3.9707,-3.941,-3.9237,-3.8927,-3.7864,-3.7972,-3.8522,-3.9245,-3.9614,-3.9888,-4.0266,-4.0441,-4.0519,-4.0574,-4.063,-4.0729,-4.0796,-4.087,-4.0964,-4.1103,-4.1126,-4.1149,-4.1191,-4.0449,-3.9766,-3.9434,-3.8633,-3.7676,-3.6582,-3.6699,-3.6719,-3.6504,-3.6172,-3.5996,-3.5996,-3.5996,-3.5996,-3.5996,-3.5996,-3.5972,-3.5903,-3.6407,-3.659,-3.6454,-3.7107,-3.7348,-0.8544,-0.8346,-0.7921,-0.9012,-0.9534,-0.9849,-1.0359,-1.0975,-1.1699,-1.2552,-1.3347,-1.4227,-1.5444,0.0,0.0,0.0,0.0,0.0,0.0,0.0,0.0,0.0,0.0,0.0,0.0,0.0,0.0,0.0,0.0,0.0,0.0,0.0,0.0,0.0,0.0,0.0,-2.6398,-2.7456,-2.8442,-2.942,-3.0003,-3.0727,-3.1603,-3.2307,-3.31,-3.3961,-3.4565,-3.487,-3.4982,-3.5248,-3.5342,-3.5277,-3.4617,-3.4833,-3.5545,-3.5594,-3.6229,-3.7174,-3.8002,-3.8393,-3.8725,-3.9896,-4.0344,-4.0505,-4.0979,-4.1193,-4.1245,-4.1107,-4.0801,-4.0277,-3.9415,-3.9192,-3.9331,-3.9823,-4.0099,-4.0286,-4.0457,-4.0489,-4.0519,-4.0559,-4.0648,-4.0752,-4.085,-4.0964,-4.1082,-4.1191,-4.1151,-4.1032,-4.0758,-3.9951,-3.9281,-3.9008,-3.8441,-3.7723,-3.6832,-3.7046,-3.7009,-3.6445,-3.6406,-3.6289,-3.6016,-3.5996,-3.6133,-3.6406,-3.6365,-3.6448,-3.6655,-3.7175,-3.735,-3.7255,-3.7805,-3.8012,-0.712,-0.6795,-0.6642,-0.8454,-0.858,-0.8756,-1.0416,-1.1003,-1.1574,-1.2944,-1.4479,-1.5608,-1.567,-1.6145,0.0,0.0,0.0,0.0,0.0,0.0,0.0,0.0,0.0,0.0,0.0,0.0,0.0,0.0,0.0,0.0,0.0,0.0,0.0,0.0,0.0,0.0,-2.6189,-2.7915,-2.8796,-2.8796,-2.9619,-3.0437,-3.1325,-3.2409,-3.3372,-3.4218,-3.484,-3.5258,-3.5523,-3.5799,-3.6231,-3.6545,-3.5248,-3.5521,-3.662,-3.6078,-3.672,-3.802,-3.8831,-3.9431,-4.0029,-4.0855,-4.1323,-4.1605,-4.1623,-4.186,-4.2138,-4.2119,-4.174,-4.1532,-4.2391,-4.1379,-4.0329,-4.1129,-4.0898,-4.0489,-4.0489,-4.0489,-4.053,-4.0667,-4.0752,-4.0843,-4.0964,-4.1105,-4.1191,-4.1191,-4.108,-4.0684,-3.979,-3.8895,-3.7972,-3.709,-3.7019,-3.741,-3.8311,-3.7613,-3.7184,-3.7305,-3.7305,-3.6914,-3.6035,-3.6016,-3.6426,-3.7285,-3.7187,-3.7508,-3.8303,-3.8171,-3.8073,-3.8027,-3.8551,-3.8804,-0.8448,-0.7866,-0.6923,-0.8219,-0.8276,-0.8385,-0.9719,-1.0718,-1.179,-1.3317,-1.368,-1.4005,-1.4842,0.0,0.0,0.0,0.0,0.0,0.0,0.0,0.0,0.0,0.0,0.0,0.0,0.0,0.0,0.0,0.0,0.0,0.0,0.0,0.0,0.0,0.0,0.0,-2.4656,-2.6473,-2.7504,-2.7749,-2.9,-2.9863,-3.0433,-3.2121,-3.3045,-3.3353,-3.4765,-3.5758,-3.6349,-3.6634,-3.6287,-3.5565,-3.5349,-3.5616,-3.6096,-3.5591,-3.6274,-3.7432,-3.77,-3.8474,-3.9524,-4.072,-4.1693,-4.2613,-4.3444,-4.3926,-4.4268,-4.4498,-4.402,-4.3345,-4.3038,-4.2119,-4.137,-4.1583,-4.1056,-4.0489,-4.0489,-4.0356,-4.0285,-4.0496,-4.0408,-4.041,-4.0732,-4.0818,-4.0867,-4.0908,-4.0877,-4.0338,-3.8903,-3.95,-3.9276,-3.7226,-3.8595,-3.9338,-3.8467,-3.8729,-3.8729,-3.8242,-3.8135,-3.745,-3.6055,-3.7187,-3.7656,-3.7305,-3.7775,-3.8112,-3.8303,-3.8782,-3.8981,-3.8931,-3.9468,-3.9719,-0.8386,-0.7809,-0.685,-0.7642,-0.7796,-0.8013,-0.8995,0.0,0.0,0.0,-1.3384,-1.3608,-1.4104,0.0,0.0,0.0,0.0,0.0,0.0,0.0,0.0,0.0,0.0,0.0,0.0,0.0,0.0,0.0,0.0,0.0,0.0,0.0,0.0,0.0,0.0,0.0,-2.4441,-2.5993,-2.7121,-2.7748,-2.8883,-2.9758,-3.0459,-3.2063,-3.2971,-3.3355,-3.5191,-3.6397,-3.7117,-3.7243,-3.7062,-3.6623,-3.6084,-3.6111,-3.6335,-3.5624,-3.6122,-3.7264,-3.7583,-3.8438,-3.9665,-4.1104,-4.1915,-4.252,-4.3721,-4.4085,-4.4225,-4.4898,-4.422,-4.3355,-4.3528,-4.2364,-4.1142,-4.1261,-4.079,-4.0339,-4.0339,-4.0213,-4.0139,-4.0321,-4.0334,-4.0427,-4.0667,-4.0729,-4.0752,-4.0785,-4.0529,-3.9941,-3.885,-3.9326,-3.9296,-3.8044,-3.9306,-3.9863,-3.8954,-3.9379,-3.9359,-3.857,-3.8762,-3.8303,-3.6964,-3.7923,-3.8391,-3.8216,-3.8603,-3.8937,-3.9247,-3.9642,-3.9822,-3.9777,-4.0003,-4.0101,-0.7752,-0.725,-0.6605,-0.7012,-0.7355,0.0,-0.8349,-1.0748,-1.271,-1.2349,0.0,-1.3682,-1.3237,0.0,0.0,0.0,0.0,0.0,0.0,0.0,0.0,0.0,0.0,0.0,0.0,0.0,0.0,0.0,0.0,0.0,0.0,0.0,0.0,0.0,0.0,0.0,-2.4865,-2.6081,-2.721,0.0,-2.9005,-2.9943,-3.0996,-3.2088,-3.3112,-3.406,-3.6003,-3.7084,-3.7506,-3.7747,-3.8237,-3.8682,-3.7166,-3.6826,-3.7076,-3.6054,-3.6357,-3.7354,-3.8043,-3.8995,-4.0139,-4.1607,-4.1841,-4.1792,-4.2848,-4.289,-4.2793,-4.3881,-4.3069,-4.2206,-4.3701,-4.2161,-4.0291,-4.0425,-4.025,-4.0042,-4.0101,-4.0042,-4.0022,-4.012,-4.0319,-4.0526,-4.0648,-4.0674,-4.0691,-4.0768,-4.0163,-3.9616,-3.9331,-3.8793,-3.8667,-3.9254,-3.9444,-3.9588,-3.9723,-3.9775,-3.9467,-3.8694,-3.9364,-3.9408,-3.8552,-3.8521,-3.8879,-3.9579,-3.9557,-3.9905,-4.0703,-4.0574,-4.0489,-4.0489,-4.025,-4.0139,-0.9918,-0.8917,0.0,-0.7925,-0.8173,-0.8305,-0.8356,-0.9497,-1.0597,-1.0526,-1.1072,-1.1455,0.0,0.0,0.0,0.0,0.0,0.0,0.0,0.0,0.0,0.0,0.0,0.0,0.0,0.0,0.0,0.0,0.0,0.0,0.0,0.0,0.0,0.0,0.0,-2.2777,-2.3224,-2.4962,-2.6111,0.0,-2.8288,-2.9654,-3.073,-3.2003,-3.3536,-3.5235,-3.7025,-3.7109,-3.6171,-3.857,-3.8518,-3.6957,-3.7691,-3.7657,-3.7114,-3.6457,-3.6847,-3.7703,-3.7518,-3.8527,-3.9955,-4.0286,-4.0966,-4.168,-4.2196,-4.2295,-4.2367,-4.3155,-4.2907,-4.2412,-4.2343,-4.1899,-4.1217,-4.0386,-3.9943,-3.9775,-4.0042,-3.9709,-3.9534,-4.0266,-3.9547,-3.9185,-4.035,-4.0034,-3.9849,-4.0467,-4.0505,-4.0203,-3.9468,-3.9879,-4.006,-3.9587,-4.011,-4.0556,-4.0696,-4.0611,-4.0526,-4.0453,-4.047,-4.0382,-4.0195,-4.0217,-4.0054,-3.9599,-4.0149,-4.0498,-4.0703,-4.0574,-4.0489,-4.0489,-4.0441,-4.0406,-0.963,-0.8922,0.0,-0.7731,0.0,-0.7774,-0.7688,-0.8106,-0.8524,-0.8576,-0.936,0.0,0.0,0.0,0.0,0.0,0.0,0.0,0.0,0.0,0.0,0.0,0.0,0.0,0.0,0.0,0.0,0.0,0.0,0.0,0.0,0.0,0.0,0.0,-2.218,-2.2811,-2.3831,-2.4997,-2.6129,-2.7218,-2.8539,-3.0029,-3.1599,-3.2749,-3.4159,-3.5784,-3.7482,-3.7676,-3.7,-3.9231,-3.903,-3.7368,-3.8106,-3.7802,-3.697,-3.6819,-3.7248,-3.7877,-3.7614,-3.8321,-3.9386,-3.9772,-4.0038,-4.0372,-4.1217,-4.1105,-4.0933,-4.2142,-4.1839,-4.1216,-4.1494,-4.1036,-4.0352,-3.9762,-3.9622,-3.9645,-3.9819,-3.9599,-3.9421,-3.9641,-3.9508,-3.9489,-3.9861,-3.9892,-4.0053,-4.0524,-4.0676,-4.0568,-4.0131,-4.0556,-4.0714,-4.0225,-4.0611,-4.092,-4.0992,-4.0937,-4.0896,-4.0894,-4.0781,-4.0667,-4.061,-4.0629,-4.0463,-4.0045,-4.0284,-4.0492,-4.0596,-4.053,-4.0489,-4.0489,-4.0489,-4.0489,-0.9241,-0.8754,-0.8323,-0.7294,-0.7024,0.0,-0.7007,-0.6979,-0.6979,-0.6979,0.0,0.0,0.0,0.0,0.0,0.0,0.0,0.0,0.0,0.0,0.0,0.0,0.0,0.0,0.0,0.0,0.0,0.0,0.0,0.0,0.0,0.0,-2.1321,-2.1491,-2.1928,-2.2949,-2.4573,-2.5112,-2.6272,-2.8023,-2.9148,-3.0696,-3.2596,-3.3609,-3.471,-3.5929,-3.7436,-3.7977,-3.7935,-3.9364,-3.9242,-3.8196,-3.8442,-3.7911,-3.7061,-3.7165,-3.7506,-3.7911,-3.779,-3.8117,-3.8687,-3.9447,-3.9239,-3.8921,-4.0132,-3.9825,-3.9362,-4.0979,-4.0497,-3.975,-4.076,-4.0113,-3.916,-3.9107,-3.9314,-3.9529,-3.9599,-3.9439,-3.9267,-3.9109,-3.984,-4.0239,-3.9431,-3.9969,-4.0545,-4.068,-4.0762,-4.0809,-4.0824,-4.0955,-4.0992,-4.0877,-4.0964,-4.1026,-4.1026,-4.099,-4.092,-4.0801,-4.0721,-4.061,-4.0504,-4.0457,-4.0441,-4.0441,-4.0269,-4.0269,-4.0441,-4.0441,-4.0406,-4.0353,-4.0353,-4.0353,-1.1882,0.0,-0.8524,0.0,-0.718,-0.7133,0.0,0.0,-0.6979,0.0,0.0,0.0,0.0,0.0,0.0,0.0,0.0,0.0,0.0,0.0,0.0,0.0,0.0,0.0,0.0,0.0,0.0,0.0,0.0,0.0,0.0,-1.9818,-2.0234,-2.1055,-2.146,-2.1961,-2.2513,-2.3867,-2.5176,-2.6447,-2.9378,-3.1364,-3.2454,-3.3701,-3.4768,-3.5708,-3.6736,-3.672,-3.6114,-3.8153,-3.8306,-3.7378,-3.8562,-3.8773,-3.8319,-3.7488,-3.7506,-3.7825,-3.7433,-3.7614,-3.8117,-3.8656,-3.8799,-3.878,-3.9193,-3.9054,-3.8921,-3.9661,-3.9556,-3.9275,-3.9708,-3.9675,-3.9462,-3.9178,-3.9133,-3.9238,-3.9552,-3.8814,-3.8549,-3.9978,-4.0396,-4.0239,-3.9431,-3.9969,-4.0545,-4.068,-4.0762,-4.085,-4.0959,-4.1082,-4.1171,-4.115,-4.1151,-4.1171,-4.1171,-4.0968,-4.0816,-4.0801,-4.0629,-4.0519,-4.0504,-4.0286,-4.0158,-4.0158,-4.0356,-4.0356,-4.0158,-4.0158,-4.0003,-3.9735,-3.9735,-3.9735,-1.1975,-1.0527,-0.9106,0.0,-0.7432,-0.7319,-0.7855,0.0,-0.6909,0.0,0.0,0.0,0.0,0.0,0.0,0.0,0.0,0.0,0.0,0.0,0.0,0.0,0.0,0.0,0.0,0.0,0.0,0.0,0.0,0.0,-1.7676,-1.8285,-1.8921,-1.9647,-2.0424,-2.1215,-2.2094,-2.321,-2.4845,-2.7035,-2.8873,-3.0735,-3.2535,-3.314,-3.4226,-3.5721,-3.6604,-3.6666,-3.6196,-3.7455,-3.7522,-3.6937,-3.7532,-3.7698,-3.7551,-3.729,-3.7323,-3.747,-3.7248,-3.7323,-3.7542,-3.7791,-3.7861,-3.798,-3.8529,-3.8475,-3.8436,-3.9339,-3.9249,-3.8952,-3.9231,-3.9197,-3.9064,-3.8913,-3.8884,-3.9017,-3.9505,-3.9199,-3.9188,-4.0296,-4.0142,-3.9854,-3.995,-4.0328,-4.0636,-4.0742,-4.0855,-4.0959,-4.1082,-4.1151,-4.1191,-4.1191,-4.1191,-4.1191,-4.1191,-4.1023,-4.0914,-4.0914,-4.0712,-4.061,-4.061,-4.0283,-4.0101,-4.0101,-4.0043,-3.9944,-3.9819,-3.9819,-3.9735,-3.9599,-3.9599,-3.9599,0.0,0.0,-0.9992,-0.8581,-0.7893,-0.7741,0.0,0.0,0.0,0.0,0.0,0.0,0.0,0.0,0.0,0.0,0.0,0.0,0.0,0.0,0.0,0.0,0.0,0.0,0.0,0.0,0.0,0.0,0.0,0.0,-1.5524,-1.645,-1.7223,-1.7749,-1.895,-2.0065,-2.0988,-2.2473,-2.4493,-2.7043,-2.7979,-2.9566,-3.1619,-3.1962,-3.3167,-3.5057,-3.6085,-3.6405,-3.6205,-3.6669,-3.6701,-3.647,-3.6448,-3.644,-3.652,-3.6447,-3.6579,-3.6703,-3.6509,-3.6664,-3.7002,-3.6905,-3.7013,-3.7305,-3.792,-3.7923,-3.7925,-3.8888,-3.8839,-3.8572,-3.8915,-3.8844,-3.8707,-3.8707,-3.8707,-3.8807,-3.9194,-3.9561,-3.9888,-4.0153,-3.9873,-3.9796,-4.0392,-4.061,-4.071,-4.0785,-4.0914,-4.1052,-4.1171,-4.1191,-4.1289,-4.1484,-4.1328,-4.1289,-4.1484,-4.1197,-4.0996,-4.0996,-4.0809,-4.08,-4.1021,-4.043,-4.0157,-4.0286,-3.9758,-3.9462,-3.9462,-3.9462,-3.9432,-3.9377,-3.9377,-3.9377,0.0,-1.2098,0.0,-0.9253,-0.8734,-0.8488,0.0,0.0,0.0,0.0,0.0,0.0,0.0,0.0,0.0,0.0,0.0,0.0,0.0,0.0,0.0,0.0,0.0,0.0,0.0,0.0,0.0,0.0,0.0,0.0,-1.3602,-1.4305,-1.4942,-1.5452,-1.7076,-1.7971,-1.7998,-2.1295,-2.3687,-2.5251,-2.6772,-2.7984,-2.8945,-3.0032,-3.1441,-3.3135,-3.4645,-3.527,-3.5273,-3.5501,-3.5736,-3.5904,-3.5737,-3.5803,-3.588,-3.4763,-3.4797,-3.53,-3.4588,-3.526,-3.6417,-3.6139,-3.659,-3.7228,-3.7248,-3.7248,-3.7323,-3.7841,-3.7962,-3.8065,-3.8578,-3.8689,-3.8707,-3.8707,-3.8707,-3.8641,-3.8418,-3.9471,-4.0242,-3.9508,-3.9931,-4.045,-4.0489,-4.061,-4.071,-4.0785,-4.0914,-4.1052,-4.1171,-4.1191,-4.1484,-4.2266,-4.166,-4.1504,-4.2266,-4.1529,-4.0996,-4.0996,-4.0809,-4.1059,-4.1892,-4.0756,-4.0342,-4.0858,-3.9727,-3.9125,-3.9125,-3.9125,-3.9017,-3.875,-3.875,-3.875,0.0,0.0,0.0,-1.0506,-0.9688,-0.9337,-0.9603,0.0,0.0,0.0,0.0,0.0,0.0,0.0,0.0,0.0,0.0,0.0,0.0,0.0,0.0,0.0,0.0,0.0,0.0,0.0,0.0,0.0,0.0,0.0,-1.0995,-1.1674,-1.2521,-1.3464,-1.4506,-1.5408,-1.6175,-1.841,-2.0396,-2.2095,-2.4076,-2.6101,-2.8164,-2.8945,-3.0204,-3.1788,-3.266,-3.3593,-3.4543,-3.437,-3.4532,-3.4891,-3.4178,-3.4302,-3.4763,-3.3991,-3.4123,-3.4763,-3.4506,-3.5045,-3.5847,-3.5753,-3.5597,-3.5611,-3.6464,-3.6334,-3.6194,-3.718,-3.7291,-3.7295,-3.8005,-3.8081,-3.8046,-3.8579,-3.8998,-3.9252,-3.9176,-3.9853,-4.0412,-4.0123,-4.0296,-4.0534,-4.061,-4.071,-4.0796,-4.0914,-4.1479,-4.1736,-4.1269,-4.1641,-4.1875,-4.1641,-4.1367,-4.1328,-4.1601,-4.1326,-4.1128,-4.1128,-4.089,-4.0888,-4.1218,-4.0302,-3.9864,-4.0056,-3.9276,-3.8844,-3.8844,-3.8844,-3.8803,-3.8707,-3.8707,-3.8707,-1.3157,0.0,0.0,0.0,-1.0431,-0.9762,-1.0029,0.0,0.0,0.0,0.0,0.0,0.0,0.0,0.0,0.0,0.0,0.0,0.0,0.0,0.0,0.0,0.0,0.0,0.0,0.0,0.0,0.0,0.0,0.0,-0.8606,-0.9291,-1.0248,-1.1483,-1.1986,-1.2885,-1.4348,-1.5728,-1.7353,-1.9314,-2.147,-2.373,-2.6042,-2.6957,-2.825,-2.9761,-3.0166,-3.1516,-3.3375,-3.3277,-3.3514,-3.3837,-3.2947,-3.2882,-3.3202,-3.2572,-3.2703,-3.3123,-3.289,-3.3562,-3.4527,-3.4275,-3.4172,-3.4304,-3.5162,-3.5063,-3.4893,-3.5875,-3.6022,-3.6024,-3.6699,-3.7069,-3.7522,-3.8582,-3.9242,-3.9622,-3.9735,-4.0157,-4.0489,-4.0489,-4.0549,-4.0615,-4.068,-4.0762,-4.094,-4.1304,-4.195,-4.228,-4.2046,-4.2499,-4.2637,-4.2109,-4.1777,-4.1601,-4.1601,-4.1601,-4.1601,-4.1601,-4.1694,-4.1714,-4.1677,-4.0745,-4.0163,-4.0037,-3.923,-3.8773,-3.8707,-3.8707,-3.8707,-3.8707,-3.8707,-3.8836,0.0,0.0,0.0,0.0,0.0,0.0,-0.8649,0.0,0.0,0.0,0.0,0.0,0.0,0.0,0.0,0.0,0.0,0.0,0.0,0.0,0.0,0.0,0.0,0.0,0.0,0.0,0.0,0.0,0.0,-0.6475,-0.6475,-0.7143,-0.8143,-0.946,-0.9511,-1.0438,-1.2348,-1.3256,-1.4738,-1.6938,-1.9083,-2.086,-2.2364,-2.3971,-2.5535,-2.6912,-2.7314,-2.9042,-3.1683,-3.2204,-3.2617,-3.2864,-3.2029,-3.1557,-3.1292,-3.054,-3.0391,-3.038,-2.9662,-3.0807,-3.238,-3.1671,-3.2326,-3.3372,-3.3406,-3.3406,-3.3532,-3.4081,-3.4237,-3.4318,-3.4836,-3.591,-3.7198,-3.873,-3.9339,-3.9668,-4.0002,-4.0304,-4.0489,-4.0489,-4.061,-4.0703,-4.0703,-4.0762,-4.1093,-4.1988,-4.2245,-4.2659,-4.3494,-4.3665,-4.3691,-4.3652,-4.2871,-4.2363,-4.2363,-4.2383,-4.2383,-4.2402,-4.3132,-4.349,-4.3378,-4.2144,-4.1281,-4.0896,-3.972,-3.899,-3.8738,-3.8738,-3.8707,-3.8707,-3.8707,-3.9129,-1.1598,0.0,0.0,0.0,0.0,0.0,-0.8625,-0.7822,0.0,0.0,0.0,0.0,0.0,0.0,0.0,0.0,0.0,0.0,0.0,0.0,0.0,0.0,0.0,0.0,0.0,0.0,0.0,0.0,-0.3564,-0.366,-0.42,-0.5391,-0.624,-0.6643,-0.7158,-0.8057,-0.935,-1.0398,-1.1969,-1.4136,-1.6454,-1.8362,-2.0031,-2.2203,-2.3647,-2.4493,-2.5972,-2.7097,-2.7938,-2.9437,-3.054,-3.1268,-3.0409,-3.029,-3.053,-2.9886,-3.0019,-3.0491,-3.0252,-3.1196,-3.2463,-3.2265,-3.2393,-3.2696,-3.3237,-3.3406,-3.355,-3.4244,-3.4655,-3.5101,-3.5971,-3.6906,-3.7809,-3.864,-3.9027,-3.9314,-3.9668,-3.9983,-4.0286,-4.0473,-4.061,-4.0718,-4.0752,-4.0877,-4.1261,-4.217,-4.2884,-4.3396,-4.3649,-4.3691,-4.3457,-4.2832,-4.1945,-4.1387,-4.1387,-4.1876,-4.2222,-4.2321,-4.244,-4.2497,-4.2471,-4.1242,-4.0473,-4.0324,-3.9777,-3.9432,-3.9352,-3.9109,-3.8884,-3.8707,-3.8707,-3.9129,-0.9849,-0.9845,-0.9742,-0.9599,0.0,0.0,-0.8011,-0.7172,-0.6288,0.0,0.0,0.0,0.0,0.0,0.0,0.0,0.0,0.0,0.0,0.0,0.0,0.0,0.0,0.0,0.0,0.0,0.0,0.0,-0.2373,-0.2506,-0.3274,-0.4152,-0.4754,-0.5089,-0.5756,-0.6507,-0.7333,-0.8677,-1.035,-1.2495,-1.4337,-1.6539,-1.8869,-2.0726,-2.2116,-2.3186,-2.4565,-2.5309,-2.5591,-2.6745,-2.8217,-2.9727,-2.948,-2.9451,-2.9496,-2.9134,-2.9155,-2.9295,-2.9295,-3.0131,-3.1189,-3.09,-3.1308,-3.1861,-3.2077,-3.2294,-3.2645,-3.3355,-3.3989,-3.4754,-3.6061,-3.6772,-3.7392,-3.8596,-3.8971,-3.9186,-3.9529,-3.9861,-4.0177,-4.0457,-4.0623,-4.0752,-4.0785,-4.0914,-4.1316,-4.2216,-4.2786,-4.3255,-4.3605,-4.367,-4.3379,-4.248,-4.1909,-4.1426,-4.1035,-4.1719,-4.222,-4.2303,-4.2561,-4.2536,-4.212,-4.1391,-4.0868,-4.0616,-4.0072,-3.9797,-3.9797,-3.9462,-3.9418,-3.9612,-3.9822,-4.0344,-0.8149,-0.8152,-0.7946,-0.7914,-0.7168,0.0,-0.6764,-0.6204,-0.5381,0.0,0.0,0.0,0.0,0.0,0.0,0.0,0.0,0.0,0.0,0.0,0.0,0.0,0.0,0.0,0.0,0.0,-0.2254,-0.2159,-0.2115,-0.2343,-0.301,-0.3342,-0.3788,-0.4457,-0.5218,-0.5871,-0.6393,-0.7891,-0.9656,-1.1707,-1.2975,-1.5198,-1.827,-1.9394,-2.0767,-2.2357,-2.3128,-2.3779,-2.423,-2.4505,-2.6055,-2.8313,-2.8873,-2.8841,-2.8511,-2.8415,-2.8042,-2.7625,-2.7625,-2.8367,-2.9225,-2.8685,-2.9629,-3.0878,-3.0335,-3.0676,-3.1419,-3.2326,-3.3077,-3.4014,-3.5636,-3.6111,-3.6594,-3.8512,-3.9017,-3.9152,-3.9462,-3.9775,-4.0081,-4.0389,-4.0637,-4.0801,-4.0801,-4.0905,-4.1303,-4.2178,-4.2282,-4.2597,-4.3489,-4.357,-4.3242,-4.248,-4.2304,-4.1908,-4.1051,-4.1788,-4.2275,-4.2275,-4.3025,-4.3046,-4.2162,-4.2031,-4.1748,-4.1246,-4.0521,-4.0139,-4.0139,-3.9775,-4.0056,-4.0934,-4.1346,-4.1997,0.0,0.0,0.0,0.0,0.0,0.0,-0.4276,-0.4081,-0.3949,0.0,0.0,0.0,0.0,0.0,0.0,0.0,0.0,0.0,0.0,0.0,0.0,0.0,0.0,0.0,0.0,0.0,-0.266,-0.2091,-0.1595,-0.1396,-0.1507,-0.3219,-0.4265,-0.4433,-0.5701,-0.6732,-0.7428,-0.8497,-0.993,-1.1554,-1.3176,-1.4681,-1.6026,-1.824,-1.9466,-1.9926,-2.1965,-2.2905,-2.3098,-2.4149,-2.5749,-2.7482,-2.7226,-2.7699,-2.8415,-2.7944,-2.771,-2.7625,-2.7625,-2.8091,-2.8654,-2.8559,-2.9058,-2.9717,-2.9629,-3.0464,-3.1813,-3.3634,-3.4655,-3.5331,-3.6098,-3.6636,-3.7146,-3.7975,-3.8455,-3.8873,-3.9144,-3.9238,-3.9462,-4.0062,-4.0514,-4.0801,-4.0801,-4.0906,-4.1294,-4.2173,-4.2202,-4.2481,-4.3459,-4.3007,-4.2524,-4.2402,-4.1728,-4.1163,-4.0857,-4.1641,-4.2128,-4.2142,-4.2393,-4.2474,-4.2275,-4.1583,-4.1089,-4.0816,-4.0558,-4.0406,-4.0406,-3.9863,-4.0151,-4.1222,-4.1108,-4.1807,0.0,0.0,0.0,-0.2582,0.0,0.0,0.0,-0.3784,-0.4509,0.0,0.0,0.0,0.0,0.0,0.0,0.0,0.0,0.0,0.0,0.0,0.0,0.0,0.0,0.0,0.0,0.0,-0.2413,-0.2118,-0.1825,-0.195,-0.2722,-0.3819,-0.4754,-0.5475,-0.6578,-0.7555,-0.8438,-0.9337,-1.0725,-1.2662,-1.3044,-1.4388,-1.6654,-1.771,-1.884,-2.0033,-2.1555,-2.2193,-2.2267,-2.2873,-2.3904,-2.5062,-2.5794,-2.6479,-2.7035,-2.7094,-2.6871,-2.6692,-2.7385,-2.7765,-2.7999,-2.8018,-2.8685,-2.9361,-2.9042,-3.0148,-3.1839,-3.3547,-3.4565,-3.5311,-3.6147,-3.6803,-3.7323,-3.779,-3.83,-3.8792,-3.9036,-3.9238,-3.9505,-4.0002,-4.0447,-4.076,-4.0789,-4.0542,-4.0492,-4.0941,-4.0928,-4.1045,-4.1538,-4.1577,-4.1568,-4.1601,-4.1244,-4.0953,-4.0805,-4.1256,-4.1746,-4.2181,-4.1857,-4.1847,-4.2272,-4.1464,-4.0908,-4.0752,-4.1106,-4.1074,-4.0596,-4.029,-4.063,-4.1549,-4.166,-4.2117,0.0,0.0,0.0,0.0,0.0,-0.1493,0.0,0.0,0.0,0.0,0.0,0.0,0.0,0.0,0.0,0.0,0.0,0.0,0.0,0.0,0.0,0.0,0.0,0.0,0.0,0.0,-0.2228,-0.2441,-0.2397,-0.3003,-0.4316,-0.4645,-0.5416,-0.675,-0.7658,-0.8504,-0.9316,-1.0141,-1.1716,-1.3854,-1.3143,-1.4522,-1.7713,-1.7533,-1.8507,-2.0345,-2.1151,-2.152,-2.152,-2.1649,-2.1952,-2.2498,-2.4341,-2.5198,-2.5471,-2.6039,-2.6042,-2.5944,-2.6857,-2.7263,-2.7313,-2.7199,-2.7834,-2.8622,-2.8498,-2.9695,-3.142,-3.2886,-3.3843,-3.4655,-3.5786,-3.6429,-3.7023,-3.7596,-3.8198,-3.8737,-3.9017,-3.9364,-3.9712,-4.0063,-4.0389,-4.0593,-4.0539,-4.0175,-3.9755,-3.9374,-3.9529,-3.9626,-3.9403,-4.0102,-4.0636,-4.0701,-4.0825,-4.0855,-4.0798,-4.0914,-4.137,-4.2201,-4.1498,-4.1423,-4.2268,-4.1423,-4.1046,-4.1254,-4.179,-4.1704,-4.0943,-4.0955,-4.1235,-4.18,-4.2183,-4.2449,0.0,0.0,0.0,0.0,0.0831,0.0,0.0,0.0,0.0,0.0,0.0,0.0,0.0,0.0,0.0,0.0,0.0,0.0,0.0,0.0,0.0,0.0,0.0,0.0,0.0,0.0,0.0,-0.3217,-0.3231,-0.3558,-0.4371,-0.5642,-0.6745,-0.7563,-0.8869,-0.9621,-0.971,-1.0972,-1.2494,-1.4182,-1.4327,-1.5375,-1.7191,-1.7798,-1.8254,-1.8573,-2.0214,-2.0894,-2.093,-2.1472,-2.1363,-2.0979,-2.247,-2.3786,-2.4791,-2.4863,-2.557,-2.6385,-2.5893,-2.6118,-2.65,-2.5863,-2.5769,-2.617,-2.7888,-2.905,-3.0144,-3.2113,-3.3171,-3.3887,-3.4607,-3.5211,-3.5882,-3.7023,-3.7889,-3.8571,-3.8998,-3.9364,-3.9721,-4.0106,-4.0242,-4.0117,-3.9638,-4.0137,-3.9979,-3.8196,-3.9119,-3.9696,-3.8738,-3.9388,-4.0041,-4.0413,-4.0458,-4.0526,-4.0703,-4.0893,-4.1318,-4.209,-4.1523,-4.1502,-4.2268,-4.1282,-4.1435,-4.2904,-4.2327,-4.1966,-4.1853,-4.1858,-4.1828,-4.1797,-4.1841,-4.2285,0.0,0.0,0.0,0.0,0.0,0.0,-0.1208,0.0,-0.2383,0.0,0.0,0.0,0.0,0.0,0.0,0.0,0.0,0.0,0.0,0.0,0.0,0.0,0.0,0.0,0.0,0.0,0.0,0.0,0.0,-0.4281,-0.4984,-0.6032,-0.7117,-0.8224,-0.9287,-1.0167,-1.0965,-1.1895,-1.291,-1.3969,-1.4468,-1.5355,-1.6577,-1.6886,-1.7314,-1.789,-1.8618,-1.8943,-1.8943,-1.9221,-1.9144,-1.8907,-1.9519,-2.081,-2.2442,-2.3217,-2.3836,-2.4262,-2.4246,-2.4367,-2.4518,-2.4622,-2.4617,-2.5061,-2.7242,-2.8068,-2.8773,-3.0821,-3.192,-3.2487,-3.2773,-3.3787,-3.4885,-3.5459,-3.6213,-3.7229,-3.8619,-3.8945,-3.9223,-4.0191,-4.0446,-4.0254,-3.9461,-3.968,-3.9611,-3.8609,-3.9138,-3.9334,-3.8493,-3.9297,-3.9948,-3.9947,-4.0146,-4.0327,-4.04,-4.0696,-4.1226,-4.2056,-4.1861,-4.1637,-4.1448,-4.1477,-4.1849,-4.2539,-4.2723,-4.2546,-4.1989,-4.2001,-4.1931,-4.1797,-4.1277,-4.1508,0.0559,0.0,0.0,0.0,0.0,0.0,0.0,0.0,0.0,0.0,0.0,0.0,0.0,0.0,0.0,0.0,0.0,0.0,0.0,0.0,0.0,0.0,0.0,0.0,0.0,0.0,0.0,0.0,0.0,0.0,-0.576,-0.6312,-0.7272,-0.8678,-0.9585,-1.0712,-1.2052,-1.2599,-1.3296,-1.429,-1.4526,-1.5156,-1.6188,-1.6322,-1.6602,-1.7082,-1.7214,-1.7147,-1.6948,-1.6948,-1.6847,-1.669,-1.6847,-1.7693,-1.9034,-2.0897,-2.1783,-2.2052,-2.2317,-2.24,-2.2488,-2.2976,-2.3162,-2.3572,-2.5848,-2.6525,-2.6975,-2.9098,-2.9892,-3.0102,-3.0346,-3.1448,-3.2718,-3.3317,-3.4374,-3.5812,-3.7803,-3.8239,-3.857,-3.9687,-3.9922,-3.9822,-3.9396,-3.9547,-3.9405,-3.8594,-3.9073,-3.9165,-3.8206,-3.9112,-3.9731,-3.9505,-3.9811,-4.0055,-4.0161,-4.0769,-4.141,-4.2066,-4.208,-4.179,-4.1159,-4.1704,-4.2227,-4.2692,-4.3364,-4.3372,-4.2686,-4.2686,-4.2518,-4.2163,-4.127,-4.1316,0.0,0.0,0.0,0.1118,0.0,0.0,0.0,0.0,-0.134,0.0,0.0,0.0,0.0,0.0,0.0,0.0,0.0,0.0,0.0,0.0,0.0,0.0,0.0,0.0,0.0,0.0,0.0,0.0,0.0,0.0,-0.6529,-0.6588,-0.7272,-0.8678,-1.0033,-1.1399,-1.2773,-1.2842,-1.3741,-1.5463,-1.4714,-1.5031,-1.6199,-1.6606,-1.6373,-1.5685,-1.6234,-1.5987,-1.531,-1.531,-1.4878,-1.4273,-1.4984,-1.4869,-1.4664,-1.7639,-1.9519,-2.0545,-2.0302,-2.0412,-2.0685,-2.0707,-2.0707,-2.1169,-2.3443,-2.4111,-2.4593,-2.6768,-2.6859,-2.6404,-2.7081,-2.7647,-2.8584,-3.066,-3.2691,-3.4619,-3.639,-3.7222,-3.7773,-3.827,-3.8213,-3.8381,-3.9256,-3.9998,-3.9723,-3.7482,-3.882,-3.9472,-3.7755,-3.8489,-3.9125,-3.9125,-3.9414,-3.9757,-4.0062,-4.1258,-4.2,-4.2088,-4.2033,-4.1993,-4.1962,-4.1861,-4.2563,-4.4198,-4.438,-4.4441,-4.4428,-4.4421,-4.3976,-4.3137,-4.2198,-4.2239,0.0,0.0,0.0392,0.0392,0.0,0.0,0.0,0.0,0.0,0.0,0.0,0.0,0.0,0.0,0.0,0.0,0.0,0.0,0.0,0.0,0.0,0.0,0.0,0.0,0.0,0.0,0.0,0.0,0.0,0.0,0.0,-0.6588,-0.7475,-0.9327,-1.0281,-1.1475,-1.2842,-1.3266,-1.3587,-1.38,-1.4076,-1.4145,-1.4038,-1.4363,-1.393,-1.305,-1.3832,-1.3698,-1.292,-1.3519,-1.3614,-1.3391,-1.3673,-1.3614,-1.3682,-1.6223,-1.7623,-1.8408,-1.8923,-1.8385,-1.7728,-1.9238,-1.8895,-1.8282,-2.0778,-2.1581,-2.1779,-2.3067,-2.3991,-2.465,-2.5052,-2.6589,-2.8377,-2.9666,-3.2043,-3.4545,-3.6583,-3.7643,-3.8358,-3.8925,-3.8981,-3.9023,-3.9303,-3.9533,-3.9478,-3.8839,-3.9521,-3.9656,-3.8435,-3.8766,-3.9036,-3.8855,-3.9301,-3.9872,-4.0571,-4.193,-4.2478,-4.195,-4.1875,-4.1615,-4.1036,-4.1614,-4.2452,-4.3548,-4.4261,-4.4628,-4.4628,-4.4541,-4.4344,-4.4053,-4.3644,-4.3499,-0.0112,0.0,0.0,0.0,0.0,0.0,0.0336,0.0,0.0,0.0,0.0,0.0,0.0,0.0,0.0,0.0,0.0,0.0,0.0,0.1584,0.0,0.0,0.0,0.0,0.0,0.0,0.0,0.0,0.0,0.0,0.0,0.0,-0.7315,-0.8906,-0.9923,-1.1124,-1.2482,-1.2648,-1.2725,-1.266,-1.2777,-1.2636,-1.2254,-1.2274,-1.1759,-1.0871,-1.1396,-1.1148,-1.0448,-1.0975,-1.1238,-1.1238,-1.1238,-1.1238,-1.1534,-1.3883,-1.5103,-1.5671,-1.5984,-1.5618,-1.5266,-1.6351,-1.5913,-1.5314,-1.7674,-1.8379,-1.864,-1.9775,-2.0837,-2.1808,-2.225,-2.4384,-2.6844,-2.8293,-3.0957,-3.3814,-3.6279,-3.7047,-3.7537,-3.8372,-3.8255,-3.8196,-3.8748,-3.8834,-3.9035,-3.9669,-4.0043,-3.9943,-3.9146,-3.9275,-3.9333,-3.9064,-3.9476,-4.0295,-4.1561,-4.2276,-4.2527,-4.2277,-4.1681,-4.1085,-4.0508,-4.1467,-4.2524,-4.3652,-4.4356,-4.4984,-4.5596,-4.5165,-4.4944,-4.4963,-4.4835,-4.4575]},{"header":{"parameterUnit":"m.s-1","parameterCategory":1,"la1":30.6,"la2":29.2853,"lo1":-89.7004,"lo2":-87.6739,"dy":0.0162,"dx":0.0183,"nx":112,"ny":82,"refTime":"2024-03-15T06:00:00:Z","depth":0,"parameterNumber":3,"parameterNumberName":"V-component_of_WINDS"},"data":[0.0,0.0,0.0,0.0,0.0,0.0,0.0,0.0,0.0,0.0,0.0,0.0,0.0,0.0,0.0,0.0,0.0,0.0,0.0,0.0,0.0,0.0,0.0,0.0,0.0,0.0,0.0,0.0,0.0,0.0,0.0,0.0,0.0,0.0,0.0,0.0,0.0,0.0,0.0,0.0,0.0,0.0,0.0,0.0,0.0,0.0,0.0,0.0,0.0,0.0,0.0,0.0,0.0,0.0,0.0,0.0,0.0,0.0,0.0,0.0,0.0,0.0,0.0,0.0,0.0,0.0,0.0,0.0,0.0,0.0,0.0,0.0,0.0,0.0,0.0,0.0,0.0,0.0,0.0,0.0,0.0,0.0,0.0,0.0,0.0,0.0,0.0,0.0,0.0,0.0,-0.5186,-0.5905,-0.6994,-0.7669,-0.7747,-0.8103,-0.6732,-0.3069,0.0,0.0,0.0,0.0,0.0,0.0,0.0,0.0,0.0,0.0,0.0,0.0,0.0,0.0,0.0,0.0,0.0,0.0,0.0,0.0,0.0,0.0,0.0,0.0,0.0,0.0,0.0,0.0,0.0,0.0,0.0,0.0,0.0,0.0,0.0,0.0,0.0,0.0,0.0,0.0,0.0,0.0,0.0,0.0,0.0,0.0,0.0,0.0,0.0,0.0,0.0,0.0,0.0,0.0,0.0,0.0,0.0,0.0,0.0,0.0,0.0,0.0,0.0,0.0,0.0,0.0,0.0,0.0,0.0,0.0,0.0,0.0,0.0,0.0,0.0,0.0,0.0,0.0,0.0,0.0,0.0,0.0,0.0,0.0,0.0,0.0,0.0,0.0,0.0,0.0,0.0,0.0,0.0,0.0,0.0,0.0,0.0,0.0,0.0,0.0,0.0,0.0,0.0,0.0,-0.4953,-0.5066,-0.5933,-0.6653,-0.7108,-0.6807,-0.5676,-0.3508,0.0,0.0,0.0,0.0,0.0,0.0,0.0,0.0,0.0,0.0,0.0,0.0,0.0,0.0,0.0,0.0,0.0,0.0,0.0,0.0,0.0,0.0,0.0,0.0,0.0,0.0,0.0,0.0,0.0,0.0,0.0,0.0,0.0,0.0,0.0,0.0,0.0,0.0,0.0,0.0,0.0,0.0,0.0,0.0,0.0,0.0,0.0,0.0,0.0,0.0,0.0,0.0,0.0,0.0,0.0,0.0,0.0,0.0,0.0,0.0,0.0,0.0,0.0,0.0,0.0,0.0,0.0,0.0,0.0,0.0,0.0,0.0,0.0,0.0,0.0,0.0,0.0,0.0,0.0,0.0,0.0,0.0,0.0,0.0,0.0,0.0,0.0,0.0,0.0,0.0,0.0,0.0,0.0,0.0,0.0,0.0,0.0,0.0,0.0,0.0,0.0,0.0,0.0,-0.4915,-0.5091,-0.5318,-0.584,-0.6288,-0.6556,-0.6351,-0.5163,-0.2725,-0.3232,0.0,0.0,0.0,0.0,0.0,0.0,0.0,0.0,0.0,0.0,0.0,0.0,0.0,0.0,0.0,0.0,0.0,0.0,0.0,0.0,0.0,0.0,0.0,0.0,0.0,0.0,0.0,0.0,0.0,0.0,0.0,0.0,0.0,0.0,0.0,0.0,0.0,0.0,0.0,0.0,0.0,0.0,0.0,0.0,0.0,0.0,0.0,0.0,0.0,0.0,0.0,0.0,0.0,0.0,0.0,0.0,0.0,0.0,0.0,0.0,0.0,0.0,0.0,0.0,0.0,0.0,0.0,0.0,0.0,0.0,0.0,0.0,0.0,0.0,0.0,0.0,0.0,0.0,0.0,0.0,0.0,0.0,0.0,0.0,0.0,0.0,0.0,0.0,0.0,0.0,0.0,0.0,0.0,0.0,0.0,0.0,0.0,0.0,0.0,0.0,0.0,0.0,-0.4786,-0.5027,-0.5223,-0.5694,-0.6061,-0.6178,-0.6075,-0.4806,-0.1985,-0.2929,0.0,0.0,0.0,0.0,0.0,0.0,0.0,0.0,0.0,0.0,0.0,0.0,0.0,0.0,0.0,0.0,0.0,0.0,0.0,0.0,0.0,0.0,0.0,0.0,0.0,0.0,0.0,0.0,0.0,0.0,0.0,0.0,0.0,0.0,0.0,0.0,0.0,0.0,0.0,0.0,0.0,0.0,0.0,0.0,0.0,0.0,0.0,0.0,0.0,0.0,0.0,0.0,0.0,0.0,0.0,0.0,0.0,0.0,0.0,0.0,0.0,0.0,0.0,0.0,0.0,0.0,0.0,0.0,0.0,0.0,0.0,0.0,0.0,0.0,0.0,0.0,0.0,0.0,0.0,0.0,0.0,0.0,0.0,0.0,0.0,0.0,0.0,0.0,0.0,0.0,0.0,0.0,0.0,0.0,0.0,0.0,0.0,0.0,0.0,0.0,0.0,0.0,-0.4781,-0.4322,-0.3964,-0.4794,-0.5603,-0.6139,-0.5684,-0.4338,-0.1941,-0.294,0.0,0.0,0.0,0.0,0.0,0.0,0.0,0.0,0.0,0.0,0.0,0.0,0.0,0.0,0.0,0.0,0.0,0.0,0.0,0.0,0.0,0.0,0.0,0.0,0.0,0.0,0.0,0.0,0.0,0.0,0.0,0.0,0.0,0.0,0.0,0.0,0.0,0.0,0.0,0.0,0.0,0.0,0.0,0.0,0.0,0.0,0.0,0.0,0.0,0.0,0.0,0.0,0.0,0.0,0.0,0.0,0.0,0.0,0.0,0.0,0.0,0.0,0.0,0.0,0.0,0.0,0.0,0.0,0.0,0.0,0.0,0.0,0.0,0.0,0.0,0.0,0.0,0.0,0.0,0.0,0.0,0.0,0.0,0.0,0.0,0.0,0.0,0.0,0.0,0.0,0.0,0.0,0.0,0.0,0.0,0.0,0.0,0.0,0.0,0.0,0.0,0.0,-0.3859,-0.3823,0.0,-0.4502,-0.4988,-0.5581,-0.5421,-0.4617,-0.3034,0.0,0.0,0.0,0.0,0.0,0.0,0.0,0.0,0.0,0.0,0.0,0.0,0.0,0.0,0.0,0.0,0.0,0.0,0.0,0.0,0.0,0.0,0.0,0.0,0.0,0.0,0.0,0.0,0.0,0.0,0.0,0.0,0.0,0.0,0.0,0.0,0.0,0.0,0.0,0.0,0.0,0.0,0.0,0.0,0.0,0.0,0.0,0.0,0.0,0.0,0.0,0.0,0.0,0.0,0.0,0.0,0.0,0.0,0.0,0.0,0.0,0.0,0.0,0.0,0.0,0.0,0.0,0.0,0.0,0.0,0.0,0.0,0.0,0.0,0.0,0.0,0.0,0.0,0.0,0.0,0.0,0.0,0.0,0.0,0.0,0.0,0.0,0.0,0.0,0.0,0.0,0.0,0.0,0.0,0.0,0.0,0.0,0.0,0.0,0.0,0.0,0.0,-0.4543,-0.375,-0.3398,0.0,-0.4357,-0.4638,-0.4499,-0.4297,-0.4103,-0.3913,0.0,0.0,0.0,0.0,0.0,0.0,0.0,0.0,0.0,0.0,0.0,0.0,0.0,0.0,0.0,0.0,0.0,0.0,0.0,0.0,0.0,0.0,0.0,0.0,0.0,0.0,0.0,0.0,0.0,0.0,0.0,0.0,0.0,0.0,0.0,0.0,0.0,0.0,0.0,0.0,0.0,0.0,0.0,0.0,0.0,0.0,0.0,0.0,0.0,0.0,0.0,0.0,0.0,0.0,0.0,0.0,0.0,0.0,0.0,0.0,0.0,0.0,0.0,0.0,0.0,0.0,0.0,0.0,0.0,0.0,0.0,0.0,0.0,0.0,0.0,0.0,0.0,0.0,0.0,0.0,0.0,0.0,0.0,0.0,0.0,0.0,0.0,0.0,0.0,0.0,0.0,0.0,0.0,0.0,0.0,0.0,0.0,0.0,0.0,0.0,0.0,0.0,-0.6799,-0.4693,-0.3,-0.2724,-0.4237,-0.4575,-0.2835,-0.2134,-0.2564,0.0,0.0,0.0,0.0,0.0,0.0,0.0,0.0,0.0,0.0,0.0,0.0,0.0,0.0,0.0,0.0,0.0,0.0,0.0,0.0,0.0,0.0,0.0,0.0,0.0,0.0,0.0,0.0,0.0,0.0,0.0,0.0,0.0,0.0,0.0,0.0,0.0,0.0,0.0,0.0,0.0,0.0,0.0,0.0,0.0,0.0,0.0,0.0,0.0,0.0,0.0,0.0,0.0,0.0,0.0,0.0,0.0,0.0,0.0,0.0,0.0,0.0,0.0,0.0,0.0,0.0,0.0,0.0,0.0,0.0,0.0,0.0,0.0,0.0,0.0,0.0,0.0,0.0,0.0,0.0,0.0,0.0,0.0,0.0,0.0,0.0,0.0,0.0,0.0,0.0,0.0,0.0,0.0,0.0,0.0,0.0,0.0,0.0,0.0,0.0,0.0,0.0,0.0,-0.4199,-0.2937,-0.2318,-0.2664,-0.3169,-0.3085,-0.2157,-0.1911,-0.2329,-0.3562,0.0,0.0,0.0,0.0,0.0,0.0,0.0,0.0,0.0,0.0,0.0,0.0,0.0,0.0,0.0,0.0,0.0,0.0,0.0,0.0,0.0,0.0,0.0,0.0,0.0,0.0,0.0,0.0,0.0,0.0,0.0,0.0,0.0,0.0,0.0,0.0,0.0,0.0,0.0,0.0,0.0,0.0,0.0,0.0,0.0,0.0,0.0,0.0,0.0,0.0,0.0,0.0,0.0,0.0,0.0,0.0,0.0,0.0,0.0,0.0,0.0,0.0,0.0,0.0,0.0,0.0,0.0,0.0,0.0,0.0,0.0,0.0,0.0,0.0,0.0,0.0,0.0,0.0,0.0,0.0,0.0,0.0,0.0,0.0,0.0,0.0,0.0,0.0,0.0,0.0,0.0,0.0,0.0,0.0,0.0,0.0,0.0,0.0,0.0,0.0,0.0,0.0,-0.3124,-0.2175,-0.193,-0.2307,-0.1923,-0.1669,-0.1782,-0.1794,-0.2218,-0.3163,0.0,0.0,0.0,0.0,0.0,0.0,0.0,0.0,0.0,0.0,0.0,0.0,0.0,0.0,0.0,0.0,0.0,0.0,0.0,0.0,0.0,0.0,0.0,0.0,0.0,0.0,0.0,0.0,0.0,0.0,0.0,0.0,0.0,0.0,0.0,0.0,0.0,0.0,0.0,0.0,0.0,0.0,0.0,0.0,0.0,0.0,0.0,0.0,0.0,0.0,0.0,0.0,0.0,0.0,0.0,0.0,0.0,0.0,0.0,0.0,0.0,0.0,0.0,0.0,0.0,0.0,0.0,0.0,0.0,0.0,0.0,0.0,0.0,0.0,0.0,0.0,0.0,0.0,0.0,0.0,0.0,0.0,0.0,0.0,0.0,0.0,0.0,0.0,0.0,0.0,0.0,0.0,0.0,0.0,0.0,0.0,0.0,0.0,0.0,0.0,0.0,0.0,-0.319,-0.2156,-0.1807,-0.1803,-0.0824,-0.062,-0.1705,-0.1809,-0.2168,-0.3012,0.0,0.0,0.0,0.0,0.0,0.0,0.0,0.0,0.0,0.0,0.0,0.0,0.0,0.0,0.0,0.0,0.0,0.0,0.0,0.0,0.0,0.0,0.0,0.0,0.0,0.0,0.0,0.0,0.0,0.0,0.0,0.0,0.0,0.0,0.0,0.0,0.0,0.0,0.0,0.0,0.0,0.0,0.0,0.0,0.0,0.0,0.0,0.0,0.0,0.0,0.0,0.0,0.0,0.0,0.0,0.0,0.0,0.0,0.0,0.0,-1.0829,0.0,0.0,0.0,0.0,0.0,0.0,0.0,0.0,0.0,0.0,0.0,0.0,0.0,0.0,0.0,0.0,0.0,0.0,0.0,0.0,0.0,0.0,0.0,0.0,0.0,0.0,0.0,0.0,0.0,0.0,0.0,0.0,0.0,0.0,0.0,0.0,0.0,0.0,0.0,0.0,0.0,-0.2927,-0.2162,-0.1785,-0.1793,-0.1576,-0.1513,-0.1775,-0.1809,-0.2089,-0.2744,-0.3202,0.0,0.0,0.0,0.0,0.0,0.0,0.0,0.0,0.0,0.0,0.0,0.0,0.0,0.0,0.0,0.0,0.0,0.0,0.0,0.0,0.0,0.0,0.0,0.0,0.0,0.0,0.0,0.0,0.0,0.0,0.0,0.0,0.0,0.0,0.0,0.0,0.0,0.0,0.0,0.0,0.0,0.0,0.0,0.0,0.0,0.0,0.0,0.0,0.0,0.0,0.0,0.0,0.0,0.0,0.0,0.0,0.0,0.0,0.0,0.0,-0.8931,0.0,0.0,0.0,0.0,0.0,0.0,0.0,0.0,0.0,0.0,0.0,0.0,0.0,0.0,0.0,0.0,0.0,0.0,0.0,0.0,0.0,0.0,0.0,0.0,0.0,0.0,0.0,0.0,0.0,0.0,0.0,0.0,0.0,0.0,0.0,0.0,0.0,0.0,0.0,0.0,-0.1479,-0.1885,-0.2229,-0.2226,-0.2237,-0.2181,-0.2086,-0.2082,-0.2191,-0.2407,-0.3312,0.0,0.0,0.0,0.0,0.0,0.0,0.0,0.0,0.0,0.0,0.0,0.0,0.0,0.0,0.0,0.0,0.0,0.0,0.0,0.0,0.0,0.0,0.0,0.0,0.0,0.0,0.0,0.0,0.0,0.0,0.0,0.0,0.0,0.0,0.0,0.0,0.0,0.0,0.0,0.0,0.0,0.0,0.0,0.0,0.0,0.0,0.0,0.0,0.0,0.0,0.0,0.0,0.0,0.0,0.4276,0.4896,0.4245,0.4423,0.5011,-0.0127,-0.2354,-0.2523,0.0,0.0,0.0,0.0,0.0,0.0,0.0,0.0,0.0,0.0,0.0,0.0,0.0,0.0,0.0,0.0,0.0,0.0,0.0,0.0,0.0,0.0,0.0,0.0,0.0,-0.0518,-0.0044,0.0,0.0,0.0,0.0,0.0,0.0,0.0,0.0,0.0,0.0,0.0,0.0,-0.0412,-0.1785,-0.2687,-0.2705,-0.2661,-0.2586,-0.2412,-0.2384,-0.2293,-0.2163,-0.3365,-0.4495,0.0,0.0,0.0,0.0,0.0,0.0,0.0,0.0,0.0,0.0,0.0,0.0,0.0,0.0,0.0,0.0,0.0,0.0,0.0,0.0,0.0,0.0,0.0,0.0,0.0,0.0,0.0,0.0,0.0,0.0,0.0,0.0,-1.1724,-1.3884,0.0,0.0,0.0,0.0,0.0,0.0,0.0,0.0,0.0,0.0,0.0,0.0,0.0,0.0,-0.2597,-0.1765,-0.0631,0.0799,0.2211,0.3412,0.4282,0.3836,0.424,0.5217,0.344,0.0,0.2314,-0.1855,0.0,0.0,0.0,0.0,0.0,0.0,0.0,0.0,0.0,0.0,0.0,0.0,0.0,0.0,0.0,0.0,0.0,0.0,0.0,0.0,0.0,0.0,0.2005,0.1995,0.2566,0.3032,0.0,0.12,0.0,0.0,0.0,0.0,0.0,0.0,0.0,0.0,0.0,0.0,-0.2146,-0.2552,-0.2709,-0.2691,-0.2557,-0.2439,-0.2412,-0.2297,-0.2269,-0.2366,-0.2604,-0.3365,-0.4769,-0.4994,0.0,0.0,0.0,0.0,0.0,0.0,0.0,0.0,0.0,0.0,0.0,0.0,0.0,0.0,0.0,0.0,0.0,0.0,0.0,0.0,0.0,0.0,0.0,0.0,0.0,0.0,0.0,0.0,0.0,-1.3361,-1.3505,-1.5018,-0.6608,0.026,0.0,0.0,0.0,0.0,0.0,0.0,0.0,0.0,0.0,0.3716,0.0762,-0.1005,-0.1417,-0.1077,-0.0117,0.1454,0.228,0.3097,0.3867,0.3679,0.3884,0.4316,0.3799,0.3605,0.3375,0.0367,-0.1076,-0.1432,0.0,0.0,0.0,0.0,0.0,0.0,0.0,0.0,0.0,0.0,0.0,0.0,0.0,0.0,0.0,0.0,0.0,0.0,0.0,0.0,0.0,0.5118,0.5301,0.5495,0.5507,0.4684,0.3569,0.0,0.2028,0.1909,0.1563,0.0,0.0,0.0,0.0,-0.0287,-0.1097,-0.2075,-0.2694,-0.2687,-0.2624,-0.2582,-0.2582,-0.252,-0.2506,-0.2579,-0.2603,-0.2885,-0.3536,-0.3811,-0.4559,0.0,0.0,0.0,0.0,0.0,0.0,0.0,0.0,0.0,0.0,0.0,0.0,0.0,0.0,0.0,0.0,0.0,0.0,0.0,0.0,0.0,0.0,0.0,0.0,0.0,0.0,0.0,0.0,-1.251,-1.4056,-1.4418,-0.6596,-0.0503,0.0,0.0,0.0,0.0,0.0,0.0,1.6256,1.2657,0.8993,0.5371,0.2276,0.0468,0.0,0.0153,0.0883,0.2169,0.271,0.3252,0.3792,0.3667,0.3755,0.4016,0.3711,0.3667,0.3667,0.2014,0.1053,0.0589,0.0337,-0.0844,-0.2155,0.0099,0.094,0.0934,0.0941,0.2087,0.3678,0.4275,0.0,0.601,1.0037,0.0,0.0,0.0,0.0,0.9902,0.8267,0.0,0.7692,0.7125,0.699,0.7011,0.7009,0.7022,0.6592,0.0,0.4688,0.4313,0.3886,0.0,0.0,0.0,0.0,0.0704,0.0083,-0.1452,-0.254,-0.2669,-0.2703,-0.2712,-0.2712,-0.2712,-0.2712,-0.2712,-0.2712,-0.2712,-0.2712,-0.3004,-0.3759,-0.5065,0.0,0.0,0.0,0.0,0.0,0.0,0.0,0.0,0.0,0.0,0.0,0.0,0.0,0.0,0.0,0.0,0.0,0.0,0.0,0.0,0.0,0.0,0.0,0.0,0.0,0.0,0.0,0.0,0.0,-0.7032,-0.2898,0.0,0.0,0.0,0.0,1.7444,1.8124,1.7732,1.618,1.3394,0.9999,0.6068,0.3758,0.2084,0.1045,0.158,0.2162,0.2683,0.328,0.3829,0.4347,0.3836,0.4188,0.5135,0.4056,0.388,0.426,0.3073,0.2925,0.3269,0.2136,0.2291,0.3218,0.3348,0.3399,0.3422,0.344,0.351,0.3961,0.6142,0.8135,1.0194,1.3063,1.3066,0.0,0.0,1.1809,1.029,1.016,1.0112,0.9582,0.7515,0.7002,0.7014,0.6985,0.7011,0.7306,0.0,0.7614,0.6819,0.6792,0.0,0.8419,0.7263,0.5014,0.2579,0.0289,-0.1068,-0.2054,-0.2639,-0.2696,-0.2712,-0.2712,-0.2712,-0.2712,-0.2712,-0.2712,-0.2712,-0.2712,-0.2733,-0.2932,-0.3408,-0.4928,0.0,0.0,0.0,0.0,0.0,0.0,0.0,0.0,0.0,0.0,0.0,0.0,0.0,0.0,0.0,0.0,0.0,0.0,0.0,0.0,0.0,0.0,0.0,0.0,0.0,0.0,0.0,0.0,-0.7821,-0.4199,0.0,0.1577,0.5869,1.0002,1.365,1.4645,1.4877,1.4464,1.2247,0.9885,0.7475,0.5596,0.4322,0.3671,0.359,0.3805,0.438,0.4582,0.4648,0.4591,0.4256,0.4168,0.4192,0.3788,0.3924,0.4391,0.3949,0.3728,0.3569,0.3106,0.323,0.3599,0.3592,0.3621,0.3608,0.3609,0.4565,0.6064,0.7603,0.9031,1.0508,1.2266,1.2362,1.1881,1.2172,1.1743,1.1126,1.046,1.0294,0.9761,0.751,0.7016,0.7017,0.6986,0.6999,0.7111,0.756,0.7278,0.7446,0.8881,0.9503,0.9617,0.9181,0.7208,0.4959,0.2604,0.0589,-0.1253,-0.2775,-0.2621,-0.2489,-0.28,-0.2829,-0.2784,-0.2719,-0.2712,-0.2712,-0.2712,-0.2712,-0.2781,-0.2929,-0.3468,-0.3713,0.0,0.0,0.0,0.0,0.0,0.0,0.0,0.0,0.0,0.0,0.0,0.0,0.0,0.0,0.0,0.0,0.0,0.0,0.0,0.0,0.0,0.0,0.0,0.0,0.0,0.0,-0.6994,-0.7369,-0.466,-0.2052,-0.018,0.3458,0.7093,1.0421,1.1915,1.2871,1.331,1.1742,1.0284,0.905,0.7375,0.6289,0.5802,0.5252,0.5195,0.562,0.562,0.5475,0.5186,0.4951,0.4559,0.4014,0.3939,0.4092,0.4387,0.4387,0.4308,0.414,0.373,0.3595,0.3602,0.3605,0.3622,0.3764,0.4956,0.6197,0.7582,0.9117,0.9943,1.0566,1.22,1.1966,1.142,1.2486,1.2269,1.164,1.1291,1.0171,0.8925,0.786,0.7291,0.7001,0.7014,0.6407,0.6067,0.6858,0.7006,0.7688,0.9906,1.084,1.1075,1.0401,0.8421,0.6173,0.3874,0.2199,0.0357,-0.1824,-0.196,-0.2114,-0.2615,-0.2875,-0.2991,-0.2839,-0.2829,-0.2829,-0.2829,-0.2829,-0.2917,-0.3082,-0.2627,-0.3317,-0.5193,0.0,0.0,0.0,0.0,0.0,0.0,0.0,0.0,0.0,0.0,0.0,0.0,0.0,0.0,0.0,0.0,0.0,0.0,0.0,0.0,0.0,0.0,0.0,-0.5786,-0.6068,-0.5715,-0.4965,-0.3829,-0.2282,-0.0218,0.2498,0.5292,0.8036,1.0315,1.1977,1.2913,1.2068,1.1246,1.0655,0.902,0.7889,0.7304,0.6619,0.6304,0.6304,0.6304,0.6256,0.6251,0.5883,0.5457,0.4941,0.4568,0.4439,0.4482,0.4478,0.4826,0.5221,0.4081,0.3677,0.3695,0.3701,0.3707,0.4245,0.7652,0.8461,0.8317,1.0646,1.0831,1.0605,1.2962,1.2054,1.0846,1.3742,1.3177,1.1803,1.2579,0.9913,0.7359,0.8475,0.7898,0.7063,0.7037,0.5324,0.4414,0.658,0.7016,0.7698,0.9907,1.1877,1.2494,1.0643,0.8641,0.0,0.4022,0.3685,0.2735,0.029,-0.0758,-0.1561,-0.2156,-0.2902,-0.3249,-0.3092,-0.3082,-0.3082,-0.3082,-0.3085,-0.3365,-0.3855,-0.2591,-0.3529,-0.6784,0.0,0.0,0.0,0.0,0.0,0.0,0.0,0.0,0.0,0.0,0.0,0.0,0.0,0.0,0.0,0.0,0.0,0.0,0.0,0.0,0.0,-0.0044,-0.1356,-0.3785,-0.3914,-0.3901,-0.4194,-0.3293,-0.2136,-0.0789,0.158,0.4213,0.7001,0.9231,1.1064,1.2496,1.227,1.1826,1.1281,1.0472,0.9761,0.9151,0.8479,0.8165,0.8165,0.8165,0.799,0.7643,0.6943,0.6571,0.644,0.5185,0.5138,0.5985,0.5772,0.6049,0.6413,0.5276,0.5345,0.6045,0.6058,0.6608,0.7576,0.8932,0.9165,0.8971,0.9369,0.9573,0.9902,1.0893,1.108,1.1045,1.1709,1.2214,1.2137,1.0407,0.9123,0.8167,0.7621,0.7911,0.8301,0.8316,0.7817,0.7282,0.7054,0.7009,0.7715,0.9932,1.073,1.1383,1.2262,1.326,0.0,0.6737,0.534,0.3799,0.117,-0.036,-0.1508,-0.2335,-0.3098,-0.3402,-0.3137,-0.2692,-0.2653,-0.3082,-0.3195,-0.3951,-0.5503,-0.4747,-0.5241,0.0,0.0,0.0,0.0,0.0,0.0,0.0,0.0,0.0,0.0,0.0,0.0,0.0,0.0,0.0,0.0,0.0,0.0,0.0,0.0,0.0,0.0,0.1738,0.0218,-0.1992,-0.253,-0.3017,-0.3757,-0.3323,-0.2531,-0.1371,0.0852,0.3246,0.5775,0.8277,1.0339,1.1804,1.2152,1.2218,1.207,1.151,1.1044,1.0707,1.0051,0.9723,0.9674,0.9384,0.9114,0.8841,0.7983,0.7486,0.0,0.6166,0.6112,0.6806,0.6657,0.6754,0.0,0.0,0.0,0.0,0.0,0.9675,0.9898,0.9848,0.9686,0.9486,0.9261,0.9197,0.9381,1.0205,1.0508,1.0754,1.1499,1.1849,1.1504,0.9375,0.7904,0.6832,0.6142,0.6492,0.6991,0.7013,0.7019,0.6789,0.609,0.0,0.0,1.0977,1.1469,1.1894,1.3043,1.4273,1.3738,0.0,0.7673,0.5555,0.336,0.1144,-0.0615,-0.165,-0.2976,0.0,0.0,0.0,-0.2572,-0.3011,-0.3746,0.0,0.0,0.0,-0.6071,-0.6744,0.0,0.0,0.0,-0.974,-1.0956,0.0,0.0,0.0,0.0,0.0,0.0,0.0,0.0,0.0,0.0,0.0,0.0,0.0,0.0,0.0,0.0,0.3203,0.1832,-0.0346,-0.1552,-0.2545,-0.3496,-0.3592,-0.3081,-0.1828,0.0264,0.248,0.4744,0.7592,0.9771,1.1145,0.0,0.0,0.0,0.0,1.1873,1.1665,1.1166,1.0864,1.0813,1.0218,0.9865,0.9755,0.883,0.8151,0.7619,0.7254,0.7188,0.7236,0.7206,0.7176,0.7115,0.7503,0.8731,1.0544,1.2368,1.2393,0.0,0.0,0.0,0.0,0.9909,0.951,0.9211,1.0364,1.0372,1.0375,1.2148,1.1893,1.0677,0.921,0.6648,0.4485,0.4513,0.4519,0.4483,0.4516,0.4601,0.4754,0.4727,0.6956,0.9673,1.2438,1.3044,1.3248,1.3518,1.3588,0.0,1.3336,1.0249,0.7537,0.607,0.0,0.0,-0.0623,-0.2768,-0.3927,-0.3646,-0.3138,-0.2861,-0.2908,-0.4441,-0.519,-0.498,-0.5906,-0.6324,-0.6242,-0.707,-0.7626,-0.7883,-0.9235,-1.021,0.0,0.0,0.0,0.0,0.0,0.0,0.0,0.0,0.0,0.0,0.0,0.0,0.0,0.0,0.0,0.6269,0.4794,0.2976,0.0993,0.0096,-0.1158,-0.3509,-0.3649,-0.2946,-0.1242,-0.0136,0.1888,0.5269,0.7402,0.9335,1.1125,1.2206,0.0,1.2021,1.2452,1.2147,1.1015,1.1416,1.1366,1.0813,0.0,0.0,0.9762,0.9003,0.8632,0.8489,0.7638,0.7622,0.8114,0.7878,0.7752,0.7996,1.068,1.1992,1.2472,1.3514,1.2861,1.1589,1.2092,1.1557,1.0618,1.0618,1.0517,1.0364,1.0064,1.0565,0.0,1.1174,1.1851,1.1938,0.9452,0.665,0.4513,0.4516,0.4527,0.4483,0.4488,0.5412,0.6206,0.6177,0.7605,0.9649,1.2417,1.292,1.3632,1.5561,1.5845,1.5833,1.5819,1.1961,0.8608,0.6958,0.3296,0.0463,-0.0776,-0.2869,-0.4076,-0.3944,-0.3811,-0.3541,-0.3066,-0.4381,-0.4853,-0.421,-0.5538,-0.6271,-0.6355,-0.7127,-0.7883,-0.8639,-0.9961,-1.0661,0.0,0.0,0.0,0.0,0.0,0.0,0.0,0.0,0.0,0.0,0.0,0.9139,0.8849,0.0,0.9181,0.7628,0.6059,0.4401,0.2449,0.1021,-0.0547,-0.2543,-0.2736,-0.2085,-0.0519,0.0858,0.2752,0.5418,0.7973,0.9866,1.0925,1.1871,1.2187,1.1814,1.1832,1.1484,1.0813,1.1116,1.1116,1.0813,1.0466,1.0115,0.9762,0.9086,0.8784,0.8798,0.828,0.8274,0.8577,0.843,0.835,0.855,1.0689,1.209,1.2969,1.3369,1.2959,1.2209,1.2297,1.1855,1.1266,1.0914,1.0813,1.0661,1.0012,1.0584,1.1259,1.0141,1.1309,1.2256,0.9517,0.7195,0.5474,0.5267,0.4856,0.4604,0.4944,0.5559,0.6218,0.6853,0.7606,0.8677,1.0551,1.1997,1.374,1.6139,1.6519,1.6354,1.5934,1.3102,1.0573,0.9011,0.511,0.1947,0.0314,-0.2435,-0.3926,-0.3565,-0.3875,-0.3852,-0.3229,-0.4536,-0.5116,-0.4755,-0.6196,-0.6984,-0.7054,-0.7789,-0.8391,-0.8804,-0.9814,-1.0466,0.0,0.0,0.0,0.0,0.0,0.0,0.0,0.0,0.928,0.8842,1.0639,1.1923,1.0755,1.1446,1.1334,0.8714,0.7345,0.5864,0.3827,0.1934,0.0314,-0.107,-0.1572,-0.121,0.0247,0.1937,0.3736,0.5542,0.8516,1.0352,1.0602,1.1366,1.1665,1.1416,1.1015,1.0661,1.0415,1.0669,1.0712,1.0618,1.0064,0.9814,0.9762,0.9113,0.8804,0.8804,0.8804,0.8804,0.8804,0.8804,0.8797,0.8916,0.9821,1.1074,1.2442,1.2754,1.2813,1.2657,1.2316,1.212,1.1922,1.1375,1.1225,1.1074,1.0423,1.073,1.1048,0.9577,1.0617,1.1567,0.9372,0.7729,0.6475,0.6018,0.5269,0.4842,0.5378,0.5706,0.6244,0.7272,0.7747,0.819,0.8938,1.1195,1.3742,1.6158,1.649,1.6269,1.5604,1.4078,1.2529,1.1045,0.7012,0.335,0.0631,-0.2376,-0.3897,-0.3425,-0.3912,-0.4015,-0.3564,-0.4937,-0.5651,-0.5487,-0.7063,-0.783,-0.7723,-0.8427,-0.8804,-0.8804,-0.9465,-1.0167,1.6942,1.4566,1.1715,1.0985,0.9776,0.8737,0.0,0.0,1.0195,1.034,1.1132,1.1914,1.2402,1.2181,1.1463,1.0,0.8998,0.7453,0.4685,0.3495,0.2423,0.0949,-0.0766,-0.1084,0.081,0.1907,0.3536,0.6083,0.8459,0.9819,0.9909,1.1116,1.1266,1.0064,1.0517,1.0218,0.9061,1.0218,1.0517,0.9909,0.9814,0.9814,0.9762,0.9113,0.8804,0.8804,0.8804,0.8804,0.8804,0.8804,0.8797,0.8916,0.9821,1.032,1.068,1.226,1.2444,1.207,1.3188,1.3218,1.2774,1.2676,1.2676,1.251,1.1774,1.123,1.0839,1.0613,0.994,0.9186,0.8858,0.7705,0.648,0.5991,0.566,0.5433,0.5483,0.6524,0.7503,0.761,0.8883,0.9909,1.005,1.1617,1.3699,1.6124,1.649,1.6466,1.6367,1.5194,1.3662,1.1725,0.7646,0.2915,-0.242,-0.3862,-0.4419,-0.4326,-0.4436,-0.4446,-0.4349,-0.5714,-0.6145,-0.5487,-0.7605,-0.8374,-0.7723,-0.8427,-0.8804,-0.8804,-0.9465,-1.0167,1.6061,1.494,1.3808,1.253,1.1744,1.1241,1.1038,1.1444,1.1746,1.1335,1.2159,1.2977,1.2923,1.2979,1.2443,0.0,0.9802,0.8436,0.6013,0.4623,0.3456,0.2368,0.1114,0.0853,0.2265,0.3461,0.5006,0.7023,0.8775,0.9791,0.9814,1.0312,1.0364,0.9814,0.971,0.9361,0.8811,0.9361,0.951,0.9211,0.9211,0.9211,0.9211,0.891,0.8804,0.8804,0.8804,0.8804,0.8804,0.8804,0.8784,0.8849,0.9211,0.9145,0.8978,1.0923,1.1458,1.1316,1.1855,1.1864,1.1692,1.1692,1.1692,1.1592,1.1006,1.1411,1.1666,1.0104,0.9242,0.8783,0.8818,0.7085,0.5634,0.6554,0.6105,0.576,0.6573,0.7587,0.8383,0.8817,0.9814,1.0618,1.0898,1.1572,1.2934,1.5418,1.5787,1.5959,1.6423,1.5443,1.3242,0.9602,0.5736,0.1938,-0.1771,-0.3561,-0.4519,-0.4519,-0.4519,-0.4519,-0.4519,-0.5437,-0.5814,-0.5487,-0.6848,-0.7563,-0.7723,-0.7996,-0.8156,-0.8156,-0.8896,-0.9347,1.6574,1.6019,1.5672,1.4193,1.3413,1.2969,1.2733,1.2845,1.2884,1.2394,1.2882,1.3397,1.3233,1.3145,1.2599,1.1032,1.001,0.8763,0.6848,0.5214,0.3971,0.3273,0.2602,0.2613,0.3676,0.4797,0.6047,0.7605,0.9026,0.971,0.951,0.9718,0.971,0.951,0.9061,0.8804,0.8804,0.8804,0.8804,0.8804,0.8804,0.8804,0.8804,0.8804,0.8804,0.8804,0.8804,0.8804,0.8804,0.8804,0.8804,0.8758,0.8586,0.8156,0.7877,0.9155,0.9769,0.9967,1.0171,1.0222,1.0222,1.0222,1.0391,1.0568,1.0249,1.1439,1.2466,1.0509,0.9389,0.8626,0.783,0.6058,0.486,0.6354,0.6261,0.6105,0.7264,0.8281,0.919,0.9874,1.0726,1.1475,1.1954,1.2213,1.2997,1.4845,1.5119,1.5407,1.6139,1.4835,1.233,0.8229,0.4627,0.1526,-0.0886,-0.3003,-0.4294,-0.4463,-0.4519,-0.4519,-0.4519,-0.5164,-0.5487,-0.5487,-0.6204,-0.6858,-0.7396,-0.7396,-0.7396,-0.7396,-0.8009,-0.8356,1.9572,1.8031,1.6459,1.5854,1.4271,1.285,1.302,1.311,1.3236,1.3668,1.2939,1.2556,1.3518,1.2375,1.1172,1.0764,0.9592,0.8212,0.6799,0.5214,0.4007,0.3434,0.3176,0.3597,0.0,0.5191,0.5954,0.7593,0.9026,0.951,0.8857,0.9465,0.951,0.8857,0.8804,0.8804,0.8804,0.8804,0.8804,0.8804,0.8804,0.8804,0.8804,0.8804,0.8804,0.8804,0.8804,0.8804,0.8804,0.8804,0.8804,0.8752,0.799,0.7723,0.7616,0.6966,0.7154,0.7811,0.8521,0.8775,0.8775,0.8775,0.9379,1.01,1.01,1.1396,1.2897,1.2824,1.0865,0.8163,0.5342,0.4541,0.4594,0.4926,0.5802,0.6643,0.6854,0.8413,0.9911,1.0394,1.1703,1.2852,1.325,1.402,1.4652,1.4709,1.4709,1.4926,1.5543,1.3371,1.0913,0.87,0.5364,0.2073,-0.0831,-0.2558,-0.3735,-0.446,-0.4519,-0.4519,-0.4519,-0.5164,-0.5487,-0.5487,-0.6204,-0.6588,-0.6642,-0.6642,-0.6642,-0.6647,-0.6855,-0.7408,1.9239,1.8538,1.778,1.6558,1.5455,1.4588,1.4238,1.386,1.3413,1.2872,1.2691,1.255,1.2111,1.164,1.0915,0.9599,0.8871,0.7844,0.6117,0.5751,0.5418,0.4752,0.495,0.0,0.0,0.0,0.0,0.805,0.8788,0.9061,0.8804,0.9008,0.9008,0.8811,0.8804,0.8804,0.8804,0.8804,0.8804,0.8804,0.8804,0.8804,0.8804,0.8804,0.8804,0.8804,0.8804,0.8804,0.8804,0.8804,0.8533,0.8049,0.7777,0.7122,0.6195,0.5977,0.5706,0.5638,0.6357,0.6556,0.6498,0.6002,0.6493,0.7564,0.8864,0.9698,1.0174,1.0166,0.9491,0.857,0.7577,0.5909,0.4585,0.4848,0.5944,0.7089,0.7769,0.9236,1.0604,1.1312,1.2217,1.2991,1.3394,1.4326,1.4804,1.4084,1.401,1.395,1.3752,1.2134,1.021,0.8111,0.5144,0.2291,-0.0166,-0.222,-0.3511,-0.368,-0.4181,-0.4015,-0.301,-0.3727,-0.3837,-0.3335,-0.4055,-0.4659,-0.5144,-0.5647,-0.594,-0.6075,-0.6648,-0.6817,1.9284,1.9064,1.8743,1.7402,1.6641,1.5922,1.4743,1.418,1.3496,1.2044,1.1916,1.178,1.0795,1.0444,0.9945,0.8878,0.8006,0.703,0.6044,0.5708,0.5557,0.5417,0.5664,0.6292,0.0,0.0,0.0,0.8779,0.9054,0.9159,0.9159,0.9159,0.9061,0.8811,0.9008,0.9061,0.8804,0.9061,0.9159,0.9159,0.9159,0.9263,0.9517,0.9263,0.9159,0.9159,0.891,0.8804,0.8804,0.8804,0.8533,0.8049,0.7509,0.6745,0.5814,0.5328,0.4897,0.4512,0.4648,0.4692,0.4583,0.3862,0.4078,0.4903,0.6737,0.7258,0.7253,0.7236,0.7991,0.8606,0.7794,0.6687,0.5667,0.5196,0.5909,0.6861,0.748,0.8992,1.0408,1.1077,1.2295,1.3348,1.3777,1.445,1.4624,1.365,1.3027,1.2503,1.2132,1.0864,0.9379,0.7759,0.5242,0.2795,0.0607,-0.1165,-0.2393,-0.2899,-0.34,-0.3231,-0.2232,-0.2707,-0.2709,-0.2232,-0.2651,-0.3154,-0.3602,-0.4438,-0.4858,-0.5024,-0.5843,-0.6387,1.9803,1.9666,1.9353,1.8366,1.7706,1.6741,1.4603,1.4079,1.3444,1.1313,1.0755,1.0409,0.0,0.0,0.847,0.8716,0.7075,0.5977,0.6484,0.5259,0.4584,0.0,0.0,0.0,0.0,0.0,0.0,0.9814,0.0,0.9762,0.9814,0.9814,0.951,0.891,0.951,0.9562,0.891,0.951,0.9865,0.9865,0.9865,1.0167,1.0762,1.0167,0.9865,0.9814,0.9159,0.891,0.891,0.8857,0.8804,0.8639,0.7235,0.6642,0.6426,0.5117,0.4632,0.4525,0.3685,0.3292,0.3121,0.2343,0.2109,0.2373,0.3825,0.4255,0.4258,0.4273,0.6397,0.8132,0.5947,0.6639,0.7476,0.5817,0.5713,0.6055,0.6166,0.788,0.9512,0.9953,1.2036,1.3867,1.4398,1.4363,1.4032,1.3418,1.1855,1.0771,1.0771,0.9563,0.841,0.7606,0.5675,0.3547,0.1278,0.0446,-0.0615,-0.2074,-0.2186,-0.2186,-0.2074,-0.2139,-0.2142,-0.2076,-0.214,-0.214,-0.213,-0.3124,-0.3587,-0.3656,-0.4624,-0.6006,1.9696,1.9666,1.9353,1.8366,1.7706,1.6741,1.4603,1.3773,1.292,1.1038,1.0949,1.0804,0.9491,0.0,0.0,0.8149,0.6772,0.0,0.5965,0.5663,0.0,0.6745,0.0,0.875,0.9489,1.0113,0.0,0.0,0.9917,0.9256,0.9762,0.9814,0.9961,1.0261,1.0466,1.0466,1.0312,1.0466,1.0568,1.0568,1.0568,1.061,1.0813,1.0618,1.0568,1.0517,1.0364,1.0312,1.0261,0.9762,0.9242,0.8646,0.7765,0.7074,0.6534,0.6209,0.6248,0.6262,0.483,0.3519,0.2286,0.1006,0.0558,0.0612,0.1002,0.1166,0.1168,0.1142,0.3643,0.6134,0.5525,0.5709,0.597,0.5481,0.5859,0.6362,0.6544,0.8016,0.9512,1.0236,1.1644,1.3041,1.4014,1.304,1.2158,1.2342,1.1027,1.0064,1.0064,0.9302,0.8296,0.7004,0.5976,0.4232,0.1323,0.0531,-0.03,-0.1321,-0.192,-0.1681,-0.0602,-0.109,-0.1151,-0.0542,-0.109,-0.1393,-0.1381,-0.2903,-0.3623,-0.376,-0.4646,-0.5758,1.9723,1.9723,1.9508,1.9006,1.8066,1.6864,1.5228,1.3777,1.2453,1.1361,1.1012,1.0569,0.9517,0.9225,0.889,0.0,0.0,0.0,0.6426,0.6267,0.6477,0.0,0.8509,0.0,0.9999,1.0769,1.1242,0.0,1.0568,1.0261,1.0661,1.0661,1.0712,1.0813,1.1065,1.1352,1.1524,1.1048,1.1048,1.1524,1.1352,1.1425,1.1742,1.1706,1.1697,1.1697,0.0,1.156,1.149,1.1079,1.0446,0.9622,0.8912,0.8152,0.7437,0.71,0.7125,0.7112,0.5864,0.4574,0.3131,0.1342,0.0404,0.0,0.0,0.0,0.0,0.0,0.2616,0.5398,0.5396,0.5392,0.5427,0.5373,0.5665,0.5963,0.6117,0.7507,0.9186,1.0746,1.1676,1.2454,1.3468,1.2628,1.1742,1.1567,1.0655,0.9932,0.9567,0.8931,0.8221,0.7395,0.6449,0.5093,0.3025,0.2151,0.139,0.0614,0.0121,0.0061,0.0554,0.0187,-0.0062,0.0,-0.0438,-0.0811,-0.117,-0.2551,-0.3472,-0.3908,-0.5186,-0.6298,1.9699,1.9757,1.962,1.9753,1.8478,1.6934,1.5942,1.3847,1.2079,1.188,1.1046,1.0202,0.9744,0.9037,0.8532,0.8587,0.0,0.6537,0.7279,0.6802,0.6771,0.7703,0.8378,0.9095,0.9933,1.0691,1.1124,1.1074,1.1625,1.1913,1.1814,1.1814,1.1566,1.1074,1.1625,1.2182,1.2611,1.1678,1.1704,1.2684,1.2255,1.2419,1.3096,1.2977,1.2966,1.3052,0.0,0.0,1.2819,1.2669,1.2111,1.1279,1.0294,0.9504,0.8838,0.8075,0.7795,0.7698,0.6892,0.6246,0.5301,0.2766,0.1205,0.0296,0.0061,0.0,0.0,0.0,0.2279,0.4675,0.4704,0.5036,0.5376,0.5432,0.5428,0.5428,0.5428,0.6793,0.8661,1.101,1.1586,1.1834,1.2581,1.2354,1.1783,1.0905,1.0584,1.0163,0.9514,0.8807,0.8291,0.8271,0.715,0.6009,0.5147,0.4219,0.3385,0.2733,0.2607,0.2178,0.1307,0.1278,0.0896,0.0,-0.0128,-0.0576,-0.1308,-0.2359,-0.3288,-0.4062,-0.5734,-0.7046,1.9501,1.9474,1.9075,1.9232,1.7925,1.6391,1.5368,1.3383,1.1789,1.1989,1.1583,1.1072,1.0631,1.0716,1.054,0.9708,0.8435,0.7643,0.7792,0.6504,0.6216,0.0,0.8922,0.9813,1.0921,1.2277,0.0,0.0,0.0,1.2452,1.1814,1.1814,1.203,1.252,1.2666,1.2918,1.3343,1.3113,1.3284,1.3801,1.3378,1.3511,1.4128,1.3793,1.3899,1.4387,0.0,0.0,1.4893,1.4184,1.3797,1.3427,1.1487,1.0607,1.0386,0.9608,0.9407,0.9411,0.8265,0.8663,0.8845,0.4078,0.2374,0.1952,0.043,0.0,0.0,0.0,0.0449,0.0964,0.0926,0.3139,0.5376,0.5432,0.5428,0.5428,0.5428,0.6793,0.835,0.9518,1.0288,1.087,1.0989,1.0732,1.0449,1.028,1.0581,1.076,1.0598,0.9652,0.8877,0.8579,0.7804,0.6692,0.5244,0.4391,0.3607,0.277,0.2692,0.2232,0.1321,0.1327,0.0865,0.0,-0.0732,-0.1129,-0.1321,-0.2983,-0.3853,-0.4053,-0.514,-0.6465,1.8741,1.8976,1.9013,1.9407,1.7865,1.6355,1.6547,1.4038,1.2084,1.3619,1.2686,1.1637,1.1809,1.1469,1.0824,0.9757,0.8717,0.8066,0.8118,0.7269,0.7141,0.8472,0.9213,1.0004,1.0938,1.201,0.0,0.0,0.0,1.3084,1.2393,1.2344,1.255,1.2881,1.251,1.2805,1.3828,1.2859,1.3062,1.4473,1.3597,1.3737,1.4847,1.4984,1.5423,1.6103,1.6658,0.0,1.6711,1.6298,1.5563,1.4687,1.3621,1.2439,1.1301,1.0957,1.0573,1.021,0.9681,0.9983,1.0206,0.7646,0.556,0.3971,0.3077,0.2144,0.1178,0.026,0.0,0.0,0.0,0.2673,0.5382,0.5432,0.5428,0.5733,0.6844,0.7678,0.8596,0.9925,1.0523,1.0735,1.0651,1.0441,1.0411,1.0657,1.0916,1.1272,1.1749,1.0912,1.0242,1.003,0.9094,0.7922,0.6698,0.58,0.4931,0.4146,0.4025,0.3359,0.2074,0.2009,0.1409,0.0,-0.0873,-0.1541,-0.2009,-0.3347,-0.4284,-0.4752,-0.5679,-0.6581,1.7967,1.8505,1.9008,1.9409,1.772,1.6227,1.746,1.4649,1.2485,1.5065,1.3725,1.2291,1.3042,1.2209,1.1104,1.0254,0.9263,0.8587,0.8609,0.8114,0.7993,0.8657,0.9214,0.0,1.0712,1.1557,0.0,0.0,0.0,0.0,1.3486,1.3438,1.3429,1.3382,1.2828,1.309,1.4268,1.278,1.2931,1.4676,1.3747,1.3905,1.5049,1.5701,1.6428,1.7278,1.786,0.0,0.0,1.8112,1.7176,1.5773,1.5517,1.4207,1.2437,1.2148,1.1425,1.0615,1.0701,1.084,1.0866,1.0231,0.7916,0.5392,0.5404,0.4426,0.2847,0.0595,0.0,0.0196,0.093,0.3282,0.5396,0.5406,0.541,0.5951,0.7911,0.8309,0.8845,1.0463,1.0903,1.0942,1.0775,1.0695,1.0898,1.1569,1.1715,1.209,1.3,1.233,1.1759,1.1682,1.0263,0.8941,0.8091,0.7035,0.6061,0.515,0.4984,0.4118,0.2474,0.241,0.161,0.0,-0.0873,-0.1742,-0.2678,-0.3547,-0.45,-0.5476,-0.609,-0.658,1.7382,1.8201,1.8793,1.8372,1.6803,1.5584,1.6315,1.4156,1.2673,1.5095,1.4138,1.3219,1.4334,1.3538,1.2648,1.2522,1.1211,0.9987,0.9369,0.8167,0.7633,0.8353,0.0,0.0,1.0661,1.1944,0.0,0.0,0.0,0.0,0.0,1.5274,1.5181,1.4996,1.4904,1.4838,1.4727,1.4567,1.4374,1.4269,1.4516,1.4632,1.46,1.5026,1.5873,1.7132,0.0,0.0,0.0,1.8726,1.812,1.7268,1.6333,1.5374,1.448,1.3223,1.1875,1.0659,1.0981,1.1546,1.1717,0.9092,0.6946,0.5418,0.5321,0.5266,0.44,0.1003,0.0,0.0733,0.4025,0.5179,0.5413,0.5538,0.5569,0.5953,0.717,0.7826,0.8628,0.9949,1.0632,1.1069,1.1309,1.1129,1.1359,1.2602,1.3147,1.3689,1.4568,1.3939,1.3252,1.287,1.069,0.8941,0.8091,0.7158,0.5913,0.4215,0.414,0.327,0.1474,0.1407,0.1007,0.0,-0.0873,-0.1742,-0.2678,-0.3547,-0.4546,-0.5566,-0.5557,-0.6048,1.6983,1.7841,1.8711,1.8129,1.7334,1.6713,1.676,1.5505,1.4709,1.5885,1.471,1.3825,1.5016,1.3998,1.3036,1.3297,1.1927,1.0651,1.0237,0.9058,0.8357,0.8591,0.9068,0.0,0.0,0.0,0.0,0.0,0.0,0.0,0.0,1.6131,1.53,1.5174,1.44,1.4198,1.4775,1.3921,1.3941,1.4932,1.4587,1.4888,1.5721,1.5856,1.6634,1.7813,0.0,0.0,0.0,1.9359,1.8937,1.8483,1.8062,1.6798,1.5178,1.4677,1.3107,1.1281,1.1155,1.1614,1.1948,0.9736,0.8118,0.6776,0.5659,0.5362,0.5106,0.3685,0.3529,0.4044,0.5135,0.5514,0.5634,0.58,0.6275,0.6978,0.8221,0.9139,0.9932,1.0955,1.1388,1.1496,1.1436,1.1329,1.156,1.2631,1.2928,1.355,1.496,1.3932,1.3241,1.3613,1.1503,0.9524,0.8091,0.7697,0.6515,0.4146,0.4015,0.3211,0.1407,0.1273,0.088,0.0,-0.0826,-0.1786,-0.2677,-0.3628,-0.463,-0.5589,-0.5528,-0.5867,1.63,1.7019,1.7798,1.6732,1.657,1.6583,1.6225,1.5797,1.5628,1.6144,1.511,1.4473,1.5652,1.4586,1.3654,1.4174,1.2775,1.1512,1.1191,1.0188,0.9358,0.9036,0.0,0.0,0.0,0.0,0.0,0.0,0.0,0.0,0.0,1.6782,1.5701,1.5902,1.4865,1.46,1.5166,1.4154,1.4182,1.5241,1.4812,1.4972,1.5853,1.6226,1.6974,1.7969,0.0,0.0,0.0,1.9494,1.9148,1.8704,1.8857,1.7719,1.5984,1.5561,1.4371,1.2848,1.1785,1.1563,1.1464,0.9997,0.8771,0.7575,0.6043,0.5566,0.5494,0.5528,0.5844,0.6091,0.5675,0.5648,0.5789,0.5969,0.6452,0.7385,0.8985,0.9712,1.0437,1.1762,1.1924,1.183,1.1703,1.161,1.1861,1.2851,1.2922,1.3382,1.4901,1.3779,1.3089,1.3643,1.1963,1.0114,0.826,0.7531,0.6179,0.3744,0.3347,0.2487,0.0951,0.0883,0.062,0.0,-0.0637,-0.1343,-0.226,-0.302,-0.4042,-0.5287,-0.5246,-0.5499,1.5248,1.5561,1.5797,1.3587,1.3812,1.442,1.4013,1.4227,1.4756,1.5547,1.524,1.5145,1.628,1.5511,1.4869,1.5499,1.4021,1.2655,1.2325,1.1447,1.0431,0.0,0.0,0.0,0.0,0.0,0.0,0.0,0.0,0.0,0.0,1.7291,1.68,1.7556,1.7316,1.6806,1.6105,1.6045,1.567,1.4923,1.525,1.4991,1.4282,1.5549,1.6538,0.0,0.0,0.0,0.0,1.891,1.8501,1.7843,1.8301,1.8049,1.7214,1.5722,1.5583,1.5713,1.3158,1.1424,1.0179,0.9389,0.8368,0.731,0.6277,0.5868,0.5698,0.5783,0.5927,0.6036,0.6022,0.5871,0.5837,0.5993,0.6027,0.6589,0.8798,0.9035,0.9515,1.1864,1.2064,1.1957,1.2245,1.2051,1.2315,1.3541,1.3461,1.3592,1.4405,1.38,1.314,1.2751,1.1894,1.0604,0.8576,0.6543,0.4596,0.2809,0.1876,0.0951,0.007,0.0,0.0,0.0,0.0,-0.0437,-0.1308,-0.1308,-0.2425,-0.451,-0.433,-0.4857,1.737,1.7519,1.7741,1.6626,1.6619,1.6647,1.5753,1.5916,1.627,1.6241,1.5087,1.4598,1.6213,1.5227,1.4484,1.544,1.444,1.3328,0.0,0.0,0.0,1.0464,1.1285,0.0,0.0,0.0,0.0,0.0,0.0,0.0,0.0,1.7034,1.6595,1.681,1.6284,1.5851,1.5615,1.5615,1.5497,1.525,1.5352,1.5449,1.5489,1.5936,0.0,0.0,0.0,0.0,0.0,1.828,1.8288,1.8365,1.8835,1.8507,1.7687,1.66,1.5896,1.5143,1.2954,1.1531,1.0364,0.8736,0.7992,0.7509,0.637,0.5884,0.5741,0.603,0.6501,0.6925,0.717,0.7064,0.7016,0.7199,0.7243,0.7631,0.8978,0.9756,1.0609,1.2057,1.2225,1.2191,1.2285,1.2225,1.2264,1.2718,1.323,1.366,1.3938,1.3731,1.3551,1.3383,1.1242,0.9406,0.8456,0.7236,0.5428,0.2893,0.1824,0.0926,0.0072,0.0,0.0,0.0,0.0,-0.0448,-0.1269,-0.1443,-0.2511,-0.4517,-0.4561,-0.5092,1.8229,1.7838,1.7625,1.6676,1.678,1.6829,1.5736,1.6203,1.6811,1.6542,1.562,1.5231,1.657,1.5929,1.5367,1.586,1.5314,0.0,0.0,0.0,0.0,1.2327,0.0,0.0,0.0,0.0,0.0,0.0,0.0,0.0,0.0,0.0,1.5511,1.5603,1.537,1.5229,1.5229,1.5229,1.5348,1.5654,1.5488,1.5644,1.6135,1.624,0.0,0.0,0.0,0.0,0.0,1.7769,1.7933,1.8219,1.8614,1.824,1.7364,1.6428,1.5438,1.4371,1.2764,1.1372,1.004,0.8765,0.8084,0.7685,0.6893,0.6519,0.6423,0.6746,0.7497,0.8249,0.8435,0.8403,0.8263,0.8009,0.791,0.8008,0.8618,0.9216,0.9965,1.0944,1.1471,1.1694,1.1694,1.2077,1.2305,1.2305,1.3098,1.36,1.3244,1.3455,1.3528,1.3237,1.1077,0.944,0.8713,0.6726,0.4722,0.2905,0.1571,0.0579,0.0,0.0,0.0,0.0,0.0,-0.023,-0.0843,-0.1323,-0.2406,-0.3969,-0.4498,-0.5192,0.0,1.6983,1.6102,1.4659,1.5025,1.548,1.451,1.5404,0.0,1.6507,1.6424,1.6539,1.7146,1.7229,1.7063,1.6509,1.6416,0.0,0.0,1.4508,0.0,0.0,0.0,0.0,0.0,0.0,0.0,0.0,0.0,0.0,0.0,0.0,1.3856,1.3972,1.438,1.4639,1.4763,1.4763,1.5142,1.5885,1.5487,1.5576,1.6013,1.6471,0.0,0.0,0.0,0.0,0.0,1.7373,1.7317,1.7214,1.7707,1.7354,1.6498,1.5438,1.4522,1.3673,1.2586,1.095,0.9372,0.9296,0.8694,0.7936,0.7949,0.7828,0.772,0.7973,0.8923,0.986,0.9933,0.9844,0.9526,0.8523,0.8069,0.7787,0.7799,0.7791,0.8084,0.9069,1.004,1.0714,1.0812,1.1577,1.2257,1.2331,1.3127,1.3419,1.2479,1.3127,1.3346,1.2405,1.1347,1.0267,0.9223,0.5365,0.2989,0.2913,0.1073,0.0,0.0,0.0,0.0,0.0,0.0,0.0,0.0,-0.102,-0.2035,-0.3046,-0.4062,-0.5157,1.986,0.0,1.792,1.7279,1.6633,1.614,0.0,1.5868,1.5959,1.6418,1.578,1.5421,1.6497,1.6642,1.6434,1.5896,0.0,0.0,1.5274,0.0,0.0,0.0,0.0,0.0,0.0,0.0,0.0,0.0,0.0,0.0,0.0,0.0,1.3252,1.2039,1.1866,1.2386,1.3439,1.3439,1.3561,1.3744,1.4258,1.4731,1.5198,1.6263,0.0,0.0,0.0,0.0,1.5891,1.6965,1.6551,1.5274,1.6482,1.6784,1.6419,1.4665,1.4386,1.4514,1.2037,1.0864,1.034,0.9523,0.9145,0.8951,0.9189,0.9199,0.9391,1.033,1.0721,1.1028,1.191,1.1386,1.0318,0.9418,0.8453,0.7821,0.7956,0.7876,0.8084,0.9069,0.9523,0.9954,1.0906,1.133,1.1719,1.2563,1.3461,1.3754,1.279,1.3536,1.3754,1.279,1.1012,0.976,0.9311,0.6112,0.3793,0.292,0.1062,0.0,0.0,0.0,0.0,0.0,0.0,0.0,0.0,-0.0235,-0.0941,-0.1957,-0.2969,-0.4062,2.0748,1.9882,1.8989,1.8551,1.7974,1.738,1.6957,1.66,1.6459,1.6782,1.6126,1.5776,1.6697,1.6788,1.6699,0.0,1.6927,0.0,0.0,0.0,0.0,0.0,0.0,0.0,0.0,0.0,0.0,0.0,0.0,0.0,0.0,0.0,1.2889,1.2098,1.0624,1.0371,1.1531,1.1999,1.2258,1.2294,1.3211,1.3865,1.4372,1.5605,0.0,0.0,0.0,0.0,1.5608,1.59,1.5443,1.4583,1.5574,1.5649,1.5155,1.4099,1.3738,1.3658,1.205,1.1168,1.0708,1.0093,1.0243,1.0669,1.1071,1.1914,1.2628,1.2376,1.303,1.3945,1.455,1.3817,1.2583,1.1696,1.0048,0.8681,0.823,0.7705,0.7486,0.8032,0.8501,0.9006,0.9672,1.0174,1.0886,1.1992,1.2479,1.2579,1.2285,1.2472,1.2298,1.1408,0.9849,0.8668,0.7918,0.5428,0.3639,0.3067,0.1078,0.0,0.0,0.0,0.0,0.0,0.0,0.0,0.0,0.0,-0.0549,-0.1646,-0.2657,-0.3669,2.1181,2.0403,1.954,1.9126,1.8919,1.8636,1.7746,1.745,1.7381,1.7299,1.6879,1.6655,1.7083,1.7259,0.0,0.0,0.0,0.0,0.0,0.0,0.0,0.0,0.0,0.0,0.0,0.0,0.0,0.0,0.0,0.0,0.0,0.0,0.0,1.2647,1.0055,0.8895,0.9367,1.0251,1.0775,1.096,1.2069,1.2816,1.3219,1.462,0.0,0.0,0.0,0.0,1.5512,1.4898,1.4425,1.4242,1.4757,1.445,1.3673,1.3528,1.3098,1.2519,1.2378,1.1768,1.1013,1.1013,1.162,1.2439,1.3079,1.4675,1.6005,1.455,1.5529,1.6929,1.7086,1.6347,1.5135,1.3932,1.1861,0.9857,0.8682,0.7529,0.6702,0.6702,0.7353,0.8012,0.8201,0.9023,0.9917,1.088,1.075,1.06,1.0756,1.0417,0.9954,0.9168,0.8145,0.7111,0.6063,0.4048,0.289,0.289,0.1076,0.0,0.0,0.0,0.0,0.0,0.0,0.0,0.0,0.0,-0.0471,-0.1411,-0.2579,-0.3593,2.1521,2.0496,1.9433,1.9486,1.906,1.8638,1.8564,1.8218,1.7799,1.7368,1.6879,1.6498,1.6439,1.7598,1.8393,0.0,0.0,0.0,0.0,0.0,0.0,0.0,0.0,0.0,0.0,0.0,0.0,0.0,0.0,0.0,0.0,0.0,0.0,1.105,0.9563,0.8391,0.7529,0.788,0.8154,0.8276,0.9966,1.0953,1.1386,1.337,1.448,0.0,0.0,1.4798,1.4086,1.4798,1.4086,1.2736,1.3578,1.3818,1.36,1.2806,1.2952,1.3382,1.2592,1.2224,1.2109,1.2352,1.2589,1.2995,1.4481,1.5787,1.6983,1.7856,1.7525,1.7086,1.8035,1.7243,1.5753,1.3957,1.2413,1.0842,0.902,0.7613,0.6702,0.6702,0.6864,0.7315,0.8455,0.8729,0.8884,0.8835,0.8796,0.8446,0.7457,0.7268,0.7199,0.7071,0.6175,0.5359,0.4897,0.2961,0.1802,0.1802,0.0704,0.0,0.0,0.0,0.0,0.0,0.0,0.0,0.0,0.0,-0.0079,-0.0314,-0.2189,-0.3202,2.1915,2.1226,2.0382,1.9672,1.8935,1.8273,1.7855,1.789,1.7898,1.756,1.7487,1.7377,1.7068,0.0,1.8611,1.8326,0.0,0.0,0.0,0.0,0.0,0.0,0.0,0.0,0.0,0.0,0.0,0.0,0.0,0.0,0.0,0.0,0.0,0.0,0.9824,0.8423,0.7201,0.6779,0.6698,0.6899,0.8359,0.918,0.9487,1.1759,1.2825,1.3083,0.0,1.4099,1.3665,1.3055,1.2325,1.1539,1.197,1.2117,1.2137,1.2472,1.2839,1.3227,1.3464,1.3237,1.2889,1.3551,1.374,1.405,1.5685,1.6859,1.796,1.9478,1.9372,1.8981,1.9552,1.83,1.6531,1.5021,1.282,1.0643,0.9163,0.7842,0.6939,0.6939,0.6417,0.6174,0.6834,0.6402,0.6127,0.6621,0.6135,0.5775,0.5912,0.5271,0.4855,0.4831,0.4414,0.385,0.3051,0.2111,0.1333,0.0784,0.0235,0.0,0.0,0.0,0.0,0.0,0.0,0.0,0.0,0.0,-0.0314,-0.0863,-0.2423,-0.3435,2.2514,2.2024,2.1284,1.9977,1.9333,1.8654,1.7404,1.7775,1.8296,1.7917,1.7879,1.791,0.0,1.8377,0.0,1.9189,0.0,0.0,0.0,0.0,0.0,0.0,0.0,0.0,0.0,0.0,0.0,0.0,0.0,0.0,0.0,0.0,0.0,0.0,1.0387,0.9015,0.8012,0.6787,0.6087,0.5929,0.7089,0.7766,0.8035,1.0009,1.1032,1.1242,1.2494,1.2858,1.2558,1.1304,1.064,1.049,1.0708,1.0974,1.1358,1.2424,1.2869,1.304,1.3959,1.3817,1.3292,1.4123,1.4381,1.4668,1.6158,1.7142,1.8005,1.9418,1.965,1.958,2.0194,1.8594,1.6659,1.553,1.2893,1.025,0.9148,0.7929,0.7051,0.6782,0.5983,0.527,0.5001,0.4196,0.3833,0.4353,0.3692,0.3243,0.3992,0.3152,0.2492,0.252,0.2587,0.2216,0.1269,0.1258,0.0865,0.0079,0.0,0.0,0.0,0.0,0.0,0.0,0.0,-0.0157,-0.0392,-0.0392,-0.0941,-0.1958,-0.3066,-0.3938,2.3408,2.2646,2.164,2.0663,2.0884,2.0714,1.8275,1.8683,1.9374,1.8654,1.7622,1.7185,0.0,1.8979,1.9685,0.0,0.0,0.0,0.0,0.0,0.0,0.0,0.0,0.0,0.0,0.0,0.0,0.0,0.0,0.0,0.0,0.0,0.0,0.0,0.0,1.0199,1.0067,0.8304,0.6657,0.5174,0.6077,0.6724,0.7227,0.8314,0.8953,0.9332,1.0524,1.0484,0.9669,1.049,1.0265,0.9523,1.0415,1.1546,1.2636,1.2739,1.2926,1.318,1.3279,1.3286,1.3253,1.3601,1.3689,1.3899,1.5323,1.5823,1.616,1.7245,1.6782,1.6487,1.8883,1.7597,1.5501,1.4644,1.2422,1.0206,0.9139,0.7929,0.6786,0.5714,0.5447,0.5001,0.3927,0.3659,0.3215,0.2235,0.1966,0.152,0.0538,0.0264,0.0259,0.0253,0.0248,0.0244,0.0162,0.008,0.0079,0.0,0.0,0.0,0.0,0.0,0.0,0.0,0.0,-0.0471,-0.1489,-0.1489,-0.2035,-0.3047,-0.4236,-0.4846,2.3603,2.3053,2.22,2.1089,2.1324,2.1148,1.8426,1.8873,1.9745,1.9201,1.9088,1.9186,0.0,0.0,1.8548,0.0,0.0,0.0,0.0,0.0,0.0,0.0,0.0,0.0,0.0,0.0,0.0,0.0,0.0,0.0,0.0,0.0,0.0,0.0,0.0,1.1052,0.9773,0.9294,0.8359,0.6874,0.6108,0.5911,0.6207,0.7272,0.7888,0.8162,0.934,0.9669,0.9296,0.9064,0.9064,0.9372,1.0415,1.1633,1.2919,1.3705,1.4216,1.4518,1.4712,1.4777,1.4671,1.425,1.4188,1.4235,1.4815,1.5064,1.5043,1.5326,1.4572,1.4168,1.6464,1.5245,1.3264,1.2186,1.0707,0.9209,0.8009,0.7404,0.6962,0.6517,0.5891,0.5001,0.3838,0.2948,0.2057,0.0897,0.0718,0.0539,0.009,0.0,0.0,0.0,0.0,0.0,0.0,0.0,0.0,0.0,0.0,0.0,0.0,0.0,0.0,0.0,0.0,-0.0549,-0.1568,-0.1669,-0.2559,-0.4234,-0.5546,-0.6502,2.3474,2.3088,2.2369,2.136,2.1667,2.1612,1.9178,1.9597,2.0264,1.9422,1.9881,2.0319,1.9857,0.0,0.0,0.0,0.0,0.0,0.0,0.0,0.0,0.0,0.0,0.0,0.0,0.0,0.0,0.0,0.0,0.0,0.0,0.0,0.0,0.0,0.0,0.0,1.0732,1.0334,0.9724,0.8784,0.6789,0.5903,0.6,0.6573,0.6885,0.7064,0.8298,0.8613,0.8318,0.8381,0.9058,1.0116,1.1081,1.2335,1.3733,1.5017,1.5472,1.5493,1.5741,1.5609,1.5254,1.4817,1.4386,1.4046,1.411,1.3783,1.3501,1.3357,1.2377,1.174,1.3188,1.2357,1.1,1.0299,0.9165,0.8105,0.7316,0.7139,0.6962,0.6605,0.5622,0.4463,0.3215,0.2057,0.0986,0.009,0.0359,0.0537,0.0534,0.0872,0.1114,0.1107,0.1091,0.0905,0.0563,0.0566,0.0404,0.0,0.0,0.0,0.0,0.0,0.0,0.0,-0.0397,-0.1114,-0.2162,-0.26,-0.3761,-0.5485,-0.6836,-0.782,2.3108,2.2757,2.2069,2.1461,2.2062,2.2371,2.0778,2.1025,2.1096,1.9281,1.9657,1.9977,1.8925,1.9241,0.0,0.0,0.0,0.0,0.0,0.0,0.0,0.0,0.0,0.0,0.0,0.0,0.0,0.0,0.0,0.0,0.0,0.0,0.0,0.0,0.0,0.0,1.3561,1.1563,1.0481,1.0481,0.7936,0.6817,0.6873,0.6153,0.5884,0.6034,0.7247,0.7253,0.6504,0.876,1.0475,1.1786,1.2569,1.3903,1.545,1.6537,1.6445,1.5748,1.5985,1.5433,1.4569,1.487,1.4128,1.3018,1.3024,1.2102,1.1094,1.1089,1.0117,0.9112,0.9204,0.9079,0.8941,0.9212,0.8135,0.7139,0.7139,0.7139,0.6782,0.5625,0.4463,0.3304,0.2057,0.0807,0.009,0.0,0.1076,0.1776,0.165,0.2635,0.3406,0.3408,0.332,0.2862,0.1924,0.1807,0.1299,0.0081,0.0,0.0,0.0,0.0,0.0,0.0,-0.1217,-0.2294,-0.3435,-0.4518,-0.569,-0.6705,-0.8106,-0.8692,2.3529,2.2844,2.2126,2.2428,2.2282,2.1844,2.0962,2.115,2.1379,2.0904,2.0668,2.0473,2.0335,0.0,0.0,0.0,0.0,0.0,0.0,0.0,0.0,0.0,0.0,0.0,0.0,0.0,0.0,0.0,0.0,0.0,0.0,0.0,0.0,0.0,0.0,0.0,1.2699,1.2134,1.1533,1.0931,0.9283,0.7932,0.6747,0.6098,0.5827,0.5881,0.6522,0.6627,0.6655,0.888,1.0491,1.1642,1.3481,1.5118,1.6545,1.7648,1.7497,1.6862,1.6884,1.6331,1.5569,1.5123,1.4254,1.313,1.2457,1.136,1.0118,0.9154,0.8557,0.8131,0.8074,0.7996,0.7854,0.7989,0.7517,0.7139,0.7139,0.7753,0.8013,0.6868,0.7034,0.6672,0.4641,0.402,0.3486,0.2681,0.2858,0.2998,0.2806,0.3195,0.3523,0.3421,0.3461,0.301,0.1932,0.1776,0.1268,0.0083,-0.0832,-0.0899,0.0,0.0,0.0,0.0,-0.1154,-0.2331,-0.3435,-0.4676,-0.5826,-0.6865,-0.8209,-0.8806,2.199,2.1455,2.1083,2.1432,2.1418,2.115,2.0688,0.0,0.0,0.0,2.0512,2.027,2.0143,0.0,0.0,0.0,0.0,0.0,0.0,0.0,0.0,0.0,0.0,0.0,0.0,0.0,0.0,0.0,0.0,0.0,0.0,0.0,0.0,0.0,0.0,0.0,1.252,1.2468,1.2075,1.1352,0.9945,0.8603,0.7242,0.6596,0.6334,0.6408,0.6364,0.65,0.6796,0.8513,1.0191,1.1988,1.4123,1.5795,1.7234,1.8743,1.8504,1.7277,1.7425,1.6614,1.5425,1.5266,1.433,1.3101,1.2125,1.089,0.9501,0.822,0.7797,0.7645,0.7675,0.7852,0.7904,0.7368,0.756,0.7841,0.7841,0.8364,0.8715,0.7929,0.7658,0.7037,0.5625,0.5001,0.4463,0.3748,0.3546,0.3758,0.4598,0.4394,0.4304,0.4755,0.4392,0.3751,0.2639,0.2064,0.1117,-0.0589,-0.1438,-0.1672,-0.1452,-0.1407,-0.1425,-0.1418,-0.2615,-0.3578,-0.4212,-0.5483,-0.6396,-0.7014,-0.8321,-0.889,1.9555,1.9392,1.9456,1.9396,1.9937,0.0,2.0156,2.0321,2.034,1.9667,0.0,1.9723,1.9081,0.0,0.0,0.0,0.0,0.0,0.0,0.0,0.0,0.0,0.0,0.0,0.0,0.0,0.0,0.0,0.0,0.0,0.0,0.0,0.0,0.0,0.0,0.0,1.2806,1.251,1.2115,0.0,1.0129,0.9012,0.8305,0.7482,0.7114,0.7162,0.6592,0.6539,0.6951,0.7851,0.98,1.2475,1.436,1.6012,1.7585,1.9678,1.9027,1.7221,1.7639,1.6352,1.4609,1.5144,1.4305,1.2877,1.1984,1.0594,0.9194,0.8133,0.7691,0.7632,0.7706,0.8291,0.8472,0.7492,0.8189,0.9061,0.889,0.9061,0.9148,0.8803,0.72,0.5786,0.5622,0.4634,0.3918,0.3926,0.369,0.4251,0.6494,0.5625,0.5262,0.6481,0.5631,0.451,0.3563,0.2346,0.0689,-0.1689,-0.1977,-0.2583,-0.3712,-0.3624,-0.3572,-0.3637,-0.4769,-0.5431,-0.5359,-0.6517,-0.7139,-0.7139,-0.8189,-0.8715,2.0912,2.0146,0.0,1.9864,2.0101,2.0174,2.0174,2.0483,2.0686,2.0547,2.0391,2.0246,0.0,0.0,0.0,0.0,0.0,0.0,0.0,0.0,0.0,0.0,0.0,0.0,0.0,0.0,0.0,0.0,0.0,0.0,0.0,0.0,0.0,0.0,0.0,1.2691,1.2025,1.1906,1.1557,0.0,1.0506,0.9922,0.9176,0.7757,0.6899,0.6451,0.5699,0.5794,0.6541,0.811,0.9961,1.2097,1.3625,1.5502,1.7504,1.8877,1.7971,1.6198,1.7098,1.6156,1.4543,1.4663,1.3906,1.2842,1.1702,1.1037,1.0269,0.8193,0.8243,0.8629,0.7752,0.7576,0.7825,0.84,0.9405,1.0009,0.9061,1.0269,1.0778,0.8009,0.8496,0.8777,0.7024,0.643,0.6222,0.6319,0.5513,0.5114,0.5459,0.4544,0.3946,0.4161,0.4039,0.3459,0.2311,0.1063,-0.0265,-0.1678,-0.3541,-0.478,-0.5024,-0.4138,-0.3592,-0.3639,-0.4752,-0.5422,-0.5359,-0.6517,-0.7139,-0.7139,-0.7404,-0.7489,1.9314,1.9243,0.0,1.9752,0.0,1.9735,1.9769,1.9938,2.0082,2.0081,2.0073,0.0,0.0,0.0,0.0,0.0,0.0,0.0,0.0,0.0,0.0,0.0,0.0,0.0,0.0,0.0,0.0,0.0,0.0,0.0,0.0,0.0,0.0,0.0,1.3065,1.271,1.2339,1.1923,1.1565,1.1204,1.0388,0.9396,0.8319,0.7036,0.5563,0.4077,0.4188,0.4543,0.52,0.7182,0.919,1.1246,1.3214,1.4986,1.646,1.776,1.7172,1.5786,1.6355,1.558,1.4335,1.4476,1.408,1.3215,1.1722,1.1399,1.1064,0.8287,0.8702,0.9705,0.8536,0.9003,0.9874,1.0376,1.0524,1.0438,0.9836,1.0611,1.0747,0.8336,0.8398,0.8394,0.7208,0.7034,0.6792,0.6328,0.5265,0.4532,0.4395,0.3459,0.2936,0.3431,0.3018,0.2503,0.1879,0.0179,-0.1339,-0.2591,-0.4376,-0.5625,-0.616,-0.562,-0.5237,-0.5272,-0.6471,-0.6776,-0.6248,-0.6782,-0.7139,-0.7139,-0.7139,-0.7139,1.7472,1.8048,1.9489,1.9125,1.9039,0.0,1.9253,1.9305,1.9305,1.9305,0.0,0.0,0.0,0.0,0.0,0.0,0.0,0.0,0.0,0.0,0.0,0.0,0.0,0.0,0.0,0.0,0.0,0.0,0.0,0.0,0.0,0.0,1.4179,1.3956,1.3372,1.2984,1.286,1.2045,1.1628,1.1608,0.9894,0.8369,0.7003,0.6002,0.4339,0.2198,0.3028,0.3573,0.3987,0.6411,0.852,1.0413,1.2769,1.4269,1.5256,1.6742,1.6601,1.5703,1.5944,1.5304,1.4368,1.4455,1.4282,1.3783,1.1888,1.1891,1.194,0.8804,0.935,1.0651,0.9598,1.0654,1.2066,1.2237,1.1552,1.0869,1.0611,1.0752,1.0338,0.876,0.7744,0.7095,0.6953,0.7048,0.6694,0.5536,0.4374,0.3481,0.3303,0.2236,0.1879,0.2858,0.2057,0.1522,0.1522,-0.0715,-0.2503,-0.357,-0.491,-0.616,-0.7051,-0.7316,-0.7404,-0.7404,-0.8193,-0.8193,-0.7404,-0.7404,-0.7489,-0.7661,-0.7661,-0.7661,1.8923,0.0,1.7573,0.0,1.7996,1.8224,0.0,0.0,1.9305,0.0,0.0,0.0,0.0,0.0,0.0,0.0,0.0,0.0,0.0,0.0,0.0,0.0,0.0,0.0,0.0,0.0,0.0,0.0,0.0,0.0,0.0,1.612,1.5596,1.4606,1.4003,1.3392,1.2802,1.1835,1.1209,1.082,0.9122,0.782,0.6824,0.5338,0.45,0.4226,0.3618,0.3778,0.4755,0.7416,0.9196,1.0366,1.1882,1.3256,1.4518,1.6593,1.6601,1.5861,1.6764,1.6355,1.5304,1.4453,1.4122,1.3828,1.2546,1.2973,1.3307,1.0906,1.1063,1.1821,1.0733,1.0631,1.1037,1.2072,1.2151,1.1809,1.0783,1.1313,1.0963,0.7952,0.7214,0.7095,0.6953,0.7048,0.6694,0.5536,0.4374,0.3215,0.2147,0.0986,0.0269,0.0449,0.0359,0.0269,0.0269,-0.1968,-0.3392,-0.357,-0.562,-0.6962,-0.7051,-0.8105,-0.8627,-0.8627,-0.7753,-0.7753,-0.8627,-0.8627,-0.9144,-1.0091,-1.0091,-1.0091,1.9164,1.7872,1.6858,0.0,1.7724,1.8003,1.8732,0.0,1.8727,0.0,0.0,0.0,0.0,0.0,0.0,0.0,0.0,0.0,0.0,0.0,0.0,0.0,0.0,0.0,0.0,0.0,0.0,0.0,0.0,0.0,1.8145,1.7504,1.6814,1.6052,1.5182,1.4581,1.4211,1.2998,1.1651,1.0175,0.9731,0.8596,0.6915,0.562,0.4582,0.3754,0.3363,0.4097,0.5814,0.762,0.9442,1.1117,1.3199,1.4282,1.4981,1.67,1.7009,1.6683,1.7172,1.7009,1.6519,1.6041,1.5876,1.5538,1.3833,1.4099,1.4371,1.1466,1.1906,1.3033,1.1901,1.2077,1.2693,1.3209,1.3294,1.2772,1.0956,1.0963,1.0409,0.765,0.7078,0.7027,0.7044,0.6568,0.5711,0.4552,0.3395,0.2147,0.0986,0.0359,0.0,0.0,0.0,0.0,0.0,-0.1612,-0.2592,-0.2592,-0.4819,-0.616,-0.616,-0.7921,-0.889,-0.889,-0.8969,-0.9314,-0.9836,-0.9836,-1.0091,-1.0611,-1.0611,-1.0611,0.0,0.0,1.6963,1.7306,1.7523,1.7697,0.0,0.0,0.0,0.0,0.0,0.0,0.0,0.0,0.0,0.0,0.0,0.0,0.0,0.0,0.0,0.0,0.0,0.0,0.0,0.0,0.0,0.0,0.0,0.0,1.987,1.9007,1.8309,1.7827,1.6692,1.6032,1.596,1.4524,1.2886,1.1064,1.1092,1.018,0.8546,0.7159,0.5923,0.4849,0.4191,0.4793,0.6465,0.8213,1.0178,1.2203,1.4266,1.5374,1.5785,1.6995,1.7447,1.7506,1.7414,1.7586,1.7649,1.7307,1.726,1.7001,1.5321,1.5418,1.5516,1.2729,1.3184,1.423,1.3021,1.347,1.4088,1.4088,1.4088,1.3457,1.1054,1.0139,0.9209,0.7351,0.7031,0.7017,0.7122,0.616,0.4999,0.3748,0.2592,0.1344,0.018,0.0,0.0,0.0,0.0,0.0,0.0,-0.1079,-0.179,-0.179,-0.4109,-0.5371,-0.5492,-0.7676,-0.9087,-0.9393,-1.0467,-1.1037,-1.1037,-1.1037,-1.1214,-1.1477,-1.1477,-1.1477,0.0,1.8808,0.0,1.7311,1.7141,1.7025,0.0,0.0,0.0,0.0,0.0,0.0,0.0,0.0,0.0,0.0,0.0,0.0,0.0,0.0,0.0,0.0,0.0,0.0,0.0,0.0,0.0,0.0,0.0,0.0,2.1046,2.0717,2.0286,1.9777,1.8393,1.766,1.7687,1.6266,1.5236,1.4505,1.3275,1.2679,1.2585,1.0267,0.9388,0.958,0.7127,0.614,0.6458,0.9679,1.1871,1.3335,1.4258,1.5475,1.6731,1.7427,1.7921,1.8181,1.7814,1.8258,1.8656,1.7237,1.6965,1.7261,1.7172,1.7172,1.7009,1.5771,1.553,1.5379,1.4328,1.4082,1.4088,1.4088,1.4088,1.34,1.0926,0.8751,0.7186,0.6966,0.7041,0.7132,0.7139,0.616,0.4999,0.3748,0.2592,0.1344,0.018,0.0,0.0,0.0,0.0,0.0,0.0,-0.1087,-0.179,-0.179,-0.4109,-0.5497,-0.5608,-0.7738,-0.9499,-1.0662,-1.1673,-1.2242,-1.2242,-1.2242,-1.2772,-1.3913,-1.3913,-1.3913,0.0,0.0,0.0,1.8381,1.8031,1.7841,1.7966,0.0,0.0,0.0,0.0,0.0,0.0,0.0,0.0,0.0,0.0,0.0,0.0,0.0,0.0,0.0,0.0,0.0,0.0,0.0,0.0,0.0,0.0,0.0,2.2669,2.2306,2.1796,2.1134,2.0337,1.9811,1.9622,1.9148,1.8446,1.7496,1.6624,1.5298,1.3585,1.2287,1.1293,1.0559,1.0533,1.003,0.9256,1.1085,1.2654,1.4008,1.5666,1.673,1.7427,1.836,1.9012,1.9269,1.9127,1.9526,1.9972,1.9412,1.9127,1.8935,1.8479,1.8215,1.7751,1.6944,1.6118,1.5353,1.5162,1.4428,1.3848,1.4041,1.2954,1.1627,1.068,0.8744,0.7126,0.7075,0.7105,0.6874,0.616,0.4999,0.3838,0.2592,0.1448,0.0455,0.009,0.0,0.0,0.0,0.0,0.0,0.0,-0.0361,-0.0628,-0.0628,-0.2949,-0.4297,-0.4332,-0.7925,-1.0217,-1.0639,-1.2478,-1.347,-1.347,-1.347,-1.3646,-1.4088,-1.4088,-1.4088,2.0357,0.0,0.0,0.0,1.8916,1.8456,1.8,0.0,0.0,0.0,0.0,0.0,0.0,0.0,0.0,0.0,0.0,0.0,0.0,0.0,0.0,0.0,0.0,0.0,0.0,0.0,0.0,0.0,0.0,0.0,2.3971,2.3587,2.3017,2.2295,2.1961,2.1765,2.1678,2.1647,2.1334,2.0712,1.9847,1.8291,1.6115,1.502,1.3855,1.2863,1.3589,1.2974,1.1655,1.2774,1.3968,1.5331,1.6517,1.7576,1.8499,1.909,1.9747,2.0298,2.0155,2.0366,2.0542,2.0392,2.0029,1.9606,1.9191,1.884,1.8455,1.7692,1.6797,1.6039,1.5862,1.4977,1.4029,1.3568,1.1997,1.0524,1.0091,0.8444,0.7139,0.7139,0.6786,0.6251,0.5536,0.4374,0.3312,0.2617,0.1373,0.0646,0.0642,0.0278,0.0,0.0,0.0,0.0,0.0,0.0,0.0,0.0,-0.1912,-0.3191,-0.3646,-0.7368,-0.9828,-1.0634,-1.2558,-1.373,-1.4088,-1.4088,-1.4088,-1.4088,-1.4088,-1.4135,0.0,0.0,0.0,0.0,0.0,0.0,1.6526,0.0,0.0,0.0,0.0,0.0,0.0,0.0,0.0,0.0,0.0,0.0,0.0,0.0,0.0,0.0,0.0,0.0,0.0,0.0,0.0,0.0,0.0,2.4814,2.4814,2.4507,2.3988,2.3268,2.3247,2.3445,2.3848,2.367,2.3816,2.4191,2.2742,2.1507,2.0404,1.8394,1.7224,1.6898,1.6009,1.4718,1.3286,1.4676,1.5996,1.7108,1.6851,1.8036,1.9839,1.9456,2.0115,2.1174,2.077,2.0584,2.0529,2.008,1.9616,1.9268,1.9287,1.9287,1.9068,1.8026,1.7728,1.7486,1.6244,1.5521,1.4653,1.2771,1.1466,1.0351,0.9235,0.8017,0.7139,0.7139,0.616,0.5359,0.5359,0.4374,0.3595,0.3673,0.2584,0.1769,0.1899,0.0762,0.0,0.0,0.0,0.0092,0.0092,0.0092,0.0092,0.0093,-0.1035,-0.2374,-0.37,-0.5923,-0.8211,-1.0672,-1.1766,-1.2857,-1.4004,-1.4004,-1.4088,-1.4088,-1.4088,-1.4242,2.2762,0.0,0.0,0.0,0.0,0.0,1.9036,1.8767,0.0,0.0,0.0,0.0,0.0,0.0,0.0,0.0,0.0,0.0,0.0,0.0,0.0,0.0,0.0,0.0,0.0,0.0,0.0,0.0,2.4962,2.5244,2.51,2.4832,2.4571,2.4365,2.4361,2.4613,2.5175,2.5416,2.5235,2.4608,2.3719,2.2275,2.0295,1.8963,1.7981,1.739,1.7518,1.7263,1.687,1.7254,1.7016,1.6451,1.8634,1.9483,1.9544,2.0064,2.0632,2.1152,2.1085,2.0845,2.0582,2.0456,1.9657,1.8877,1.9189,1.9287,1.9273,1.9276,1.8816,1.7885,1.6015,1.5476,1.518,1.3873,1.2681,1.1552,1.0351,0.9231,0.8105,0.7228,0.616,0.509,0.4283,0.3127,0.1982,0.1196,0.0749,0.0473,0.0571,0.0191,0.0,0.0,0.0824,0.1264,0.1264,0.2195,0.2305,0.1385,0.0278,-0.1391,-0.3529,-0.5888,-0.7867,-0.9402,-1.0472,-1.1214,-1.1563,-1.2425,-1.3294,-1.4088,-1.4088,-1.4242,2.3487,2.3192,2.2812,2.2342,0.0,0.0,1.9703,1.9442,1.9068,0.0,0.0,0.0,0.0,0.0,0.0,0.0,0.0,0.0,0.0,0.0,0.0,0.0,0.0,0.0,0.0,0.0,0.0,0.0,2.5221,2.5443,2.5297,2.5148,2.5041,2.5015,2.493,2.539,2.6443,2.6507,2.6445,2.6196,2.5212,2.3731,2.1898,2.0456,1.9481,1.8944,1.8935,1.8728,1.8508,1.9077,1.8588,1.7686,1.9791,2.0526,2.0462,2.0974,2.1475,2.1975,2.1975,2.1393,2.0644,2.1039,1.985,1.8487,1.9084,1.9023,1.8848,1.9258,1.9132,1.8382,1.6434,1.5989,1.568,1.3762,1.2851,1.198,1.0869,0.9662,0.854,0.7316,0.58,0.4463,0.3748,0.2592,0.1623,0.0921,0.0747,0.0755,0.0856,0.0381,0.0,0.0,0.064,0.1266,0.1792,0.2552,0.2675,0.1847,0.1207,-0.0464,-0.35,-0.4899,-0.6656,-0.8911,-0.962,-0.9923,-0.9923,-1.1037,-1.1957,-1.2775,-1.3324,-1.3793,2.4006,2.3344,2.2754,2.2662,2.1739,0.0,1.9505,1.9526,1.9404,0.0,0.0,0.0,0.0,0.0,0.0,0.0,0.0,0.0,0.0,0.0,0.0,0.0,0.0,0.0,0.0,0.0,2.4526,2.5318,2.5459,2.5498,2.5428,2.5386,2.5343,2.5274,2.5088,2.5685,2.7148,2.6853,2.708,2.7749,2.6311,2.5046,2.3918,2.2115,2.1133,2.0758,2.0194,1.9515,1.9016,2.02,2.0265,1.9733,2.05,2.1244,2.1877,2.2002,2.2506,2.3078,2.3078,2.2063,2.0846,2.1616,2.0268,1.8462,1.9233,1.8983,1.8507,1.8852,1.9193,1.9049,1.7381,1.6839,1.6102,1.3355,1.2583,1.2157,1.1037,1.0009,0.8886,0.7577,0.526,0.357,0.357,0.2412,0.1442,0.1565,0.1384,0.1301,0.1519,0.057,-0.0189,0.0,0.0092,0.0731,0.1882,0.2007,0.2031,0.2031,0.1879,0.0282,-0.3226,-0.34,-0.5034,-0.8579,-0.8705,-0.8715,-0.8715,-1.0009,-1.0639,-1.0682,-1.2051,-1.294,0.0,0.0,0.0,0.0,0.0,0.0,2.1254,2.0994,2.08,0.0,0.0,0.0,0.0,0.0,0.0,0.0,0.0,0.0,0.0,0.0,0.0,0.0,0.0,0.0,0.0,0.0,2.4288,2.452,2.5184,2.5567,2.5561,2.5304,2.5149,2.5139,2.4943,2.4907,2.5075,2.5394,2.5372,2.5063,2.3893,2.3045,2.2468,2.1357,2.0784,2.0724,2.0663,2.0534,2.0435,2.0625,2.0117,1.9422,2.1272,2.1934,2.2002,2.2628,2.2944,2.3078,2.3078,2.2445,2.169,2.1815,2.1112,2.0139,2.0268,2.0742,2.1257,2.1324,2.0823,2.0091,1.8891,1.7869,1.6831,1.5343,1.4378,1.3385,1.2248,1.1809,1.1037,0.8973,0.5874,0.357,0.357,0.0982,-0.1081,-0.1104,-0.1935,-0.2226,-0.1233,-0.1314,-0.1114,-0.0093,0.0911,0.1977,0.3126,0.3369,0.3408,0.3224,0.2407,0.0741,-0.2031,-0.2179,-0.3414,-0.61,-0.6969,-0.7489,-0.7489,-0.957,-1.0197,-0.9422,-1.0631,-1.1496,0.0,0.0,0.0,2.4061,0.0,0.0,0.0,2.2021,2.1445,0.0,0.0,0.0,0.0,0.0,0.0,0.0,0.0,0.0,0.0,0.0,0.0,0.0,0.0,0.0,0.0,0.0,2.3961,2.4832,2.5305,2.5492,2.5362,2.5181,2.5041,2.4953,2.4766,2.4711,2.4857,2.4972,2.4813,2.4323,2.3653,2.3137,2.2713,2.1773,2.1483,2.1671,2.1368,2.1245,2.1224,2.1236,2.1056,2.0936,2.1644,2.1828,2.1795,2.2434,2.2548,2.2397,2.2877,2.2384,2.1582,2.2286,2.1616,2.0655,2.1101,2.1604,2.1985,2.1786,2.1494,2.0904,1.9423,1.8149,1.7009,1.5944,1.4894,1.3737,1.2589,1.1809,1.0956,0.9235,0.5505,0.285,0.3479,0.0619,-0.1679,-0.1698,-0.2683,-0.323,-0.2632,-0.2634,-0.2451,-0.1816,-0.072,0.0536,0.1692,0.2433,0.2736,0.2672,0.2194,0.0822,-0.1661,-0.181,-0.2681,-0.4463,-0.5138,-0.5681,-0.6248,-0.7467,-0.8082,-0.8265,-0.9522,-1.0306,0.0,0.0,0.0,0.0,0.0,2.3566,0.0,0.0,0.0,0.0,0.0,0.0,0.0,0.0,0.0,0.0,0.0,0.0,0.0,0.0,0.0,0.0,0.0,0.0,0.0,0.0,2.3684,2.5351,2.5473,2.537,2.512,2.5061,2.4946,2.476,2.4474,2.4524,2.4917,2.4635,2.4425,2.4364,2.371,2.3353,2.3188,2.234,2.2154,2.2497,2.2094,2.1899,2.1899,2.1744,2.2048,2.2498,2.1917,2.1712,2.1754,2.2141,2.2046,2.1769,2.2837,2.2474,2.1823,2.3128,2.264,2.1667,2.2466,2.258,2.2411,2.2182,2.2189,2.1866,2.0041,1.8762,1.756,1.6347,1.5047,1.3717,1.2583,1.1381,1.0178,0.879,0.5049,0.2394,0.319,0.0175,-0.2344,-0.2494,-0.3545,-0.434,-0.4402,-0.448,-0.445,-0.4009,-0.3034,-0.1873,-0.0445,0.0536,0.1174,0.1474,0.1449,0.0452,-0.1753,-0.2261,-0.296,-0.3972,-0.4116,-0.4567,-0.5481,-0.5392,-0.6071,-0.7464,-0.8582,-0.912,0.0,0.0,0.0,0.0,2.5377,0.0,0.0,0.0,0.0,0.0,0.0,0.0,0.0,0.0,0.0,0.0,0.0,0.0,0.0,0.0,0.0,0.0,0.0,0.0,0.0,0.0,0.0,2.5284,2.5401,2.5318,2.5111,2.4936,2.4741,2.4545,2.4041,2.3813,2.3883,2.3265,2.3374,2.4197,2.2274,2.1756,2.2506,2.1979,2.1754,2.1843,2.2352,2.2603,2.2543,2.1946,2.2025,2.2498,2.247,2.2375,2.2322,2.2387,2.2326,2.2337,2.3111,2.362,2.4071,2.4867,2.4993,2.4943,2.5332,2.4811,2.4193,2.453,2.399,2.3073,2.1941,2.0844,1.9584,1.756,1.5501,1.3659,1.2577,1.1381,0.9904,0.7705,0.5119,0.3069,0.2338,-0.1752,-0.5175,-0.5794,-0.725,-0.8166,-0.7881,-0.8014,-0.7421,-0.532,-0.4968,-0.3992,-0.1777,-0.1428,-0.0902,0.0092,0.0181,-0.0362,-0.1753,-0.3884,-0.5179,-0.5553,-0.5291,-0.5339,-0.5603,-0.5418,-0.6065,-0.737,-0.7566,-0.7742,0.0,0.0,0.0,0.0,0.0,0.0,2.5147,0.0,2.4749,0.0,0.0,0.0,0.0,0.0,0.0,0.0,0.0,0.0,0.0,0.0,0.0,0.0,0.0,0.0,0.0,0.0,0.0,0.0,0.0,2.5245,2.5056,2.4885,2.4617,2.4228,2.3883,2.3522,2.3117,2.2609,2.2474,2.2684,2.1551,2.1627,2.2817,2.2613,2.2976,2.3741,2.4045,2.4138,2.4138,2.3842,2.3853,2.4092,2.4104,2.3418,2.2442,2.2519,2.2521,2.2724,2.4035,2.4688,2.5059,2.572,2.5941,2.5839,2.5514,2.5162,2.4683,2.4189,2.3944,2.3603,2.2314,2.1629,2.0857,1.9053,1.7079,1.4947,1.2734,1.0709,0.8516,0.5648,0.2562,0.0088,-0.0947,-0.3384,-0.5567,-0.6548,-0.7254,-0.8181,-0.9419,-0.9163,-0.8765,-0.84,-0.7169,-0.5937,-0.496,-0.365,-0.2612,-0.2112,-0.2102,-0.2273,-0.2807,-0.3902,-0.4491,-0.4659,-0.4585,-0.4942,-0.5621,-0.553,-0.6173,-0.737,-0.7278,-0.7319,2.5599,0.0,0.0,0.0,0.0,0.0,0.0,0.0,0.0,0.0,0.0,0.0,0.0,0.0,0.0,0.0,0.0,0.0,0.0,0.0,0.0,0.0,0.0,0.0,0.0,0.0,0.0,0.0,0.0,0.0,2.4949,2.4855,2.4551,2.4007,2.3723,2.3236,2.2548,2.2269,2.202,2.1693,2.1535,2.2052,2.3119,2.3311,2.4044,2.5088,2.5282,2.5422,2.5484,2.5484,2.5575,2.5701,2.5575,2.4805,2.3716,2.3209,2.3055,2.3339,2.5005,2.5997,2.6564,2.7021,2.7119,2.6997,2.6189,2.5952,2.5711,2.4633,2.4751,2.4925,2.3496,2.327,2.2909,2.1021,1.8761,1.6132,1.2832,0.9711,0.6541,0.3298,0.0087,-0.2523,-0.3707,-0.4856,-0.6153,-0.7502,-0.7595,-0.8414,-1.0955,-1.0389,-1.0183,-1.0956,-0.9283,-0.7967,-0.7625,-0.5458,-0.3987,-0.368,-0.3959,-0.4116,-0.4144,-0.4567,-0.4811,-0.4864,-0.4653,-0.4942,-0.5714,-0.5714,-0.607,-0.6961,-0.7091,-0.7285,0.0,0.0,0.0,2.5601,0.0,0.0,0.0,0.0,2.557,0.0,0.0,0.0,0.0,0.0,0.0,0.0,0.0,0.0,0.0,0.0,0.0,0.0,0.0,0.0,0.0,0.0,0.0,0.0,0.0,0.0,2.4799,2.4804,2.4551,2.4007,2.3494,2.2863,2.2124,2.2243,2.2205,2.1981,2.2442,2.2818,2.3135,2.3827,2.4389,2.486,2.5483,2.5961,2.6252,2.6252,2.6567,2.6985,2.6485,2.655,2.673,2.4844,2.4104,2.4268,2.5753,2.7585,2.9268,2.93,2.93,2.9137,2.8312,2.8106,2.792,2.712,2.7332,2.7582,2.6613,2.6816,2.6538,2.3633,2.0329,1.6791,1.2797,0.8337,0.422,0.0919,-0.1501,-0.3442,-0.482,-0.6156,-0.7631,-0.9519,-0.923,-0.9933,-1.3092,-1.2692,-1.2242,-1.2242,-1.1209,-1.0005,-0.8973,-0.6812,-0.5064,-0.3867,-0.4789,-0.5435,-0.5524,-0.663,-0.7409,-0.7694,-0.6435,-0.5851,-0.5948,-0.5848,-0.579,-0.5871,-0.6872,-0.7448,0.0,0.0,2.5661,2.5661,0.0,0.0,0.0,0.0,0.0,0.0,0.0,0.0,0.0,0.0,0.0,0.0,0.0,0.0,0.0,0.0,0.0,0.0,0.0,0.0,0.0,0.0,0.0,0.0,0.0,0.0,0.0,2.4804,2.4449,2.3678,2.3365,2.289,2.2243,2.1969,2.1956,2.2192,2.2526,2.331,2.4438,2.513,2.6061,2.7056,2.7148,2.7325,2.755,2.7414,2.7455,2.7607,2.7425,2.7455,2.7442,2.5837,2.5522,2.6046,2.7662,2.9138,3.0246,3.0053,3.0385,3.0576,2.913,2.8639,2.8512,2.7735,2.772,2.774,2.6631,2.694,2.6929,2.4564,2.1511,1.7983,1.386,0.869,0.3693,-0.0255,-0.2811,-0.4791,-0.6049,-0.6704,-0.7763,-1.0045,-0.9488,-1.0163,-1.3516,-1.2971,-1.2589,-1.3379,-1.1735,-1.0497,-1.021,-0.815,-0.6728,-0.6176,-0.6539,-0.6684,-0.6591,-0.6312,-0.625,-0.6314,-0.5239,-0.4592,-0.4592,-0.537,-0.5838,-0.58,-0.7108,-0.816,2.5683,2.5703,0.0,2.5703,2.5703,0.0,2.5662,0.0,0.0,0.0,0.0,0.0,0.0,0.0,0.0,0.0,0.0,0.0,0.0,2.5008,0.0,0.0,0.0,0.0,0.0,0.0,0.0,0.0,0.0,0.0,0.0,0.0,2.4498,2.3819,2.352,2.3063,2.2402,2.2241,2.2377,2.2839,2.3532,2.4535,2.5835,2.6623,2.7536,2.8505,2.8384,2.8482,2.8705,2.8591,2.853,2.853,2.853,2.853,2.837,2.71,2.7246,2.8271,2.9747,3.0819,3.1474,3.1409,3.1742,3.1927,3.0458,2.9992,2.9831,2.9044,2.8944,2.8809,2.7847,2.8051,2.7919,2.57,2.2286,1.8359,1.3836,0.8044,0.246,-0.1424,-0.3936,-0.5794,-0.6658,-0.6848,-0.7588,-0.9707,-0.8969,-0.9405,-1.2437,-1.1821,-1.1558,-1.2693,-1.1133,-0.986,-0.9691,-0.8313,-0.7499,-0.7455,-0.735,-0.7244,-0.7143,-0.6105,-0.5598,-0.5553,-0.4564,-0.3936,-0.3889,-0.5246,-0.5917,-0.592,-0.7202,-0.8564]}]]